Time,TemperatureF,DewpointF,PressureIn,WindDirection,WindDirectionDegrees,WindSpeedMPH,WindSpeedGustMPH,Humidity,HourlyPrecipIn,Conditions,Clouds,dailyrainin,SoftwareType,DateUTC
2013-10-15 00:00:00,62.7,61.0,30.09,NNE,31,0.0,0.0,94,0.00,,---,0.02,VWS V14.01,2013-10-15 04:00:00,
2013-10-15 00:01:00,62.7,61.0,30.09,NNE,31,0.0,0.0,94,0.00,,---,0.00,VWS V14.01,2013-10-15 04:01:00,
2013-10-15 00:02:00,62.7,61.0,30.09,NNE,31,0.0,0.0,94,0.00,,---,0.00,VWS V14.01,2013-10-15 04:02:00,
2013-10-15 00:03:00,62.6,60.8,30.09,NNE,31,0.0,0.0,94,0.00,,---,0.00,VWS V14.01,2013-10-15 04:03:00,
2013-10-15 00:04:00,62.6,60.8,30.09,NNE,31,0.0,0.0,94,0.00,,---,0.00,VWS V14.01,2013-10-15 04:04:00,
2013-10-15 00:05:00,62.6,60.8,30.09,NNE,31,0.0,0.0,94,0.00,,---,0.00,VWS V14.01,2013-10-15 04:05:00,
2013-10-15 00:06:00,62.6,60.8,30.09,NNE,31,0.0,0.0,94,0.00,,---,0.00,VWS V14.01,2013-10-15 04:06:00,
2013-10-15 00:07:00,62.4,60.7,30.09,NNE,31,0.0,0.0,94,0.00,,---,0.00,VWS V14.01,2013-10-15 04:07:00,
2013-10-15 00:08:00,62.4,60.7,30.09,NNE,31,0.0,0.0,94,0.00,,---,0.00,VWS V14.01,2013-10-15 04:08:00,
2013-10-15 00:09:00,62.4,60.7,30.09,NE,47,0.0,0.0,94,0.00,,---,0.00,VWS V14.01,2013-10-15 04:09:00,
2013-10-15 00:10:00,62.4,60.7,30.09,NE,47,0.0,0.0,94,0.00,,---,0.00,VWS V14.01,2013-10-15 04:10:00,
2013-10-15 00:11:00,62.4,60.7,30.09,NNE,20,0.0,1.0,94,0.00,,---,0.00,VWS V14.01,2013-10-15 04:11:00,
2013-10-15 00:12:00,62.4,61.0,30.09,NNE,20,0.0,1.0,95,0.00,,---,0.00,VWS V14.01,2013-10-15 04:12:00,
2013-10-15 00:13:00,62.3,60.8,30.09,NNE,20,0.0,1.0,95,0.00,,---,0.00,VWS V14.01,2013-10-15 04:13:00,
2013-10-15 00:14:00,62.3,60.8,30.09,NNE,20,0.0,1.0,95,0.00,,---,0.00,VWS V14.01,2013-10-15 04:14:00,
2013-10-15 00:15:00,62.3,60.8,30.08,NNE,20,0.0,1.0,95,0.00,,---,0.00,VWS V14.01,2013-10-15 04:15:00,
2013-10-15 00:16:00,62.3,60.8,30.08,NNE,20,0.0,1.0,95,0.00,,---,0.00,VWS V14.01,2013-10-15 04:16:00,
2013-10-15 00:17:00,62.3,60.8,30.08,NNE,20,0.0,1.0,95,0.00,,---,0.00,VWS V14.01,2013-10-15 04:17:00,
2013-10-15 00:18:00,62.3,60.8,30.08,NNE,20,0.0,1.0,95,0.00,,---,0.00,VWS V14.01,2013-10-15 04:18:00,
2013-10-15 00:19:00,62.3,60.8,30.08,NNE,20,0.0,1.0,95,0.00,,---,0.00,VWS V14.01,2013-10-15 04:19:00,
2013-10-15 00:20:00,62.3,60.8,30.08,NNE,20,0.0,1.0,95,0.00,,---,0.00,VWS V14.01,2013-10-15 04:20:00,
2013-10-15 00:21:00,62.1,60.7,30.08,NNE,20,0.0,0.0,95,0.00,,---,0.00,VWS V14.01,2013-10-15 04:21:00,
2013-10-15 00:22:00,62.1,60.7,30.08,NNE,23,0.0,0.0,95,0.00,,---,0.00,VWS V14.01,2013-10-15 04:22:00,
2013-10-15 00:23:00,62.1,60.7,30.08,NNE,23,0.0,0.0,95,0.00,,---,0.00,VWS V14.01,2013-10-15 04:23:00,
2013-10-15 00:24:00,62.1,60.7,30.08,NNE,23,0.0,0.0,95,0.00,,---,0.00,VWS V14.01,2013-10-15 04:24:00,
2013-10-15 00:25:00,62.1,60.7,30.08,NNE,23,0.0,0.0,95,0.00,,---,0.00,VWS V14.01,2013-10-15 04:25:00,
2013-10-15 00:26:00,62.1,60.7,30.08,NNE,23,0.0,0.0,95,0.00,,---,0.00,VWS V14.01,2013-10-15 04:26:00,
2013-10-15 00:27:00,62.1,60.7,30.08,NNE,23,0.0,0.0,95,0.00,,---,0.00,VWS V14.01,2013-10-15 04:27:00,
2013-10-15 00:28:00,62.1,60.7,30.08,NNE,23,0.0,0.0,95,0.00,,---,0.00,VWS V14.01,2013-10-15 04:28:00,
2013-10-15 00:29:00,62.0,60.6,30.08,NNE,23,0.0,0.0,95,0.00,,---,0.00,VWS V14.01,2013-10-15 04:29:00,
2013-10-15 00:30:00,62.0,60.3,30.08,NNE,23,0.0,0.0,94,0.00,,---,0.00,VWS V14.01,2013-10-15 04:30:00,
2013-10-15 00:31:00,62.0,60.6,30.08,ENE,65,0.0,0.0,95,0.00,,---,0.00,VWS V14.01,2013-10-15 04:31:00,
2013-10-15 00:32:00,62.0,60.6,30.08,ENE,65,0.0,0.0,95,0.00,,---,0.00,VWS V14.01,2013-10-15 04:32:00,
2013-10-15 00:33:00,61.8,60.4,30.08,ENE,65,0.0,0.0,95,0.00,,---,0.00,VWS V14.01,2013-10-15 04:33:00,
2013-10-15 00:34:00,61.8,60.4,30.08,ENE,65,0.0,0.0,95,0.00,,---,0.00,VWS V14.01,2013-10-15 04:34:00,
2013-10-15 00:35:00,61.8,60.4,30.08,ENE,65,0.0,0.0,95,0.00,,---,0.00,VWS V14.01,2013-10-15 04:35:00,
2013-10-15 00:36:00,61.8,60.4,30.08,ENE,65,0.0,0.0,95,0.00,,---,0.00,VWS V14.01,2013-10-15 04:36:00,
2013-10-15 00:37:00,61.8,60.4,30.08,North,4,0.0,0.0,95,0.00,,---,0.00,VWS V14.01,2013-10-15 04:37:00,
2013-10-15 00:38:00,61.8,60.4,30.08,NE,37,0.0,3.0,95,0.00,,---,0.00,VWS V14.01,2013-10-15 04:38:00,
2013-10-15 00:39:00,61.8,60.7,30.08,NE,37,0.0,3.0,96,0.00,,---,0.00,VWS V14.01,2013-10-15 04:39:00,
2013-10-15 00:40:00,61.8,60.4,30.08,NE,37,0.0,3.0,95,0.00,,---,0.00,VWS V14.01,2013-10-15 04:40:00,
2013-10-15 00:41:00,61.8,60.4,30.08,NE,37,0.0,0.0,95,0.00,,---,0.00,VWS V14.01,2013-10-15 04:41:00,
2013-10-15 00:42:00,61.6,60.5,30.08,NE,37,0.0,0.0,96,0.00,,---,0.00,VWS V14.01,2013-10-15 04:42:00,
2013-10-15 00:43:00,61.6,60.5,30.08,NE,37,0.0,0.0,96,0.00,,---,0.00,VWS V14.01,2013-10-15 04:43:00,
2013-10-15 00:44:00,61.6,60.5,30.08,NE,37,0.0,0.0,96,0.00,,---,0.00,VWS V14.01,2013-10-15 04:44:00,
2013-10-15 00:45:00,61.6,60.5,30.08,NE,37,0.0,0.0,96,0.00,,---,0.00,VWS V14.01,2013-10-15 04:45:00,
2013-10-15 00:46:00,61.6,60.5,30.08,NE,37,0.0,0.0,96,0.00,,---,0.00,VWS V14.01,2013-10-15 04:46:00,
2013-10-15 00:47:00,61.6,60.2,30.08,NE,37,0.0,0.0,95,0.00,,---,0.00,VWS V14.01,2013-10-15 04:47:00,
2013-10-15 00:48:00,61.5,60.1,30.08,NE,37,0.0,0.0,95,0.00,,---,0.00,VWS V14.01,2013-10-15 04:48:00,
2013-10-15 00:49:00,61.5,60.1,30.08,NE,37,0.0,0.0,95,0.00,,---,0.00,VWS V14.01,2013-10-15 04:49:00,
2013-10-15 00:50:00,61.5,60.3,30.08,NE,37,0.0,0.0,96,0.00,,---,0.00,VWS V14.01,2013-10-15 04:50:00,
2013-10-15 00:51:00,61.5,60.3,30.08,NE,37,0.0,0.0,96,0.00,,---,0.00,VWS V14.01,2013-10-15 04:51:00,
2013-10-15 00:52:00,61.5,60.3,30.08,NE,37,0.0,0.0,96,0.00,,---,0.00,VWS V14.01,2013-10-15 04:52:00,
2013-10-15 00:53:00,61.5,60.3,30.08,NE,37,0.0,0.0,96,0.00,,---,0.00,VWS V14.01,2013-10-15 04:53:00,
2013-10-15 00:54:00,61.3,60.2,30.08,NE,37,0.0,0.0,96,0.00,,---,0.00,VWS V14.01,2013-10-15 04:54:00,
2013-10-15 00:55:00,61.3,60.2,30.08,NE,37,0.0,0.0,96,0.00,,---,0.00,VWS V14.01,2013-10-15 04:55:00,
2013-10-15 00:56:00,61.3,60.2,30.08,NE,37,0.0,0.0,96,0.00,,---,0.00,VWS V14.01,2013-10-15 04:56:00,
2013-10-15 00:57:00,61.3,60.2,30.08,NE,37,0.0,0.0,96,0.00,,---,0.00,VWS V14.01,2013-10-15 04:57:00,
2013-10-15 00:58:00,61.3,60.2,30.08,NE,37,0.0,0.0,96,0.00,,---,0.00,VWS V14.01,2013-10-15 04:58:00,
2013-10-15 00:59:00,61.3,60.4,30.08,NE,37,0.0,0.0,97,0.00,,---,0.00,VWS V14.01,2013-10-15 04:59:00,
2013-10-15 01:00:00,61.3,60.4,30.08,NE,37,0.0,0.0,97,0.00,,---,0.00,VWS V14.01,2013-10-15 05:00:00,
2013-10-15 01:01:00,61.3,60.4,30.08,NE,37,0.0,0.0,97,0.00,,---,0.00,VWS V14.01,2013-10-15 05:01:00,
2013-10-15 01:02:00,61.3,60.4,30.08,NE,37,0.0,0.0,97,0.00,,---,0.00,VWS V14.01,2013-10-15 05:02:00,
2013-10-15 01:03:00,61.3,60.2,30.08,NE,37,0.0,0.0,96,0.00,,---,0.00,VWS V14.01,2013-10-15 05:03:00,
2013-10-15 01:04:00,61.3,60.2,30.08,NE,37,0.0,0.0,96,0.00,,---,0.00,VWS V14.01,2013-10-15 05:04:00,
2013-10-15 01:05:00,61.2,60.3,30.08,NE,37,0.0,1.0,97,0.00,,---,0.00,VWS V14.01,2013-10-15 05:05:00,
2013-10-15 01:06:00,61.2,60.3,30.08,NE,37,0.0,1.0,97,0.00,,---,0.00,VWS V14.01,2013-10-15 05:06:00,
2013-10-15 01:07:00,61.2,60.0,30.08,NE,37,0.0,1.0,96,0.00,,---,0.00,VWS V14.01,2013-10-15 05:07:00,
2013-10-15 01:08:00,61.2,60.3,30.08,NE,37,0.0,1.0,97,0.00,,---,0.00,VWS V14.01,2013-10-15 05:08:00,
2013-10-15 01:09:00,61.2,60.3,30.08,NE,37,0.0,1.0,97,0.00,,---,0.00,VWS V14.01,2013-10-15 05:09:00,
2013-10-15 01:10:00,61.2,60.3,30.08,NE,37,0.0,1.0,97,0.00,,---,0.00,VWS V14.01,2013-10-15 05:10:00,
2013-10-15 01:11:00,61.2,60.3,30.08,NE,37,1.0,1.0,97,0.00,,---,0.00,VWS V14.01,2013-10-15 05:11:00,
2013-10-15 01:12:00,61.2,60.0,30.08,NE,37,0.0,2.0,96,0.00,,---,0.00,VWS V14.01,2013-10-15 05:12:00,
2013-10-15 01:13:00,61.2,60.0,30.08,NE,37,2.0,2.0,96,0.00,,---,0.00,VWS V14.01,2013-10-15 05:13:00,
2013-10-15 01:14:00,61.2,60.0,30.08,NE,37,0.0,2.0,96,0.00,,---,0.00,VWS V14.01,2013-10-15 05:14:00,
2013-10-15 01:15:00,61.2,60.0,30.07,NE,37,0.0,2.0,96,0.00,,---,0.00,VWS V14.01,2013-10-15 05:15:00,
2013-10-15 01:16:00,61.0,59.9,30.07,NE,37,0.0,2.0,96,0.00,,---,0.00,VWS V14.01,2013-10-15 05:16:00,
2013-10-15 01:17:00,61.0,59.9,30.07,NE,34,3.0,3.0,96,0.00,,---,0.00,VWS V14.01,2013-10-15 05:17:00,
2013-10-15 01:18:00,61.0,59.9,30.07,NE,34,0.0,3.0,96,0.00,,---,0.00,VWS V14.01,2013-10-15 05:18:00,
2013-10-15 01:19:00,61.0,59.9,30.07,NE,34,0.0,3.0,96,0.00,,---,0.00,VWS V14.01,2013-10-15 05:19:00,
2013-10-15 01:20:00,61.0,59.9,30.07,NNE,25,0.0,3.0,96,0.00,,---,0.00,VWS V14.01,2013-10-15 05:20:00,
2013-10-15 01:21:00,61.0,59.9,30.07,NE,41,0.0,0.0,96,0.00,,---,0.00,VWS V14.01,2013-10-15 05:21:00,
2013-10-15 01:22:00,61.0,59.9,30.07,NE,41,0.0,0.0,96,0.00,,---,0.00,VWS V14.01,2013-10-15 05:22:00,
2013-10-15 01:23:00,60.9,59.8,30.07,NE,41,0.0,0.0,96,0.00,,---,0.00,VWS V14.01,2013-10-15 05:23:00,
2013-10-15 01:24:00,60.9,59.8,30.07,NE,38,2.0,2.0,96,0.00,,---,0.00,VWS V14.01,2013-10-15 05:24:00,
2013-10-15 01:25:00,60.9,59.8,30.07,NE,38,0.0,2.0,96,0.00,,---,0.00,VWS V14.01,2013-10-15 05:25:00,
2013-10-15 01:26:00,60.9,59.8,30.07,NE,38,0.0,2.0,96,0.00,,---,0.00,VWS V14.01,2013-10-15 05:26:00,
2013-10-15 01:27:00,60.9,59.8,30.07,NE,38,0.0,2.0,96,0.00,,---,0.00,VWS V14.01,2013-10-15 05:27:00,
2013-10-15 01:28:00,60.9,60.0,30.07,NNE,32,3.0,3.0,97,0.00,,---,0.00,VWS V14.01,2013-10-15 05:28:00,
2013-10-15 01:29:00,60.9,60.0,30.07,NNE,32,0.0,3.0,97,0.00,,---,0.00,VWS V14.01,2013-10-15 05:29:00,
2013-10-15 01:30:00,60.9,60.0,30.08,NNE,32,0.0,3.0,97,0.00,,---,0.00,VWS V14.01,2013-10-15 05:30:00,
2013-10-15 01:31:00,60.7,59.8,30.08,NNE,32,0.0,0.0,97,0.00,,---,0.00,VWS V14.01,2013-10-15 05:31:00,
2013-10-15 01:32:00,60.7,59.8,30.08,NNE,32,0.0,0.0,97,0.00,,---,0.00,VWS V14.01,2013-10-15 05:32:00,
2013-10-15 01:33:00,60.7,59.8,30.08,NNE,32,0.0,0.0,97,0.00,,---,0.00,VWS V14.01,2013-10-15 05:33:00,
2013-10-15 01:34:00,60.7,59.8,30.08,NNE,32,0.0,0.0,97,0.00,,---,0.00,VWS V14.01,2013-10-15 05:34:00,
2013-10-15 01:35:00,60.7,59.8,30.08,NNE,32,0.0,0.0,97,0.00,,---,0.00,VWS V14.01,2013-10-15 05:35:00,
2013-10-15 01:36:00,60.7,59.8,30.08,NNE,32,0.0,0.0,97,0.00,,---,0.00,VWS V14.01,2013-10-15 05:36:00,
2013-10-15 01:37:00,60.7,59.8,30.08,NNE,32,0.0,0.0,97,0.00,,---,0.00,VWS V14.01,2013-10-15 05:37:00,
2013-10-15 01:38:00,60.7,59.8,30.08,NNE,32,0.0,0.0,97,0.00,,---,0.00,VWS V14.01,2013-10-15 05:38:00,
2013-10-15 01:39:00,60.7,59.8,30.08,NNE,32,0.0,0.0,97,0.00,,---,0.00,VWS V14.01,2013-10-15 05:39:00,
2013-10-15 01:40:00,60.7,59.8,30.08,NNE,32,0.0,0.0,97,0.00,,---,0.00,VWS V14.01,2013-10-15 05:40:00,
2013-10-15 01:41:00,60.7,59.8,30.08,NNE,32,0.0,0.0,97,0.00,,---,0.00,VWS V14.01,2013-10-15 05:41:00,
2013-10-15 01:42:00,60.7,59.6,30.08,NNE,32,0.0,0.0,96,0.00,,---,0.00,VWS V14.01,2013-10-15 05:42:00,
2013-10-15 01:43:00,60.5,59.7,30.08,NNE,32,0.0,0.0,97,0.00,,---,0.00,VWS V14.01,2013-10-15 05:43:00,
2013-10-15 01:44:00,60.5,59.7,30.08,NNE,32,0.0,0.0,97,0.00,,---,0.00,VWS V14.01,2013-10-15 05:44:00,
2013-10-15 01:45:00,60.5,59.7,30.08,NNE,32,0.0,0.0,97,0.00,,---,0.00,VWS V14.01,2013-10-15 05:45:00,
2013-10-15 01:46:00,60.5,59.7,30.08,NNE,32,0.0,0.0,97,0.00,,---,0.00,VWS V14.01,2013-10-15 05:46:00,
2013-10-15 01:47:00,60.5,59.7,30.08,NNE,32,0.0,0.0,97,0.00,,---,0.00,VWS V14.01,2013-10-15 05:47:00,
2013-10-15 01:48:00,60.5,59.7,30.08,NNE,32,0.0,0.0,97,0.00,,---,0.00,VWS V14.01,2013-10-15 05:48:00,
2013-10-15 01:49:00,60.5,59.7,30.08,WNW,291,0.0,0.0,97,0.00,,---,0.00,VWS V14.01,2013-10-15 05:49:00,
2013-10-15 01:50:00,60.5,59.7,30.08,WNW,291,0.0,0.0,97,0.00,,---,0.00,VWS V14.01,2013-10-15 05:50:00,
2013-10-15 01:51:00,60.5,59.7,30.08,WNW,291,0.0,0.0,97,0.00,,---,0.00,VWS V14.01,2013-10-15 05:51:00,
2013-10-15 01:52:00,60.5,59.7,30.08,NW,304,0.0,0.0,97,0.00,,---,0.00,VWS V14.01,2013-10-15 05:52:00,
2013-10-15 01:53:00,60.4,59.5,30.08,NW,304,0.0,0.0,97,0.00,,---,0.00,VWS V14.01,2013-10-15 05:53:00,
2013-10-15 01:54:00,60.4,59.5,30.08,ENE,76,0.0,0.0,97,0.00,,---,0.00,VWS V14.01,2013-10-15 05:54:00,
2013-10-15 01:55:00,60.4,59.5,30.08,ENE,76,0.0,0.0,97,0.00,,---,0.00,VWS V14.01,2013-10-15 05:55:00,
2013-10-15 01:56:00,60.4,59.5,30.08,ENE,76,0.0,0.0,97,0.00,,---,0.00,VWS V14.01,2013-10-15 05:56:00,
2013-10-15 01:57:00,60.4,59.5,30.08,ENE,76,0.0,0.0,97,0.00,,---,0.00,VWS V14.01,2013-10-15 05:57:00,
2013-10-15 01:58:00,60.4,59.5,30.08,North,7,0.0,3.0,97,0.00,,---,0.00,VWS V14.01,2013-10-15 05:58:00,
2013-10-15 01:59:00,60.4,59.5,30.08,North,7,0.0,3.0,97,0.00,,---,0.00,VWS V14.01,2013-10-15 05:59:00,
2013-10-15 02:00:00,60.4,59.5,30.07,North,7,0.0,3.0,97,0.00,,---,0.00,VWS V14.01,2013-10-15 06:00:00,
2013-10-15 02:01:00,60.4,59.5,30.07,NNE,21,2.0,3.0,97,0.00,,---,0.00,VWS V14.01,2013-10-15 06:01:00,
2013-10-15 02:02:00,60.2,59.3,30.07,NNE,21,0.0,3.0,97,0.00,,---,0.00,VWS V14.01,2013-10-15 06:02:00,
2013-10-15 02:03:00,60.2,59.3,30.07,NNE,21,0.0,3.0,97,0.00,,---,0.00,VWS V14.01,2013-10-15 06:03:00,
2013-10-15 02:04:00,60.2,59.3,30.07,NE,38,0.0,3.0,97,0.00,,---,0.00,VWS V14.01,2013-10-15 06:04:00,
2013-10-15 02:05:00,60.2,59.3,30.07,NNW,346,0.0,3.0,97,0.00,,---,0.00,VWS V14.01,2013-10-15 06:05:00,
2013-10-15 02:06:00,60.2,59.3,30.07,NNE,28,0.0,3.0,97,0.00,,---,0.00,VWS V14.01,2013-10-15 06:06:00,
2013-10-15 02:07:00,60.2,59.3,30.07,NNE,28,0.0,3.0,97,0.00,,---,0.00,VWS V14.01,2013-10-15 06:07:00,
2013-10-15 02:08:00,60.2,59.3,30.07,NNE,28,0.0,3.0,97,0.00,,---,0.00,VWS V14.01,2013-10-15 06:08:00,
2013-10-15 02:09:00,60.1,59.5,30.07,NE,42,0.0,3.0,98,0.00,,---,0.00,VWS V14.01,2013-10-15 06:09:00,
2013-10-15 02:10:00,60.1,59.5,30.07,North,4,0.0,3.0,98,0.00,,---,0.00,VWS V14.01,2013-10-15 06:10:00,
2013-10-15 02:11:00,60.1,59.5,30.07,North,4,0.0,0.0,98,0.00,,---,0.00,VWS V14.01,2013-10-15 06:11:00,
2013-10-15 02:12:00,60.1,59.5,30.07,North,4,0.0,0.0,98,0.00,,---,0.00,VWS V14.01,2013-10-15 06:12:00,
2013-10-15 02:13:00,60.1,59.5,30.07,NNE,32,3.0,3.0,98,0.00,,---,0.00,VWS V14.01,2013-10-15 06:13:00,
2013-10-15 02:14:00,60.1,59.5,30.07,NNE,31,0.0,3.0,98,0.00,,---,0.00,VWS V14.01,2013-10-15 06:14:00,
2013-10-15 02:15:00,60.1,59.5,30.07,North,8,1.0,4.0,98,0.00,,---,0.00,VWS V14.01,2013-10-15 06:15:00,
2013-10-15 02:16:00,60.1,59.5,30.07,NNE,28,0.0,4.0,98,0.00,,---,0.00,VWS V14.01,2013-10-15 06:16:00,
2013-10-15 02:17:00,60.1,59.5,30.07,NNE,28,2.0,4.0,98,0.00,,---,0.00,VWS V14.01,2013-10-15 06:17:00,
2013-10-15 02:18:00,60.1,59.5,30.07,NNE,32,0.0,4.0,98,0.00,,---,0.00,VWS V14.01,2013-10-15 06:18:00,
2013-10-15 02:19:00,60.1,59.5,30.07,NNE,32,0.0,4.0,98,0.00,,---,0.00,VWS V14.01,2013-10-15 06:19:00,
2013-10-15 02:20:00,60.1,59.5,30.07,NNE,27,0.0,4.0,98,0.00,,---,0.00,VWS V14.01,2013-10-15 06:20:00,
2013-10-15 02:21:00,60.1,59.5,30.07,NNE,27,0.0,0.0,98,0.00,,---,0.00,VWS V14.01,2013-10-15 06:21:00,
2013-10-15 02:22:00,60.1,59.5,30.07,NNE,27,0.0,0.0,98,0.00,,---,0.00,VWS V14.01,2013-10-15 06:22:00,
2013-10-15 02:23:00,60.1,59.5,30.07,NNE,27,0.0,2.0,98,0.00,,---,0.00,VWS V14.01,2013-10-15 06:23:00,
2013-10-15 02:24:00,60.1,59.5,30.07,NNE,27,0.0,2.0,98,0.00,,---,0.00,VWS V14.01,2013-10-15 06:24:00,
2013-10-15 02:25:00,60.1,59.5,30.07,NNE,27,0.0,2.0,98,0.00,,---,0.00,VWS V14.01,2013-10-15 06:25:00,
2013-10-15 02:26:00,60.1,59.5,30.07,NNE,21,2.0,2.0,98,0.00,,---,0.00,VWS V14.01,2013-10-15 06:26:00,
2013-10-15 02:27:00,60.1,59.5,30.07,NNE,21,0.0,2.0,98,0.00,,---,0.00,VWS V14.01,2013-10-15 06:27:00,
2013-10-15 02:28:00,60.1,59.5,30.07,ENE,65,0.0,5.0,98,0.00,,---,0.00,VWS V14.01,2013-10-15 06:28:00,
2013-10-15 02:29:00,60.1,59.5,30.07,NNE,13,0.0,5.0,98,0.00,,---,0.00,VWS V14.01,2013-10-15 06:29:00,
2013-10-15 02:30:00,59.9,59.3,30.06,North,4,1.0,5.0,98,0.00,,---,0.00,VWS V14.01,2013-10-15 06:30:00,
2013-10-15 02:31:00,59.9,59.3,30.06,ENE,71,1.0,3.0,98,0.00,,---,0.00,VWS V14.01,2013-10-15 06:31:00,
2013-10-15 02:32:00,59.9,59.3,30.06,NNE,27,0.0,3.0,98,0.00,,---,0.00,VWS V14.01,2013-10-15 06:32:00,
2013-10-15 02:33:00,59.9,59.3,30.06,NE,35,0.0,5.0,98,0.00,,---,0.00,VWS V14.01,2013-10-15 06:33:00,
2013-10-15 02:34:00,59.9,59.0,30.06,NE,35,0.0,5.0,97,0.00,,---,0.00,VWS V14.01,2013-10-15 06:34:00,
2013-10-15 02:35:00,59.9,59.0,30.06,NE,40,2.0,5.0,97,0.00,,---,0.00,VWS V14.01,2013-10-15 06:35:00,
2013-10-15 02:36:00,59.9,59.0,30.06,NE,45,5.0,5.0,97,0.00,,---,0.00,VWS V14.01,2013-10-15 06:36:00,
2013-10-15 02:37:00,59.9,59.3,30.06,NE,35,1.0,5.0,98,0.00,,---,0.00,VWS V14.01,2013-10-15 06:37:00,
2013-10-15 02:38:00,59.9,59.3,30.06,NNE,14,0.0,5.0,98,0.00,,---,0.00,VWS V14.01,2013-10-15 06:38:00,
2013-10-15 02:39:00,59.9,59.3,30.06,NNE,14,0.0,5.0,98,0.00,,---,0.00,VWS V14.01,2013-10-15 06:39:00,
2013-10-15 02:40:00,59.8,59.2,30.06,NNE,16,0.0,5.0,98,0.00,,---,0.00,VWS V14.01,2013-10-15 06:40:00,
2013-10-15 02:41:00,59.8,59.2,30.06,NNE,18,2.0,2.0,98,0.00,,---,0.00,VWS V14.01,2013-10-15 06:41:00,
2013-10-15 02:42:00,59.8,59.2,30.06,North,10,4.0,5.0,98,0.00,,---,0.00,VWS V14.01,2013-10-15 06:42:00,
2013-10-15 02:43:00,59.8,59.0,30.06,North,11,0.0,5.0,97,0.00,,---,0.00,VWS V14.01,2013-10-15 06:43:00,
2013-10-15 02:44:00,59.8,59.2,30.06,NNE,14,2.0,5.0,98,0.00,,---,0.00,VWS V14.01,2013-10-15 06:44:00,
2013-10-15 02:45:00,59.8,59.2,30.05,NNE,28,0.0,5.0,98,0.00,,---,0.00,VWS V14.01,2013-10-15 06:45:00,
2013-10-15 02:46:00,59.8,59.2,30.05,NNE,28,0.0,5.0,98,0.00,,---,0.00,VWS V14.01,2013-10-15 06:46:00,
2013-10-15 02:47:00,59.8,59.2,30.05,NNE,28,0.0,5.0,98,0.00,,---,0.00,VWS V14.01,2013-10-15 06:47:00,
2013-10-15 02:48:00,59.8,59.2,30.05,NNE,32,2.0,5.0,98,0.00,,---,0.00,VWS V14.01,2013-10-15 06:48:00,
2013-10-15 02:49:00,59.8,59.2,30.05,NNE,27,0.0,5.0,98,0.00,,---,0.00,VWS V14.01,2013-10-15 06:49:00,
2013-10-15 02:50:00,59.8,59.2,30.05,NNE,27,0.0,5.0,98,0.00,,---,0.00,VWS V14.01,2013-10-15 06:50:00,
2013-10-15 02:51:00,59.8,59.2,30.05,NNE,32,0.0,2.0,98,0.00,,---,0.00,VWS V14.01,2013-10-15 06:51:00,
2013-10-15 02:52:00,59.8,59.2,30.05,NE,34,0.0,2.0,98,0.00,,---,0.00,VWS V14.01,2013-10-15 06:52:00,
2013-10-15 02:53:00,59.8,59.0,30.05,North,0,0.0,2.0,97,0.00,,---,0.00,VWS V14.01,2013-10-15 06:53:00,
2013-10-15 02:54:00,59.8,59.0,30.05,North,0,0.0,2.0,97,0.00,,---,0.00,VWS V14.01,2013-10-15 06:54:00,
2013-10-15 02:55:00,59.8,59.0,30.05,North,0,0.0,2.0,97,0.00,,---,0.00,VWS V14.01,2013-10-15 06:55:00,
2013-10-15 02:56:00,59.8,59.0,30.05,North,0,0.0,2.0,97,0.00,,---,0.00,VWS V14.01,2013-10-15 06:56:00,
2013-10-15 02:57:00,59.8,59.0,30.05,North,1,0.0,2.0,97,0.00,,---,0.00,VWS V14.01,2013-10-15 06:57:00,
2013-10-15 02:58:00,59.6,58.8,30.05,NE,56,3.0,3.0,97,0.00,,---,0.00,VWS V14.01,2013-10-15 06:58:00,
2013-10-15 02:59:00,59.6,59.0,30.05,NE,56,0.0,3.0,98,0.00,,---,0.00,VWS V14.01,2013-10-15 06:59:00,
2013-10-15 03:00:00,59.6,59.0,30.05,NE,56,0.0,3.0,98,0.00,,---,0.00,VWS V14.01,2013-10-15 07:00:00,
2013-10-15 03:01:00,59.6,59.0,30.05,NE,56,0.0,1.0,98,0.00,,---,0.00,VWS V14.01,2013-10-15 07:01:00,
2013-10-15 03:02:00,59.6,59.0,30.05,NNE,28,3.0,7.0,98,0.00,,---,0.00,VWS V14.01,2013-10-15 07:02:00,
2013-10-15 03:03:00,59.6,59.0,30.05,NNE,28,0.0,7.0,98,0.00,,---,0.00,VWS V14.01,2013-10-15 07:03:00,
2013-10-15 03:04:00,59.6,59.0,30.05,NNE,28,0.0,7.0,98,0.00,,---,0.00,VWS V14.01,2013-10-15 07:04:00,
2013-10-15 03:05:00,59.6,59.0,30.05,NE,54,3.0,7.0,98,0.00,,---,0.00,VWS V14.01,2013-10-15 07:05:00,
2013-10-15 03:06:00,59.6,59.0,30.05,NE,38,2.0,7.0,98,0.00,,---,0.00,VWS V14.01,2013-10-15 07:06:00,
2013-10-15 03:07:00,59.6,59.0,30.05,NNE,27,3.0,7.0,98,0.00,,---,0.00,VWS V14.01,2013-10-15 07:07:00,
2013-10-15 03:08:00,59.6,59.0,30.05,NNE,28,0.0,7.0,98,0.00,,---,0.00,VWS V14.01,2013-10-15 07:08:00,
2013-10-15 03:09:00,59.6,59.0,30.05,NNE,28,0.0,7.0,98,0.00,,---,0.00,VWS V14.01,2013-10-15 07:09:00,
2013-10-15 03:10:00,59.6,59.0,30.05,NNE,28,0.0,7.0,98,0.00,,---,0.00,VWS V14.01,2013-10-15 07:10:00,
2013-10-15 03:11:00,59.6,59.0,30.05,NNE,30,2.0,3.0,98,0.00,,---,0.00,VWS V14.01,2013-10-15 07:11:00,
2013-10-15 03:12:00,59.6,59.0,30.05,NNE,27,0.0,4.0,98,0.00,,---,0.00,VWS V14.01,2013-10-15 07:12:00,
2013-10-15 03:13:00,59.6,59.0,30.05,NNE,27,0.0,4.0,98,0.00,,---,0.00,VWS V14.01,2013-10-15 07:13:00,
2013-10-15 03:14:00,59.6,59.0,30.05,NNE,30,0.0,5.0,98,0.00,,---,0.00,VWS V14.01,2013-10-15 07:14:00,
2013-10-15 03:15:00,59.6,59.0,30.04,NNE,30,0.0,5.0,98,0.00,,---,0.00,VWS V14.01,2013-10-15 07:15:00,
2013-10-15 03:16:00,59.6,59.0,30.04,North,11,3.0,5.0,98,0.00,,---,0.00,VWS V14.01,2013-10-15 07:16:00,
2013-10-15 03:17:00,59.5,58.9,30.04,NNE,24,2.0,5.0,98,0.00,,---,0.00,VWS V14.01,2013-10-15 07:17:00,
2013-10-15 03:18:00,59.5,58.7,30.04,NNE,21,3.0,6.0,97,0.00,,---,0.00,VWS V14.01,2013-10-15 07:18:00,
2013-10-15 03:19:00,59.5,58.9,30.04,North,0,0.0,6.0,98,0.00,,---,0.00,VWS V14.01,2013-10-15 07:19:00,
2013-10-15 03:20:00,59.5,58.9,30.04,NNE,16,3.0,6.0,98,0.00,,---,0.00,VWS V14.01,2013-10-15 07:20:00,
2013-10-15 03:21:00,59.5,58.9,30.04,NNE,16,2.0,3.0,98,0.00,,---,0.00,VWS V14.01,2013-10-15 07:21:00,
2013-10-15 03:22:00,59.5,58.9,30.04,NNE,16,0.0,3.0,98,0.00,,---,0.00,VWS V14.01,2013-10-15 07:22:00,
2013-10-15 03:23:00,59.5,58.9,30.04,NNE,16,0.0,3.0,98,0.00,,---,0.00,VWS V14.01,2013-10-15 07:23:00,
2013-10-15 03:24:00,59.5,58.9,30.04,NNE,16,0.0,3.0,98,0.00,,---,0.00,VWS V14.01,2013-10-15 07:24:00,
2013-10-15 03:25:00,59.5,58.9,30.04,NNE,20,2.0,3.0,98,0.00,,---,0.00,VWS V14.01,2013-10-15 07:25:00,
2013-10-15 03:26:00,59.5,58.9,30.04,NNE,27,0.0,3.0,98,0.00,,---,0.00,VWS V14.01,2013-10-15 07:26:00,
2013-10-15 03:27:00,59.5,58.9,30.04,NNE,27,0.0,3.0,98,0.00,,---,0.00,VWS V14.01,2013-10-15 07:27:00,
2013-10-15 03:28:00,59.5,58.9,30.04,NNE,20,0.0,3.0,98,0.00,,---,0.00,VWS V14.01,2013-10-15 07:28:00,
2013-10-15 03:29:00,59.5,58.9,30.04,NNE,18,0.0,3.0,98,0.00,,---,0.00,VWS V14.01,2013-10-15 07:29:00,
2013-10-15 03:30:00,59.5,58.9,30.04,NNE,18,0.0,3.0,98,0.00,,---,0.00,VWS V14.01,2013-10-15 07:30:00,
2013-10-15 03:31:00,59.5,58.9,30.04,NNE,18,0.0,0.0,98,0.00,,---,0.00,VWS V14.01,2013-10-15 07:31:00,
2013-10-15 03:32:00,59.5,58.9,30.04,NNE,18,0.0,2.0,98,0.00,,---,0.00,VWS V14.01,2013-10-15 07:32:00,
2013-10-15 03:33:00,59.5,58.9,30.04,NNE,21,0.0,2.0,98,0.00,,---,0.00,VWS V14.01,2013-10-15 07:33:00,
2013-10-15 03:34:00,59.3,58.7,30.04,NNE,21,0.0,2.0,98,0.00,,---,0.00,VWS V14.01,2013-10-15 07:34:00,
2013-10-15 03:35:00,59.3,58.7,30.04,NNE,21,0.0,2.0,98,0.00,,---,0.00,VWS V14.01,2013-10-15 07:35:00,
2013-10-15 03:36:00,59.3,58.7,30.04,East,93,0.0,2.0,98,0.00,,---,0.00,VWS V14.01,2013-10-15 07:36:00,
2013-10-15 03:37:00,59.3,58.7,30.04,East,93,0.0,2.0,98,0.00,,---,0.00,VWS V14.01,2013-10-15 07:37:00,
2013-10-15 03:38:00,59.3,58.7,30.04,North,3,2.0,7.0,98,0.00,,---,0.00,VWS V14.01,2013-10-15 07:38:00,
2013-10-15 03:39:00,59.3,58.7,30.04,NNE,23,2.0,7.0,98,0.00,,---,0.00,VWS V14.01,2013-10-15 07:39:00,
2013-10-15 03:40:00,59.3,58.7,30.04,NE,37,5.0,7.0,98,0.00,,---,0.00,VWS V14.01,2013-10-15 07:40:00,
2013-10-15 03:41:00,59.3,58.7,30.04,NE,35,2.0,5.0,98,0.00,,---,0.00,VWS V14.01,2013-10-15 07:41:00,
2013-10-15 03:42:00,59.3,58.7,30.04,NE,45,2.0,5.0,98,0.00,,---,0.00,VWS V14.01,2013-10-15 07:42:00,
2013-10-15 03:43:00,59.3,58.7,30.04,NNE,24,5.0,6.0,98,0.00,,---,0.00,VWS V14.01,2013-10-15 07:43:00,
2013-10-15 03:44:00,59.3,58.7,30.04,NNE,32,0.0,6.0,98,0.00,,---,0.00,VWS V14.01,2013-10-15 07:44:00,
2013-10-15 03:45:00,59.3,58.7,30.04,NNE,32,0.0,6.0,98,0.00,,---,0.00,VWS V14.01,2013-10-15 07:45:00,
2013-10-15 03:46:00,59.3,58.7,30.04,NNE,28,0.0,6.0,98,0.00,,---,0.00,VWS V14.01,2013-10-15 07:46:00,
2013-10-15 03:47:00,59.3,58.7,30.04,NNE,30,3.0,6.0,98,0.00,,---,0.00,VWS V14.01,2013-10-15 07:47:00,
2013-10-15 03:48:00,59.2,58.6,30.04,NNE,27,0.0,6.0,98,0.00,,---,0.00,VWS V14.01,2013-10-15 07:48:00,
2013-10-15 03:49:00,59.2,58.6,30.04,NNE,27,0.0,6.0,98,0.00,,---,0.00,VWS V14.01,2013-10-15 07:49:00,
2013-10-15 03:50:00,59.2,58.6,30.04,NNE,27,0.0,6.0,98,0.00,,---,0.00,VWS V14.01,2013-10-15 07:50:00,
2013-10-15 03:51:00,59.2,58.6,30.04,NNE,30,5.0,5.0,98,0.00,,---,0.00,VWS V14.01,2013-10-15 07:51:00,
2013-10-15 03:52:00,59.2,58.6,30.04,NNE,27,0.0,5.0,98,0.00,,---,0.00,VWS V14.01,2013-10-15 07:52:00,
2013-10-15 03:53:00,59.2,58.6,30.04,NNE,20,3.0,5.0,98,0.00,,---,0.00,VWS V14.01,2013-10-15 07:53:00,
2013-10-15 03:54:00,59.2,58.6,30.04,North,0,0.0,5.0,98,0.00,,---,0.00,VWS V14.01,2013-10-15 07:54:00,
2013-10-15 03:55:00,59.2,58.6,30.04,North,0,0.0,5.0,98,0.00,,---,0.00,VWS V14.01,2013-10-15 07:55:00,
2013-10-15 03:56:00,59.2,58.6,30.04,North,4,0.0,5.0,98,0.00,,---,0.00,VWS V14.01,2013-10-15 07:56:00,
2013-10-15 03:57:00,59.2,58.6,30.04,ENE,66,0.0,5.0,98,0.00,,---,0.00,VWS V14.01,2013-10-15 07:57:00,
2013-10-15 03:58:00,59.2,58.6,30.04,NE,35,1.0,5.0,98,0.00,,---,0.00,VWS V14.01,2013-10-15 07:58:00,
2013-10-15 03:59:00,59.2,58.6,30.04,North,8,2.0,5.0,98,0.00,,---,0.00,VWS V14.01,2013-10-15 07:59:00,
2013-10-15 04:00:00,59.2,58.6,30.04,North,7,0.0,5.0,98,0.00,,---,0.00,VWS V14.01,2013-10-15 08:00:00,
2013-10-15 04:01:00,59.2,58.6,30.04,North,356,0.0,0.0,98,0.00,,---,0.00,VWS V14.01,2013-10-15 08:01:00,
2013-10-15 04:02:00,59.2,58.6,30.04,NE,44,0.0,3.0,98,0.00,,---,0.00,VWS V14.01,2013-10-15 08:02:00,
2013-10-15 04:03:00,59.2,58.6,30.04,NE,44,0.0,3.0,98,0.00,,---,0.00,VWS V14.01,2013-10-15 08:03:00,
2013-10-15 04:04:00,59.2,58.6,30.04,NNE,16,0.0,3.0,98,0.00,,---,0.00,VWS V14.01,2013-10-15 08:04:00,
2013-10-15 04:05:00,59.2,58.6,30.04,NNE,17,2.0,5.0,98,0.00,,---,0.00,VWS V14.01,2013-10-15 08:05:00,
2013-10-15 04:06:00,59.0,58.4,30.04,NE,54,0.0,5.0,98,0.00,,---,0.00,VWS V14.01,2013-10-15 08:06:00,
2013-10-15 04:07:00,59.0,58.4,30.04,NNE,17,1.0,5.0,98,0.00,,---,0.00,VWS V14.01,2013-10-15 08:07:00,
2013-10-15 04:08:00,59.0,58.4,30.04,NE,37,3.0,5.0,98,0.00,,---,0.00,VWS V14.01,2013-10-15 08:08:00,
2013-10-15 04:09:00,59.0,58.4,30.04,NE,38,1.0,6.0,98,0.00,,---,0.00,VWS V14.01,2013-10-15 08:09:00,
2013-10-15 04:10:00,59.0,58.4,30.04,ENE,71,3.0,6.0,98,0.00,,---,0.00,VWS V14.01,2013-10-15 08:10:00,
2013-10-15 04:11:00,59.0,58.4,30.04,NE,55,4.0,4.0,98,0.00,,---,0.00,VWS V14.01,2013-10-15 08:11:00,
2013-10-15 04:12:00,59.0,58.4,30.04,NE,55,0.0,4.0,98,0.00,,---,0.00,VWS V14.01,2013-10-15 08:12:00,
2013-10-15 04:13:00,59.0,58.4,30.04,NE,41,1.0,4.0,98,0.00,,---,0.00,VWS V14.01,2013-10-15 08:13:00,
2013-10-15 04:14:00,59.0,58.4,30.04,NE,49,0.0,4.0,98,0.00,,---,0.00,VWS V14.01,2013-10-15 08:14:00,
2013-10-15 04:15:00,59.0,58.4,30.04,NE,34,1.0,4.0,98,0.00,,---,0.00,VWS V14.01,2013-10-15 08:15:00,
2013-10-15 04:16:00,59.0,58.4,30.04,NNE,28,2.0,4.0,98,0.00,,---,0.00,VWS V14.01,2013-10-15 08:16:00,
2013-10-15 04:17:00,59.0,58.4,30.04,NNE,20,0.0,4.0,98,0.00,,---,0.00,VWS V14.01,2013-10-15 08:17:00,
2013-10-15 04:18:00,59.0,58.4,30.04,North,0,0.0,4.0,98,0.00,,---,0.00,VWS V14.01,2013-10-15 08:18:00,
2013-10-15 04:19:00,58.9,58.3,30.04,North,0,2.0,4.0,98,0.00,,---,0.00,VWS V14.01,2013-10-15 08:19:00,
2013-10-15 04:20:00,58.9,58.3,30.04,NE,40,0.0,6.0,98,0.00,,---,0.00,VWS V14.01,2013-10-15 08:20:00,
2013-10-15 04:21:00,58.9,58.3,30.04,NNE,18,0.0,2.0,98,0.00,,---,0.00,VWS V14.01,2013-10-15 08:21:00,
2013-10-15 04:22:00,58.9,58.3,30.04,North,7,0.0,2.0,98,0.00,,---,0.00,VWS V14.01,2013-10-15 08:22:00,
2013-10-15 04:23:00,58.9,58.3,30.04,NE,45,2.0,6.0,98,0.00,,---,0.00,VWS V14.01,2013-10-15 08:23:00,
2013-10-15 04:24:00,58.9,58.3,30.04,NE,44,0.0,6.0,98,0.00,,---,0.00,VWS V14.01,2013-10-15 08:24:00,
2013-10-15 04:25:00,58.9,58.3,30.04,NE,45,0.0,6.0,98,0.00,,---,0.00,VWS V14.01,2013-10-15 08:25:00,
2013-10-15 04:26:00,58.9,58.3,30.04,NE,41,2.0,6.0,98,0.00,,---,0.00,VWS V14.01,2013-10-15 08:26:00,
2013-10-15 04:27:00,58.9,58.3,30.04,NNE,20,0.0,6.0,98,0.00,,---,0.00,VWS V14.01,2013-10-15 08:27:00,
2013-10-15 04:28:00,58.9,58.3,30.04,NNE,23,0.0,6.0,98,0.00,,---,0.00,VWS V14.01,2013-10-15 08:28:00,
2013-10-15 04:29:00,58.9,58.3,30.04,NNE,23,0.0,6.0,98,0.00,,---,0.00,VWS V14.01,2013-10-15 08:29:00,
2013-10-15 04:30:00,58.9,58.3,30.05,NNE,14,2.0,6.0,98,0.00,,---,0.00,VWS V14.01,2013-10-15 08:30:00,
2013-10-15 04:31:00,58.9,58.3,30.05,NE,51,0.0,3.0,98,0.00,,---,0.00,VWS V14.01,2013-10-15 08:31:00,
2013-10-15 04:32:00,58.9,58.3,30.05,NNE,31,2.0,5.0,98,0.00,,---,0.00,VWS V14.01,2013-10-15 08:32:00,
2013-10-15 04:33:00,58.9,58.3,30.05,NNE,24,3.0,5.0,98,0.00,,---,0.00,VWS V14.01,2013-10-15 08:33:00,
2013-10-15 04:34:00,58.9,58.3,30.05,NNE,28,0.0,5.0,98,0.00,,---,0.00,VWS V14.01,2013-10-15 08:34:00,
2013-10-15 04:35:00,58.9,58.3,30.05,ENE,64,0.0,5.0,98,0.00,,---,0.00,VWS V14.01,2013-10-15 08:35:00,
2013-10-15 04:36:00,58.9,58.3,30.05,NE,42,0.0,5.0,98,0.00,,---,0.00,VWS V14.01,2013-10-15 08:36:00,
2013-10-15 04:37:00,58.9,58.3,30.05,NE,42,0.0,5.0,98,0.00,,---,0.00,VWS V14.01,2013-10-15 08:37:00,
2013-10-15 04:38:00,58.9,58.3,30.05,NE,42,0.0,5.0,98,0.00,,---,0.00,VWS V14.01,2013-10-15 08:38:00,
2013-10-15 04:39:00,58.9,58.3,30.05,North,0,1.0,5.0,98,0.00,,---,0.00,VWS V14.01,2013-10-15 08:39:00,
2013-10-15 04:40:00,58.9,58.3,30.05,NE,47,2.0,5.0,98,0.00,,---,0.00,VWS V14.01,2013-10-15 08:40:00,
2013-10-15 04:41:00,58.9,58.3,30.05,NNE,31,0.0,6.0,98,0.00,,---,0.00,VWS V14.01,2013-10-15 08:41:00,
2013-10-15 04:42:00,58.9,58.3,30.05,NNE,31,0.0,6.0,98,0.00,,---,0.00,VWS V14.01,2013-10-15 08:42:00,
2013-10-15 04:43:00,58.9,58.3,30.05,NE,41,3.0,6.0,98,0.00,,---,0.00,VWS V14.01,2013-10-15 08:43:00,
2013-10-15 04:44:00,58.9,58.3,30.05,NNE,23,2.0,6.0,98,0.00,,---,0.00,VWS V14.01,2013-10-15 08:44:00,
2013-10-15 04:45:00,58.7,58.1,30.05,NE,38,1.0,6.0,98,0.00,,---,0.00,VWS V14.01,2013-10-15 08:45:00,
2013-10-15 04:46:00,58.7,58.1,30.05,NE,38,0.0,6.0,98,0.00,,---,0.00,VWS V14.01,2013-10-15 08:46:00,
2013-10-15 04:47:00,58.7,58.1,30.05,North,4,0.0,6.0,98,0.00,,---,0.00,VWS V14.01,2013-10-15 08:47:00,
2013-10-15 04:48:00,58.7,58.1,30.05,NE,56,0.0,6.0,98,0.00,,---,0.00,VWS V14.01,2013-10-15 08:48:00,
2013-10-15 04:49:00,58.7,58.1,30.05,NNE,31,2.0,6.0,98,0.00,,---,0.00,VWS V14.01,2013-10-15 08:49:00,
2013-10-15 04:50:00,58.7,58.1,30.05,NNE,23,0.0,6.0,98,0.00,,---,0.00,VWS V14.01,2013-10-15 08:50:00,
2013-10-15 04:51:00,58.7,58.1,30.05,NNE,24,0.0,0.0,98,0.00,,---,0.00,VWS V14.01,2013-10-15 08:51:00,
2013-10-15 04:52:00,58.7,58.1,30.05,NE,51,0.0,0.0,98,0.00,,---,0.00,VWS V14.01,2013-10-15 08:52:00,
2013-10-15 04:53:00,58.7,58.1,30.05,NE,52,0.0,3.0,98,0.00,,---,0.00,VWS V14.01,2013-10-15 08:53:00,
2013-10-15 04:54:00,58.7,58.1,30.05,NNE,25,0.0,3.0,98,0.00,,---,0.00,VWS V14.01,2013-10-15 08:54:00,
2013-10-15 04:55:00,58.7,58.1,30.05,NNE,25,0.0,3.0,98,0.00,,---,0.00,VWS V14.01,2013-10-15 08:55:00,
2013-10-15 04:56:00,58.7,58.1,30.05,NE,40,0.0,3.0,98,0.00,,---,0.00,VWS V14.01,2013-10-15 08:56:00,
2013-10-15 04:57:00,58.7,58.1,30.05,NNE,23,0.0,3.0,98,0.00,,---,0.00,VWS V14.01,2013-10-15 08:57:00,
2013-10-15 04:58:00,58.7,58.1,30.05,NNE,25,1.0,3.0,98,0.00,,---,0.00,VWS V14.01,2013-10-15 08:58:00,
2013-10-15 04:59:00,58.7,58.1,30.05,NNE,25,0.0,3.0,98,0.00,,---,0.00,VWS V14.01,2013-10-15 08:59:00,
2013-10-15 05:00:00,58.7,58.1,30.05,NNE,25,0.0,3.0,98,0.00,,---,0.00,VWS V14.01,2013-10-15 09:00:00,
2013-10-15 05:01:00,58.7,58.1,30.05,NNE,25,0.0,1.0,98,0.00,,---,0.00,VWS V14.01,2013-10-15 09:01:00,
2013-10-15 05:02:00,58.7,58.1,30.05,NNE,24,2.0,2.0,98,0.00,,---,0.00,VWS V14.01,2013-10-15 09:02:00,
2013-10-15 05:03:00,58.7,58.1,30.05,NNE,28,0.0,3.0,98,0.00,,---,0.00,VWS V14.01,2013-10-15 09:03:00,
2013-10-15 05:04:00,58.7,58.1,30.05,NNE,28,0.0,4.0,98,0.00,,---,0.00,VWS V14.01,2013-10-15 09:04:00,
2013-10-15 05:05:00,58.7,58.1,30.05,NNE,28,0.0,4.0,98,0.00,,---,0.00,VWS V14.01,2013-10-15 09:05:00,
2013-10-15 05:06:00,58.7,58.1,30.05,NNE,28,0.0,4.0,98,0.00,,---,0.00,VWS V14.01,2013-10-15 09:06:00,
2013-10-15 05:07:00,58.7,58.1,30.05,NE,54,1.0,4.0,98,0.00,,---,0.00,VWS V14.01,2013-10-15 09:07:00,
2013-10-15 05:08:00,58.7,58.1,30.05,NE,54,0.0,4.0,98,0.00,,---,0.00,VWS V14.01,2013-10-15 09:08:00,
2013-10-15 05:09:00,58.7,58.1,30.05,NNE,16,2.0,5.0,98,0.00,,---,0.00,VWS V14.01,2013-10-15 09:09:00,
2013-10-15 05:10:00,58.7,58.1,30.05,NE,40,2.0,5.0,98,0.00,,---,0.00,VWS V14.01,2013-10-15 09:10:00,
2013-10-15 05:11:00,58.6,58.0,30.05,NNE,27,2.0,5.0,98,0.00,,---,0.00,VWS V14.01,2013-10-15 09:11:00,
2013-10-15 05:12:00,58.6,58.0,30.05,NNE,32,2.0,5.0,98,0.00,,---,0.00,VWS V14.01,2013-10-15 09:12:00,
2013-10-15 05:13:00,58.6,58.0,30.05,ENE,72,0.0,5.0,98,0.00,,---,0.00,VWS V14.01,2013-10-15 09:13:00,
2013-10-15 05:14:00,58.6,58.0,30.05,NNE,28,0.0,5.0,98,0.00,,---,0.00,VWS V14.01,2013-10-15 09:14:00,
2013-10-15 05:15:00,58.6,58.0,30.05,NE,35,0.0,5.0,98,0.00,,---,0.00,VWS V14.01,2013-10-15 09:15:00,
2013-10-15 05:16:00,58.6,58.0,30.05,NE,34,0.0,5.0,98,0.00,,---,0.00,VWS V14.01,2013-10-15 09:16:00,
2013-10-15 05:17:00,58.6,58.0,30.05,NE,34,3.0,5.0,98,0.00,,---,0.00,VWS V14.01,2013-10-15 09:17:00,
2013-10-15 05:18:00,58.6,58.0,30.05,NNE,25,2.0,5.0,98,0.00,,---,0.00,VWS V14.01,2013-10-15 09:18:00,
2013-10-15 05:19:00,58.6,58.0,30.05,NNE,25,0.0,5.0,98,0.00,,---,0.00,VWS V14.01,2013-10-15 09:19:00,
2013-10-15 05:20:00,58.6,58.0,30.05,NNE,25,0.0,5.0,98,0.00,,---,0.00,VWS V14.01,2013-10-15 09:20:00,
2013-10-15 05:21:00,58.6,58.0,30.05,NNE,25,0.0,0.0,98,0.00,,---,0.00,VWS V14.01,2013-10-15 09:21:00,
2013-10-15 05:22:00,58.6,58.0,30.05,NNE,25,0.0,0.0,98,0.00,,---,0.00,VWS V14.01,2013-10-15 09:22:00,
2013-10-15 05:23:00,58.6,58.0,30.05,NNE,25,0.0,0.0,98,0.00,,---,0.00,VWS V14.01,2013-10-15 09:23:00,
2013-10-15 05:24:00,58.6,58.0,30.05,NNE,25,0.0,0.0,98,0.00,,---,0.00,VWS V14.01,2013-10-15 09:24:00,
2013-10-15 05:25:00,58.6,58.0,30.05,NNE,25,0.0,0.0,98,0.00,,---,0.00,VWS V14.01,2013-10-15 09:25:00,
2013-10-15 05:26:00,58.6,58.0,30.05,NNE,25,0.0,0.0,98,0.00,,---,0.00,VWS V14.01,2013-10-15 09:26:00,
2013-10-15 05:27:00,58.6,58.0,30.05,NNE,25,0.0,0.0,98,0.00,,---,0.00,VWS V14.01,2013-10-15 09:27:00,
2013-10-15 05:28:00,58.6,58.0,30.05,NNE,25,0.0,0.0,98,0.00,,---,0.00,VWS V14.01,2013-10-15 09:28:00,
2013-10-15 05:29:00,58.6,58.0,30.05,NNE,25,0.0,0.0,98,0.00,,---,0.00,VWS V14.01,2013-10-15 09:29:00,
2013-10-15 05:30:00,58.6,58.0,30.05,NNE,25,0.0,0.0,98,0.00,,---,0.00,VWS V14.01,2013-10-15 09:30:00,
2013-10-15 05:31:00,58.6,58.0,30.05,NNE,25,0.0,0.0,98,0.00,,---,0.00,VWS V14.01,2013-10-15 09:31:00,
2013-10-15 05:32:00,58.6,58.0,30.05,NNE,25,0.0,0.0,98,0.00,,---,0.00,VWS V14.01,2013-10-15 09:32:00,
2013-10-15 05:33:00,58.4,57.8,30.05,NNE,25,0.0,0.0,98,0.00,,---,0.00,VWS V14.01,2013-10-15 09:33:00,
2013-10-15 05:34:00,58.4,57.8,30.05,NNE,25,0.0,0.0,98,0.00,,---,0.00,VWS V14.01,2013-10-15 09:34:00,
2013-10-15 05:35:00,58.4,57.8,30.05,NNE,25,0.0,0.0,98,0.00,,---,0.00,VWS V14.01,2013-10-15 09:35:00,
2013-10-15 05:36:00,58.4,57.8,30.05,NNE,25,0.0,0.0,98,0.00,,---,0.00,VWS V14.01,2013-10-15 09:36:00,
2013-10-15 05:37:00,58.4,57.8,30.05,NNE,25,0.0,0.0,98,0.00,,---,0.00,VWS V14.01,2013-10-15 09:37:00,
2013-10-15 05:38:00,58.4,57.8,30.05,NNE,25,0.0,0.0,98,0.00,,---,0.00,VWS V14.01,2013-10-15 09:38:00,
2013-10-15 05:39:00,58.4,57.8,30.05,NNE,25,0.0,0.0,98,0.00,,---,0.00,VWS V14.01,2013-10-15 09:39:00,
2013-10-15 05:40:00,58.4,57.8,30.05,NNE,25,0.0,0.0,98,0.00,,---,0.00,VWS V14.01,2013-10-15 09:40:00,
2013-10-15 05:41:00,58.4,57.8,30.05,NNE,25,0.0,0.0,98,0.00,,---,0.00,VWS V14.01,2013-10-15 09:41:00,
2013-10-15 05:42:00,58.4,57.8,30.05,NNE,25,0.0,0.0,98,0.00,,---,0.00,VWS V14.01,2013-10-15 09:42:00,
2013-10-15 05:43:00,58.4,57.8,30.05,NNE,25,0.0,0.0,98,0.00,,---,0.00,VWS V14.01,2013-10-15 09:43:00,
2013-10-15 05:44:00,58.4,57.8,30.05,NNE,25,0.0,0.0,98,0.00,,---,0.00,VWS V14.01,2013-10-15 09:44:00,
2013-10-15 05:45:00,58.3,57.7,30.06,NNE,25,0.0,0.0,98,0.00,,---,0.00,VWS V14.01,2013-10-15 09:45:00,
2013-10-15 05:46:00,58.3,57.7,30.06,NNE,25,0.0,0.0,98,0.00,,---,0.00,VWS V14.01,2013-10-15 09:46:00,
2013-10-15 05:47:00,58.3,57.7,30.06,NNE,25,0.0,0.0,98,0.00,,---,0.00,VWS V14.01,2013-10-15 09:47:00,
2013-10-15 05:48:00,58.3,57.7,30.06,NNE,25,0.0,0.0,98,0.00,,---,0.00,VWS V14.01,2013-10-15 09:48:00,
2013-10-15 05:49:00,58.3,57.7,30.06,NNE,25,0.0,0.0,98,0.00,,---,0.00,VWS V14.01,2013-10-15 09:49:00,
2013-10-15 05:50:00,58.3,57.7,30.06,NNE,25,0.0,0.0,98,0.00,,---,0.00,VWS V14.01,2013-10-15 09:50:00,
2013-10-15 05:51:00,58.1,57.5,30.06,NNE,25,0.0,0.0,98,0.00,,---,0.00,VWS V14.01,2013-10-15 09:51:00,
2013-10-15 05:52:00,58.1,57.5,30.06,NNE,25,0.0,0.0,98,0.00,,---,0.00,VWS V14.01,2013-10-15 09:52:00,
2013-10-15 05:53:00,58.1,57.5,30.06,NNE,25,0.0,0.0,98,0.00,,---,0.00,VWS V14.01,2013-10-15 09:53:00,
2013-10-15 05:54:00,58.1,57.5,30.06,NNE,25,0.0,0.0,98,0.00,,---,0.00,VWS V14.01,2013-10-15 09:54:00,
2013-10-15 05:55:00,58.1,57.5,30.06,NNE,25,0.0,0.0,98,0.00,,---,0.00,VWS V14.01,2013-10-15 09:55:00,
2013-10-15 05:56:00,58.1,57.5,30.06,NNE,25,0.0,0.0,98,0.00,,---,0.00,VWS V14.01,2013-10-15 09:56:00,
2013-10-15 05:57:00,58.0,57.4,30.06,NNE,25,0.0,0.0,98,0.00,,---,0.00,VWS V14.01,2013-10-15 09:57:00,
2013-10-15 05:58:00,58.0,57.4,30.06,NNE,25,0.0,0.0,98,0.00,,---,0.00,VWS V14.01,2013-10-15 09:58:00,
2013-10-15 05:59:00,58.0,57.4,30.06,NNE,25,0.0,0.0,98,0.00,,---,0.00,VWS V14.01,2013-10-15 09:59:00,
2013-10-15 06:00:00,58.0,57.4,30.06,NNE,25,0.0,0.0,98,0.00,,---,0.00,VWS V14.01,2013-10-15 10:00:00,
2013-10-15 06:01:00,58.0,57.4,30.06,NNE,25,0.0,0.0,98,0.00,,---,0.00,VWS V14.01,2013-10-15 10:01:00,
2013-10-15 06:02:00,58.0,57.4,30.06,NNE,25,0.0,0.0,98,0.00,,---,0.00,VWS V14.01,2013-10-15 10:02:00,
2013-10-15 06:03:00,57.8,57.2,30.06,NNE,25,0.0,0.0,98,0.00,,---,0.00,VWS V14.01,2013-10-15 10:03:00,
2013-10-15 06:04:00,57.8,57.2,30.06,NNE,25,0.0,0.0,98,0.00,,---,0.00,VWS V14.01,2013-10-15 10:04:00,
2013-10-15 06:05:00,57.8,57.2,30.06,NNE,25,0.0,0.0,98,0.00,,---,0.00,VWS V14.01,2013-10-15 10:05:00,
2013-10-15 06:06:00,57.8,57.2,30.06,NNE,25,0.0,0.0,98,0.00,,---,0.00,VWS V14.01,2013-10-15 10:06:00,
2013-10-15 06:07:00,57.8,57.2,30.06,NNE,25,0.0,0.0,98,0.00,,---,0.00,VWS V14.01,2013-10-15 10:07:00,
2013-10-15 06:08:00,57.8,57.2,30.06,NNE,25,0.0,0.0,98,0.00,,---,0.00,VWS V14.01,2013-10-15 10:08:00,
2013-10-15 06:09:00,57.8,57.2,30.06,NNE,25,0.0,0.0,98,0.00,,---,0.00,VWS V14.01,2013-10-15 10:09:00,
2013-10-15 06:10:00,57.8,57.5,30.06,NNE,25,0.0,0.0,99,0.00,,---,0.00,VWS V14.01,2013-10-15 10:10:00,
2013-10-15 06:11:00,57.8,57.5,30.06,NNE,25,0.0,0.0,99,0.00,,---,0.00,VWS V14.01,2013-10-15 10:11:00,
2013-10-15 06:12:00,57.8,57.5,30.06,NNE,25,0.0,0.0,99,0.00,,---,0.00,VWS V14.01,2013-10-15 10:12:00,
2013-10-15 06:13:00,57.8,57.5,30.06,NNE,25,0.0,0.0,99,0.00,,---,0.00,VWS V14.01,2013-10-15 10:13:00,
2013-10-15 06:14:00,57.8,57.5,30.06,NNE,25,0.0,0.0,99,0.00,,---,0.00,VWS V14.01,2013-10-15 10:14:00,
2013-10-15 06:15:00,57.8,57.5,30.06,NNE,25,0.0,0.0,99,0.00,,---,0.00,VWS V14.01,2013-10-15 10:15:00,
2013-10-15 06:16:00,57.8,57.5,30.06,NNE,25,0.0,0.0,99,0.00,,---,0.00,VWS V14.01,2013-10-15 10:16:00,
2013-10-15 06:17:00,57.8,57.5,30.06,NNE,25,0.0,0.0,99,0.00,,---,0.00,VWS V14.01,2013-10-15 10:17:00,
2013-10-15 06:18:00,57.8,57.5,30.06,NNE,25,0.0,0.0,99,0.00,,---,0.00,VWS V14.01,2013-10-15 10:18:00,
2013-10-15 06:19:00,57.8,57.5,30.06,NNE,25,0.0,0.0,99,0.00,,---,0.00,VWS V14.01,2013-10-15 10:19:00,
2013-10-15 06:20:00,57.8,57.5,30.06,NNE,25,0.0,0.0,99,0.00,,---,0.00,VWS V14.01,2013-10-15 10:20:00,
2013-10-15 06:21:00,57.8,57.5,30.06,NNE,25,0.0,0.0,99,0.00,,---,0.00,VWS V14.01,2013-10-15 10:21:00,
2013-10-15 06:22:00,57.8,57.5,30.06,NNE,25,0.0,0.0,99,0.00,,---,0.00,VWS V14.01,2013-10-15 10:22:00,
2013-10-15 06:23:00,57.8,57.5,30.06,NNE,25,0.0,0.0,99,0.00,,---,0.00,VWS V14.01,2013-10-15 10:23:00,
2013-10-15 06:24:00,57.8,57.5,30.06,NNE,25,0.0,0.0,99,0.00,,---,0.00,VWS V14.01,2013-10-15 10:24:00,
2013-10-15 06:25:00,57.8,57.5,30.06,NNE,25,0.0,0.0,99,0.00,,---,0.00,VWS V14.01,2013-10-15 10:25:00,
2013-10-15 06:26:00,57.8,57.5,30.06,NNE,25,0.0,0.0,99,0.00,,---,0.00,VWS V14.01,2013-10-15 10:26:00,
2013-10-15 06:27:00,57.8,57.5,30.06,NNE,25,0.0,0.0,99,0.00,,---,0.00,VWS V14.01,2013-10-15 10:27:00,
2013-10-15 06:28:00,57.8,57.5,30.06,NNE,25,0.0,0.0,99,0.00,,---,0.00,VWS V14.01,2013-10-15 10:28:00,
2013-10-15 06:29:00,57.8,57.5,30.06,NNE,25,0.0,0.0,99,0.00,,---,0.00,VWS V14.01,2013-10-15 10:29:00,
2013-10-15 06:30:00,57.8,57.5,30.05,NNE,25,0.0,0.0,99,0.00,,---,0.00,VWS V14.01,2013-10-15 10:30:00,
2013-10-15 06:31:00,57.8,57.5,30.05,NNE,25,0.0,0.0,99,0.00,,---,0.00,VWS V14.01,2013-10-15 10:31:00,
2013-10-15 06:32:00,57.8,57.5,30.05,NNE,25,0.0,0.0,99,0.00,,---,0.00,VWS V14.01,2013-10-15 10:32:00,
2013-10-15 06:33:00,57.8,57.5,30.05,NNE,25,0.0,0.0,99,0.00,,---,0.00,VWS V14.01,2013-10-15 10:33:00,
2013-10-15 06:34:00,57.8,57.5,30.05,NNE,25,0.0,0.0,99,0.00,,---,0.00,VWS V14.01,2013-10-15 10:34:00,
2013-10-15 06:35:00,57.6,57.3,30.05,NNE,25,0.0,0.0,99,0.00,,---,0.00,VWS V14.01,2013-10-15 10:35:00,
2013-10-15 06:36:00,57.6,57.3,30.05,NNE,25,0.0,0.0,99,0.00,,---,0.00,VWS V14.01,2013-10-15 10:36:00,
2013-10-15 06:37:00,57.6,57.3,30.05,NNE,25,0.0,0.0,99,0.00,,---,0.00,VWS V14.01,2013-10-15 10:37:00,
2013-10-15 06:38:00,57.6,57.0,30.05,NNE,25,0.0,0.0,98,0.00,,---,0.00,VWS V14.01,2013-10-15 10:38:00,
2013-10-15 06:39:00,57.6,57.0,30.05,NNE,25,0.0,0.0,98,0.00,,---,0.00,VWS V14.01,2013-10-15 10:39:00,
2013-10-15 06:40:00,57.6,57.0,30.05,NNE,25,0.0,0.0,98,0.00,,---,0.00,VWS V14.01,2013-10-15 10:40:00,
2013-10-15 06:41:00,57.6,57.0,30.05,NNE,25,0.0,0.0,98,0.00,,---,0.00,VWS V14.01,2013-10-15 10:41:00,
2013-10-15 06:42:00,57.6,57.0,30.05,NNE,25,0.0,0.0,98,0.00,,---,0.00,VWS V14.01,2013-10-15 10:42:00,
2013-10-15 06:43:00,57.6,57.0,30.05,NNE,25,0.0,0.0,98,0.00,,---,0.00,VWS V14.01,2013-10-15 10:43:00,
2013-10-15 06:44:00,57.6,57.0,30.05,NNE,25,0.0,0.0,98,0.00,,---,0.00,VWS V14.01,2013-10-15 10:44:00,
2013-10-15 06:45:00,57.6,57.0,30.06,NNE,25,0.0,0.0,98,0.00,,---,0.00,VWS V14.01,2013-10-15 10:45:00,
2013-10-15 06:46:00,57.6,57.0,30.06,NNE,25,0.0,0.0,98,0.00,,---,0.00,VWS V14.01,2013-10-15 10:46:00,
2013-10-15 06:47:00,57.6,57.0,30.06,NNE,25,0.0,0.0,98,0.00,,---,0.00,VWS V14.01,2013-10-15 10:47:00,
2013-10-15 06:48:00,57.6,57.0,30.06,NNE,25,0.0,0.0,98,0.00,,---,0.00,VWS V14.01,2013-10-15 10:48:00,
2013-10-15 06:49:00,57.6,57.0,30.06,NNE,25,0.0,0.0,98,0.00,,---,0.00,VWS V14.01,2013-10-15 10:49:00,
2013-10-15 06:50:00,57.5,56.9,30.06,NNE,25,0.0,0.0,98,0.00,,---,0.00,VWS V14.01,2013-10-15 10:50:00,
2013-10-15 06:51:00,57.5,56.9,30.06,NNE,25,0.0,0.0,98,0.00,,---,0.00,VWS V14.01,2013-10-15 10:51:00,
2013-10-15 06:52:00,57.5,56.9,30.06,NNE,25,0.0,0.0,98,0.00,,---,0.00,VWS V14.01,2013-10-15 10:52:00,
2013-10-15 06:53:00,57.5,56.9,30.06,NNE,25,0.0,0.0,98,0.00,,---,0.00,VWS V14.01,2013-10-15 10:53:00,
2013-10-15 06:54:00,57.5,56.9,30.06,NNE,25,0.0,0.0,98,0.00,,---,0.00,VWS V14.01,2013-10-15 10:54:00,
2013-10-15 06:55:00,57.5,56.9,30.06,NNE,25,0.0,0.0,98,0.00,,---,0.00,VWS V14.01,2013-10-15 10:55:00,
2013-10-15 06:56:00,57.5,56.9,30.06,NNE,25,0.0,0.0,98,0.00,,---,0.00,VWS V14.01,2013-10-15 10:56:00,
2013-10-15 06:57:00,57.5,56.9,30.06,NNE,25,0.0,0.0,98,0.00,,---,0.00,VWS V14.01,2013-10-15 10:57:00,
2013-10-15 06:58:00,57.5,56.9,30.06,NNE,25,0.0,0.0,98,0.00,,---,0.00,VWS V14.01,2013-10-15 10:58:00,
2013-10-15 06:59:00,57.5,56.9,30.06,NNE,25,0.0,0.0,98,0.00,,---,0.00,VWS V14.01,2013-10-15 10:59:00,
2013-10-15 07:00:00,57.5,56.9,30.06,NNE,25,0.0,0.0,98,0.00,,---,0.00,VWS V14.01,2013-10-15 11:00:00,
2013-10-15 07:01:00,57.5,56.9,30.06,NNE,25,0.0,0.0,98,0.00,,---,0.00,VWS V14.01,2013-10-15 11:01:00,
2013-10-15 07:02:00,57.5,56.9,30.06,NNE,25,0.0,0.0,98,0.00,,---,0.00,VWS V14.01,2013-10-15 11:02:00,
2013-10-15 07:03:00,57.5,56.9,30.06,NNE,25,0.0,0.0,98,0.00,,---,0.00,VWS V14.01,2013-10-15 11:03:00,
2013-10-15 07:04:00,57.3,56.7,30.06,NNE,25,0.0,0.0,98,0.00,,---,0.00,VWS V14.01,2013-10-15 11:04:00,
2013-10-15 07:05:00,57.3,56.7,30.06,NNE,25,0.0,0.0,98,0.00,,---,0.00,VWS V14.01,2013-10-15 11:05:00,
2013-10-15 07:06:00,57.3,56.7,30.06,NNE,25,0.0,0.0,98,0.00,,---,0.00,VWS V14.01,2013-10-15 11:06:00,
2013-10-15 07:07:00,57.3,56.7,30.06,NNE,25,0.0,0.0,98,0.00,,---,0.00,VWS V14.01,2013-10-15 11:07:00,
2013-10-15 07:08:00,57.3,56.7,30.06,NNE,25,0.0,0.0,98,0.00,,---,0.00,VWS V14.01,2013-10-15 11:08:00,
2013-10-15 07:09:00,57.3,56.7,30.06,NNE,25,0.0,0.0,98,0.00,,---,0.00,VWS V14.01,2013-10-15 11:09:00,
2013-10-15 07:10:00,57.3,56.7,30.06,NNE,25,0.0,0.0,98,0.00,,---,0.00,VWS V14.01,2013-10-15 11:10:00,
2013-10-15 07:11:00,57.2,56.6,30.06,NNE,25,0.0,0.0,98,0.00,,---,0.00,VWS V14.01,2013-10-15 11:11:00,
2013-10-15 07:12:00,57.2,56.6,30.06,NNE,25,0.0,0.0,98,0.00,,---,0.00,VWS V14.01,2013-10-15 11:12:00,
2013-10-15 07:13:00,57.2,56.6,30.06,NNE,25,0.0,0.0,98,0.00,,---,0.00,VWS V14.01,2013-10-15 11:13:00,
2013-10-15 07:14:00,57.2,56.6,30.06,NNE,25,0.0,0.0,98,0.00,,---,0.00,VWS V14.01,2013-10-15 11:14:00,
2013-10-15 07:15:00,57.2,56.6,30.06,NNE,25,0.0,0.0,98,0.00,,---,0.00,VWS V14.01,2013-10-15 11:15:00,
2013-10-15 07:16:00,57.2,56.6,30.06,NNE,25,0.0,0.0,98,0.00,,---,0.00,VWS V14.01,2013-10-15 11:16:00,
2013-10-15 07:17:00,57.2,56.6,30.06,NNE,25,0.0,0.0,98,0.00,,---,0.00,VWS V14.01,2013-10-15 11:17:00,
2013-10-15 07:18:00,57.2,56.6,30.06,NNE,25,0.0,0.0,98,0.00,,---,0.00,VWS V14.01,2013-10-15 11:18:00,
2013-10-15 07:19:00,57.2,56.6,30.06,NNE,25,0.0,0.0,98,0.00,,---,0.00,VWS V14.01,2013-10-15 11:19:00,
2013-10-15 07:20:00,57.2,56.9,30.06,NNE,25,0.0,0.0,99,0.00,,---,0.00,VWS V14.01,2013-10-15 11:20:00,
2013-10-15 07:21:00,57.2,56.9,30.06,NNE,25,0.0,0.0,99,0.00,,---,0.00,VWS V14.01,2013-10-15 11:21:00,
2013-10-15 07:22:00,57.2,56.9,30.06,NNE,25,0.0,0.0,99,0.00,,---,0.00,VWS V14.01,2013-10-15 11:22:00,
2013-10-15 07:23:00,57.2,56.9,30.06,NE,55,0.0,0.0,99,0.00,,---,0.00,VWS V14.01,2013-10-15 11:23:00,
2013-10-15 07:24:00,57.2,56.9,30.06,ENE,62,0.0,3.0,99,0.00,,---,0.00,VWS V14.01,2013-10-15 11:24:00,
2013-10-15 07:25:00,57.2,56.9,30.06,ENE,62,0.0,3.0,99,0.00,,---,0.00,VWS V14.01,2013-10-15 11:25:00,
2013-10-15 07:26:00,57.2,56.9,30.06,ENE,62,0.0,3.0,99,0.00,,---,0.00,VWS V14.01,2013-10-15 11:26:00,
2013-10-15 07:27:00,57.2,56.9,30.06,ENE,62,0.0,3.0,99,0.00,,---,0.00,VWS V14.01,2013-10-15 11:27:00,
2013-10-15 07:28:00,57.2,56.9,30.06,ENE,62,0.0,3.0,99,0.00,,---,0.00,VWS V14.01,2013-10-15 11:28:00,
2013-10-15 07:29:00,57.0,56.7,30.06,ENE,62,0.0,3.0,99,0.00,,---,0.00,VWS V14.01,2013-10-15 11:29:00,
2013-10-15 07:30:00,57.0,56.7,30.07,ENE,62,0.0,3.0,99,0.00,,---,0.00,VWS V14.01,2013-10-15 11:30:00,
2013-10-15 07:31:00,57.0,56.7,30.07,ENE,62,0.0,0.0,99,0.00,,---,0.00,VWS V14.01,2013-10-15 11:31:00,
2013-10-15 07:32:00,57.0,56.4,30.07,ENE,62,0.0,0.0,98,0.00,,---,0.00,VWS V14.01,2013-10-15 11:32:00,
2013-10-15 07:33:00,57.0,56.4,30.07,ENE,62,0.0,0.0,98,0.00,,---,0.00,VWS V14.01,2013-10-15 11:33:00,
2013-10-15 07:34:00,57.0,56.4,30.07,ENE,62,0.0,0.0,98,0.00,,---,0.00,VWS V14.01,2013-10-15 11:34:00,
2013-10-15 07:35:00,57.0,56.4,30.07,ENE,62,0.0,0.0,98,0.00,,---,0.00,VWS V14.01,2013-10-15 11:35:00,
2013-10-15 07:36:00,57.0,56.4,30.07,ENE,62,0.0,0.0,98,0.00,,---,0.00,VWS V14.01,2013-10-15 11:36:00,
2013-10-15 07:37:00,57.0,56.4,30.07,ENE,62,0.0,0.0,98,0.00,,---,0.00,VWS V14.01,2013-10-15 11:37:00,
2013-10-15 07:38:00,56.9,56.3,30.07,ENE,62,0.0,0.0,98,0.00,,---,0.00,VWS V14.01,2013-10-15 11:38:00,
2013-10-15 07:39:00,56.9,56.3,30.07,ENE,62,0.0,0.0,98,0.00,,---,0.00,VWS V14.01,2013-10-15 11:39:00,
2013-10-15 07:40:00,56.9,56.6,30.07,ENE,62,0.0,0.0,99,0.00,,---,0.00,VWS V14.01,2013-10-15 11:40:00,
2013-10-15 07:41:00,56.9,56.6,30.07,ENE,62,0.0,0.0,99,0.00,,---,0.00,VWS V14.01,2013-10-15 11:41:00,
2013-10-15 07:42:00,56.9,56.6,30.07,ENE,62,0.0,0.0,99,0.00,,---,0.00,VWS V14.01,2013-10-15 11:42:00,
2013-10-15 07:43:00,56.9,56.6,30.07,ENE,62,0.0,0.0,99,0.00,,---,0.00,VWS V14.01,2013-10-15 11:43:00,
2013-10-15 07:44:00,56.9,56.6,30.07,ENE,62,0.0,0.0,99,0.00,,---,0.00,VWS V14.01,2013-10-15 11:44:00,
2013-10-15 07:45:00,56.9,56.6,30.07,ENE,62,0.0,0.0,99,0.00,,---,0.00,VWS V14.01,2013-10-15 11:45:00,
2013-10-15 07:46:00,56.9,56.6,30.07,ENE,62,0.0,0.0,99,0.00,,---,0.00,VWS V14.01,2013-10-15 11:46:00,
2013-10-15 07:47:00,56.9,56.6,30.07,ENE,62,0.0,0.0,99,0.00,,---,0.00,VWS V14.01,2013-10-15 11:47:00,
2013-10-15 07:48:00,56.9,56.6,30.07,ENE,62,0.0,0.0,99,0.00,,---,0.00,VWS V14.01,2013-10-15 11:48:00,
2013-10-15 07:49:00,56.9,56.6,30.07,ENE,62,0.0,0.0,99,0.00,,---,0.00,VWS V14.01,2013-10-15 11:49:00,
2013-10-15 07:50:00,56.9,56.6,30.07,ENE,62,0.0,0.0,99,0.00,,---,0.00,VWS V14.01,2013-10-15 11:50:00,
2013-10-15 07:51:00,56.7,56.4,30.07,ENE,62,0.0,0.0,99,0.00,,---,0.00,VWS V14.01,2013-10-15 11:51:00,
2013-10-15 07:52:00,56.7,56.4,30.07,ENE,62,0.0,0.0,99,0.00,,---,0.00,VWS V14.01,2013-10-15 11:52:00,
2013-10-15 07:53:00,56.9,56.6,30.07,ENE,62,0.0,0.0,99,0.00,,---,0.00,VWS V14.01,2013-10-15 11:53:00,
2013-10-15 07:54:00,56.9,56.6,30.07,ENE,62,0.0,0.0,99,0.00,,---,0.00,VWS V14.01,2013-10-15 11:54:00,
2013-10-15 07:55:00,56.9,56.6,30.07,ENE,62,0.0,0.0,99,0.00,,---,0.00,VWS V14.01,2013-10-15 11:55:00,
2013-10-15 07:56:00,56.9,56.9,30.07,ENE,62,0.0,0.0,100,0.00,,---,0.00,VWS V14.01,2013-10-15 11:56:00,
2013-10-15 07:57:00,56.9,56.9,30.07,ENE,62,0.0,0.0,100,0.00,,---,0.00,VWS V14.01,2013-10-15 11:57:00,
2013-10-15 07:58:00,56.9,56.6,30.07,ENE,62,0.0,0.0,99,0.00,,---,0.00,VWS V14.01,2013-10-15 11:58:00,
2013-10-15 07:59:00,56.9,56.6,30.07,ENE,62,0.0,0.0,99,0.00,,---,0.00,VWS V14.01,2013-10-15 11:59:00,
2013-10-15 08:00:00,56.9,56.6,30.07,ENE,62,0.0,0.0,99,0.00,,---,0.00,VWS V14.01,2013-10-15 12:00:00,
2013-10-15 08:01:00,56.9,56.6,30.07,ENE,62,0.0,0.0,99,0.00,,---,0.00,VWS V14.01,2013-10-15 12:01:00,
2013-10-15 08:02:00,56.9,56.6,30.07,ENE,62,0.0,0.0,99,0.00,,---,0.00,VWS V14.01,2013-10-15 12:02:00,
2013-10-15 08:03:00,56.9,56.9,30.07,ENE,62,0.0,0.0,100,0.00,,---,0.00,VWS V14.01,2013-10-15 12:03:00,
2013-10-15 08:04:00,56.9,56.9,30.07,ENE,62,0.0,0.0,100,0.00,,---,0.00,VWS V14.01,2013-10-15 12:04:00,
2013-10-15 08:05:00,56.9,56.9,30.07,ENE,62,0.0,0.0,100,0.00,,---,0.00,VWS V14.01,2013-10-15 12:05:00,
2013-10-15 08:06:00,57.0,57.0,30.07,NNE,27,0.0,2.0,100,0.00,,---,0.00,VWS V14.01,2013-10-15 12:06:00,
2013-10-15 08:07:00,57.0,57.0,30.07,NNE,27,0.0,2.0,100,0.00,,---,0.00,VWS V14.01,2013-10-15 12:07:00,
2013-10-15 08:08:00,57.0,57.0,30.07,NNE,27,0.0,2.0,100,0.00,,---,0.00,VWS V14.01,2013-10-15 12:08:00,
2013-10-15 08:09:00,57.0,57.0,30.07,NNE,27,0.0,2.0,100,0.00,,---,0.00,VWS V14.01,2013-10-15 12:09:00,
2013-10-15 08:10:00,57.0,57.0,30.07,NNE,27,0.0,2.0,100,0.00,,---,0.00,VWS V14.01,2013-10-15 12:10:00,
2013-10-15 08:11:00,57.0,57.0,30.07,NNE,27,0.0,0.0,100,0.00,,---,0.00,VWS V14.01,2013-10-15 12:11:00,
2013-10-15 08:12:00,57.0,57.0,30.07,NNE,27,0.0,0.0,100,0.00,,---,0.00,VWS V14.01,2013-10-15 12:12:00,
2013-10-15 08:13:00,57.0,57.0,30.07,NNE,27,0.0,0.0,100,0.00,,---,0.00,VWS V14.01,2013-10-15 12:13:00,
2013-10-15 08:14:00,57.2,57.2,30.07,NNE,27,0.0,0.0,100,0.00,,---,0.00,VWS V14.01,2013-10-15 12:14:00,
2013-10-15 08:15:00,57.2,57.2,30.07,NNE,27,0.0,0.0,100,0.00,,---,0.00,VWS V14.01,2013-10-15 12:15:00,
2013-10-15 08:16:00,57.2,57.2,30.07,NNE,27,0.0,0.0,100,0.00,,---,0.00,VWS V14.01,2013-10-15 12:16:00,
2013-10-15 08:17:00,57.2,57.2,30.07,NNE,27,0.0,0.0,100,0.00,,---,0.00,VWS V14.01,2013-10-15 12:17:00,
2013-10-15 08:18:00,57.2,57.2,30.07,NNE,28,1.0,1.0,100,0.00,,---,0.00,VWS V14.01,2013-10-15 12:18:00,
2013-10-15 08:19:00,57.3,57.3,30.07,NNE,28,0.0,1.0,100,0.00,,---,0.00,VWS V14.01,2013-10-15 12:19:00,
2013-10-15 08:20:00,57.3,57.3,30.07,NNE,28,0.0,1.0,100,0.00,,---,0.00,VWS V14.01,2013-10-15 12:20:00,
2013-10-15 08:21:00,57.3,57.3,30.07,NNE,28,0.0,0.0,100,0.00,,---,0.00,VWS V14.01,2013-10-15 12:21:00,
2013-10-15 08:22:00,57.3,57.3,30.07,NNE,28,0.0,0.0,100,0.00,,---,0.00,VWS V14.01,2013-10-15 12:22:00,
2013-10-15 08:23:00,57.3,57.3,30.07,NNE,28,0.0,0.0,100,0.00,,---,0.00,VWS V14.01,2013-10-15 12:23:00,
2013-10-15 08:24:00,57.3,57.3,30.07,NNE,28,0.0,0.0,100,0.00,,---,0.00,VWS V14.01,2013-10-15 12:24:00,
2013-10-15 08:25:00,57.5,57.5,30.07,West,278,0.0,0.0,100,0.00,,---,0.00,VWS V14.01,2013-10-15 12:25:00,
2013-10-15 08:26:00,57.5,57.5,30.07,West,278,0.0,0.0,100,0.00,,---,0.00,VWS V14.01,2013-10-15 12:26:00,
2013-10-15 08:27:00,57.5,57.2,30.07,West,278,0.0,0.0,99,0.00,,---,0.00,VWS V14.01,2013-10-15 12:27:00,
2013-10-15 08:28:00,57.5,57.2,30.07,West,278,0.0,0.0,99,0.00,,---,0.00,VWS V14.01,2013-10-15 12:28:00,
2013-10-15 08:29:00,57.5,57.2,30.07,West,278,0.0,0.0,99,0.00,,---,0.00,VWS V14.01,2013-10-15 12:29:00,
2013-10-15 08:30:00,57.5,57.2,30.07,West,278,0.0,0.0,99,0.00,,---,0.00,VWS V14.01,2013-10-15 12:30:00,
2013-10-15 08:31:00,57.5,57.2,30.07,West,278,0.0,0.0,99,0.00,,---,0.00,VWS V14.01,2013-10-15 12:31:00,
2013-10-15 08:32:00,57.5,57.2,30.07,West,278,0.0,0.0,99,0.00,,---,0.00,VWS V14.01,2013-10-15 12:32:00,
2013-10-15 08:33:00,57.5,57.2,30.07,NNE,30,0.0,0.0,99,0.00,,---,0.00,VWS V14.01,2013-10-15 12:33:00,
2013-10-15 08:34:00,57.5,57.2,30.07,NNE,30,0.0,0.0,99,0.00,,---,0.00,VWS V14.01,2013-10-15 12:34:00,
2013-10-15 08:35:00,57.6,57.3,30.07,NNE,30,0.0,0.0,99,0.00,,---,0.00,VWS V14.01,2013-10-15 12:35:00,
2013-10-15 08:36:00,57.6,57.3,30.07,NNE,20,2.0,3.0,99,0.00,,---,0.00,VWS V14.01,2013-10-15 12:36:00,
2013-10-15 08:37:00,57.6,57.3,30.07,NNE,20,0.0,3.0,99,0.00,,---,0.00,VWS V14.01,2013-10-15 12:37:00,
2013-10-15 08:38:00,57.6,57.0,30.07,NNE,20,0.0,3.0,98,0.00,,---,0.00,VWS V14.01,2013-10-15 12:38:00,
2013-10-15 08:39:00,57.6,57.0,30.07,NE,38,0.0,3.0,98,0.00,,---,0.00,VWS V14.01,2013-10-15 12:39:00,
2013-10-15 08:40:00,57.6,57.0,30.07,NE,38,0.0,3.0,98,0.00,,---,0.00,VWS V14.01,2013-10-15 12:40:00,
2013-10-15 08:41:00,57.6,57.0,30.07,NE,38,0.0,0.0,98,0.00,,---,0.00,VWS V14.01,2013-10-15 12:41:00,
2013-10-15 08:42:00,57.6,57.0,30.07,NE,38,0.0,0.0,98,0.00,,---,0.00,VWS V14.01,2013-10-15 12:42:00,
2013-10-15 08:43:00,57.6,57.0,30.07,NE,38,0.0,0.0,98,0.00,,---,0.00,VWS V14.01,2013-10-15 12:43:00,
2013-10-15 08:44:00,57.6,57.0,30.07,NE,38,0.0,0.0,98,0.00,,---,0.00,VWS V14.01,2013-10-15 12:44:00,
2013-10-15 08:45:00,57.6,57.0,30.08,NE,38,0.0,0.0,98,0.00,,---,0.00,VWS V14.01,2013-10-15 12:45:00,
2013-10-15 08:46:00,57.6,57.0,30.08,NE,38,0.0,0.0,98,0.00,,---,0.00,VWS V14.01,2013-10-15 12:46:00,
2013-10-15 08:47:00,57.8,57.2,30.08,NE,38,0.0,0.0,98,0.00,,---,0.00,VWS V14.01,2013-10-15 12:47:00,
2013-10-15 08:48:00,57.8,57.2,30.08,NE,38,0.0,0.0,98,0.00,,---,0.00,VWS V14.01,2013-10-15 12:48:00,
2013-10-15 08:49:00,57.8,57.2,30.08,NE,41,0.0,2.0,98,0.00,,---,0.00,VWS V14.01,2013-10-15 12:49:00,
2013-10-15 08:50:00,57.8,57.2,30.08,NE,41,0.0,2.0,98,0.00,,---,0.00,VWS V14.01,2013-10-15 12:50:00,
2013-10-15 08:51:00,57.8,57.2,30.08,NE,41,0.0,0.0,98,0.00,,---,0.00,VWS V14.01,2013-10-15 12:51:00,
2013-10-15 08:52:00,58.0,57.4,30.08,NE,41,0.0,0.0,98,0.00,,---,0.00,VWS V14.01,2013-10-15 12:52:00,
2013-10-15 08:53:00,58.0,57.4,30.08,SW,233,1.0,1.0,98,0.00,,---,0.00,VWS V14.01,2013-10-15 12:53:00,
2013-10-15 08:54:00,58.0,57.4,30.08,SW,233,0.0,2.0,98,0.00,,---,0.00,VWS V14.01,2013-10-15 12:54:00,
2013-10-15 08:55:00,58.0,57.4,30.08,SW,233,0.0,2.0,98,0.00,,---,0.00,VWS V14.01,2013-10-15 12:55:00,
2013-10-15 08:56:00,58.0,57.4,30.08,SW,233,0.0,2.0,98,0.00,,---,0.00,VWS V14.01,2013-10-15 12:56:00,
2013-10-15 08:57:00,58.1,57.5,30.08,SW,233,0.0,2.0,98,0.00,,---,0.00,VWS V14.01,2013-10-15 12:57:00,
2013-10-15 08:58:00,58.1,57.5,30.08,SW,233,0.0,2.0,98,0.00,,---,0.00,VWS V14.01,2013-10-15 12:58:00,
2013-10-15 08:59:00,58.1,57.5,30.08,SW,234,0.0,2.0,98,0.00,,---,0.00,VWS V14.01,2013-10-15 12:59:00,
2013-10-15 09:00:00,58.3,57.7,30.07,North,359,2.0,7.0,98,0.00,,---,0.00,VWS V14.01,2013-10-15 13:00:00,
2013-10-15 09:01:00,58.3,57.7,30.07,NE,56,1.0,3.0,98,0.00,,---,0.00,VWS V14.01,2013-10-15 13:01:00,
2013-10-15 09:02:00,58.3,57.7,30.07,NNE,24,0.0,3.0,98,0.00,,---,0.00,VWS V14.01,2013-10-15 13:02:00,
2013-10-15 09:03:00,58.4,57.6,30.07,NNE,18,3.0,5.0,97,0.00,,---,0.00,VWS V14.01,2013-10-15 13:03:00,
2013-10-15 09:04:00,58.4,57.6,30.07,NE,34,0.0,5.0,97,0.00,,---,0.00,VWS V14.01,2013-10-15 13:04:00,
2013-10-15 09:05:00,58.4,57.6,30.07,NNE,28,0.0,5.0,97,0.00,,---,0.00,VWS V14.01,2013-10-15 13:05:00,
2013-10-15 09:06:00,58.6,57.8,30.07,NE,52,2.0,7.0,97,0.00,,---,0.00,VWS V14.01,2013-10-15 13:06:00,
2013-10-15 09:07:00,58.6,57.8,30.07,North,0,3.0,7.0,97,0.00,,---,0.00,VWS V14.01,2013-10-15 13:07:00,
2013-10-15 09:08:00,58.7,57.8,30.07,NE,40,0.0,7.0,97,0.00,,---,0.00,VWS V14.01,2013-10-15 13:08:00,
2013-10-15 09:09:00,58.7,57.6,30.07,North,0,1.0,7.0,96,0.00,,---,0.00,VWS V14.01,2013-10-15 13:09:00,
2013-10-15 09:10:00,58.7,57.6,30.07,NNE,28,5.0,7.0,96,0.00,,---,0.00,VWS V14.01,2013-10-15 13:10:00,
2013-10-15 09:11:00,58.9,57.8,30.07,North,0,2.0,5.0,96,0.00,,---,0.00,VWS V14.01,2013-10-15 13:11:00,
2013-10-15 09:12:00,58.9,57.5,30.07,North,0,0.0,5.0,95,0.00,,---,0.00,VWS V14.01,2013-10-15 13:12:00,
2013-10-15 09:13:00,59.0,57.6,30.07,North,8,2.0,5.0,95,0.00,,---,0.00,VWS V14.01,2013-10-15 13:13:00,
2013-10-15 09:14:00,59.0,57.6,30.07,NE,55,5.0,7.0,95,0.00,,---,0.00,VWS V14.01,2013-10-15 13:14:00,
2013-10-15 09:15:00,59.2,57.8,30.08,ENE,68,2.0,7.0,95,0.00,,---,0.00,VWS V14.01,2013-10-15 13:15:00,
2013-10-15 09:16:00,59.2,57.8,30.08,ENE,68,0.0,7.0,95,0.00,,---,0.00,VWS V14.01,2013-10-15 13:16:00,
2013-10-15 09:17:00,59.2,57.5,30.08,NE,34,4.0,7.0,94,0.00,,---,0.00,VWS V14.01,2013-10-15 13:17:00,
2013-10-15 09:18:00,59.3,57.6,30.08,NE,37,2.0,7.0,94,0.00,,---,0.00,VWS V14.01,2013-10-15 13:18:00,
2013-10-15 09:19:00,59.3,57.6,30.08,NE,47,0.0,7.0,94,0.00,,---,0.00,VWS V14.01,2013-10-15 13:19:00,
2013-10-15 09:20:00,59.5,57.8,30.08,NNE,27,6.0,7.0,94,0.00,,---,0.00,VWS V14.01,2013-10-15 13:20:00,
2013-10-15 09:21:00,59.5,57.8,30.08,NE,35,2.0,5.0,94,0.00,,---,0.00,VWS V14.01,2013-10-15 13:21:00,
2013-10-15 09:22:00,59.5,57.8,30.08,NE,40,5.0,6.0,94,0.00,,---,0.00,VWS V14.01,2013-10-15 13:22:00,
2013-10-15 09:23:00,59.6,57.6,30.08,North,0,2.0,6.0,93,0.00,,---,0.00,VWS V14.01,2013-10-15 13:23:00,
2013-10-15 09:24:00,59.6,57.6,30.08,NNE,24,2.0,6.0,93,0.00,,---,0.00,VWS V14.01,2013-10-15 13:24:00,
2013-10-15 09:25:00,59.8,57.8,30.08,East,82,2.0,6.0,93,0.00,,---,0.00,VWS V14.01,2013-10-15 13:25:00,
2013-10-15 09:26:00,59.8,57.8,30.08,North,11,1.0,6.0,93,0.00,,---,0.00,VWS V14.01,2013-10-15 13:26:00,
2013-10-15 09:27:00,59.9,57.9,30.08,NNE,23,0.0,6.0,93,0.00,,---,0.00,VWS V14.01,2013-10-15 13:27:00,
2013-10-15 09:28:00,59.9,57.9,30.08,NE,44,0.0,6.0,93,0.00,,---,0.00,VWS V14.01,2013-10-15 13:28:00,
2013-10-15 09:29:00,59.9,57.9,30.08,NNE,27,2.0,6.0,93,0.00,,---,0.00,VWS V14.01,2013-10-15 13:29:00,
2013-10-15 09:30:00,60.1,58.1,30.07,NE,35,0.0,6.0,93,0.00,,---,0.00,VWS V14.01,2013-10-15 13:30:00,
2013-10-15 09:31:00,60.1,58.1,30.07,NE,37,0.0,0.0,93,0.00,,---,0.00,VWS V14.01,2013-10-15 13:31:00,
2013-10-15 09:32:00,60.2,57.9,30.07,ENE,75,2.0,2.0,92,0.00,,---,0.00,VWS V14.01,2013-10-15 13:32:00,
2013-10-15 09:33:00,60.2,57.9,30.07,NE,55,10.0,11.0,92,0.00,,---,0.00,VWS V14.01,2013-10-15 13:33:00,
2013-10-15 09:34:00,60.2,57.9,30.07,NE,55,3.0,11.0,92,0.00,,---,0.00,VWS V14.01,2013-10-15 13:34:00,
2013-10-15 09:35:00,60.4,58.1,30.07,NE,55,0.0,11.0,92,0.00,,---,0.00,VWS V14.01,2013-10-15 13:35:00,
2013-10-15 09:36:00,60.4,58.1,30.07,NE,42,3.0,11.0,92,0.00,,---,0.00,VWS V14.01,2013-10-15 13:36:00,
2013-10-15 09:37:00,60.4,58.1,30.07,NNE,28,4.0,11.0,92,0.00,,---,0.00,VWS V14.01,2013-10-15 13:37:00,
2013-10-15 09:38:00,60.5,57.9,30.07,North,6,2.0,11.0,91,0.00,,---,0.00,VWS V14.01,2013-10-15 13:38:00,
2013-10-15 09:39:00,60.5,57.9,30.07,NE,55,4.0,11.0,91,0.00,,---,0.00,VWS V14.01,2013-10-15 13:39:00,
2013-10-15 09:40:00,60.5,57.9,30.07,ESE,110,2.0,11.0,91,0.00,,---,0.00,VWS V14.01,2013-10-15 13:40:00,
2013-10-15 09:41:00,60.7,58.1,30.07,ENE,72,0.0,3.0,91,0.00,,---,0.00,VWS V14.01,2013-10-15 13:41:00,
2013-10-15 09:42:00,60.7,58.1,30.07,ENE,75,0.0,3.0,91,0.00,,---,0.00,VWS V14.01,2013-10-15 13:42:00,
2013-10-15 09:43:00,60.7,58.1,30.07,ENE,76,1.0,3.0,91,0.00,,---,0.00,VWS V14.01,2013-10-15 13:43:00,
2013-10-15 09:44:00,60.9,58.6,30.07,NNE,27,4.0,6.0,92,0.00,,---,0.00,VWS V14.01,2013-10-15 13:44:00,
2013-10-15 09:45:00,60.9,58.6,30.07,NE,42,5.0,7.0,92,0.00,,---,0.00,VWS V14.01,2013-10-15 13:45:00,
2013-10-15 09:46:00,60.9,58.3,30.07,NNE,24,2.0,7.0,91,0.00,,---,0.00,VWS V14.01,2013-10-15 13:46:00,
2013-10-15 09:47:00,61.0,58.4,30.07,NE,34,0.0,7.0,91,0.00,,---,0.00,VWS V14.01,2013-10-15 13:47:00,
2013-10-15 09:48:00,61.0,58.4,30.07,ENE,58,0.0,7.0,91,0.00,,---,0.00,VWS V14.01,2013-10-15 13:48:00,
2013-10-15 09:49:00,61.0,58.4,30.07,ENE,73,1.0,7.0,91,0.00,,---,0.00,VWS V14.01,2013-10-15 13:49:00,
2013-10-15 09:50:00,61.2,58.6,30.07,NNE,13,1.0,7.0,91,0.00,,---,0.00,VWS V14.01,2013-10-15 13:50:00,
2013-10-15 09:51:00,61.2,58.6,30.07,NNE,14,0.0,1.0,91,0.00,,---,0.00,VWS V14.01,2013-10-15 13:51:00,
2013-10-15 09:52:00,61.2,58.2,30.07,NNE,27,2.0,7.0,90,0.00,,---,0.00,VWS V14.01,2013-10-15 13:52:00,
2013-10-15 09:53:00,61.3,58.3,30.07,NNE,23,3.0,7.0,90,0.00,,---,0.00,VWS V14.01,2013-10-15 13:53:00,
2013-10-15 09:54:00,61.3,58.3,30.07,NE,49,1.0,7.0,90,0.00,,---,0.00,VWS V14.01,2013-10-15 13:54:00,
2013-10-15 09:55:00,61.3,58.3,30.07,North,7,2.0,7.0,90,0.00,,---,0.00,VWS V14.01,2013-10-15 13:55:00,
2013-10-15 09:56:00,61.5,58.5,30.07,NNE,32,2.0,7.0,90,0.00,,---,0.00,VWS V14.01,2013-10-15 13:56:00,
2013-10-15 09:57:00,61.5,58.5,30.07,North,8,0.0,7.0,90,0.00,,---,0.00,VWS V14.01,2013-10-15 13:57:00,
2013-10-15 09:58:00,61.6,58.3,30.07,NE,37,2.0,7.0,89,0.00,,---,0.00,VWS V14.01,2013-10-15 13:58:00,
2013-10-15 09:59:00,61.6,58.3,30.07,NE,42,2.0,7.0,89,0.00,,---,0.00,VWS V14.01,2013-10-15 13:59:00,
2013-10-15 10:00:00,61.8,58.8,30.07,NNE,21,2.0,7.0,90,0.00,,---,0.00,VWS V14.01,2013-10-15 14:00:00,
2013-10-15 10:01:00,61.8,58.8,30.07,ESE,114,2.0,3.0,90,0.00,,---,0.00,VWS V14.01,2013-10-15 14:01:00,
2013-10-15 10:02:00,61.8,58.8,30.07,ENE,65,1.0,7.0,90,0.00,,---,0.00,VWS V14.01,2013-10-15 14:02:00,
2013-10-15 10:03:00,62.0,59.0,30.07,ENE,62,0.0,7.0,90,0.00,,---,0.00,VWS V14.01,2013-10-15 14:03:00,
2013-10-15 10:04:00,62.0,59.0,30.07,ENE,62,0.0,7.0,90,0.00,,---,0.00,VWS V14.01,2013-10-15 14:04:00,
2013-10-15 10:05:00,62.1,59.1,30.07,NE,38,4.0,7.0,90,0.00,,---,0.00,VWS V14.01,2013-10-15 14:05:00,
2013-10-15 10:06:00,62.1,59.1,30.07,NE,51,1.0,7.0,90,0.00,,---,0.00,VWS V14.01,2013-10-15 14:06:00,
2013-10-15 10:07:00,62.3,59.3,30.07,NNE,17,4.0,7.0,90,0.00,,---,0.00,VWS V14.01,2013-10-15 14:07:00,
2013-10-15 10:08:00,62.3,59.0,30.07,NE,51,0.0,7.0,89,0.00,,---,0.00,VWS V14.01,2013-10-15 14:08:00,
2013-10-15 10:09:00,62.4,59.1,30.07,NE,51,0.0,7.0,89,0.00,,---,0.00,VWS V14.01,2013-10-15 14:09:00,
2013-10-15 10:10:00,62.4,59.1,30.07,NE,51,0.0,7.0,89,0.00,,---,0.00,VWS V14.01,2013-10-15 14:10:00,
2013-10-15 10:11:00,62.4,59.1,30.07,NNE,30,3.0,6.0,89,0.00,,---,0.00,VWS V14.01,2013-10-15 14:11:00,
2013-10-15 10:12:00,62.6,59.3,30.07,NNE,27,0.0,6.0,89,0.00,,---,0.00,VWS V14.01,2013-10-15 14:12:00,
2013-10-15 10:13:00,62.6,59.3,30.07,NNE,30,8.0,8.0,89,0.00,,---,0.00,VWS V14.01,2013-10-15 14:13:00,
2013-10-15 10:14:00,62.7,59.1,30.07,NE,40,6.0,8.0,88,0.00,,---,0.00,VWS V14.01,2013-10-15 14:14:00,
2013-10-15 10:15:00,62.7,59.1,30.06,NNE,28,4.0,8.0,88,0.00,,---,0.00,VWS V14.01,2013-10-15 14:15:00,
2013-10-15 10:16:00,62.9,59.3,30.06,ENE,76,2.0,8.0,88,0.00,,---,0.00,VWS V14.01,2013-10-15 14:16:00,
2013-10-15 10:17:00,62.9,59.0,30.06,North,8,2.0,8.0,87,0.00,,---,0.00,VWS V14.01,2013-10-15 14:17:00,
2013-10-15 10:18:00,63.1,59.2,30.06,NNE,21,4.0,8.0,87,0.00,,---,0.00,VWS V14.01,2013-10-15 14:18:00,
2013-10-15 10:19:00,63.1,59.2,30.06,NE,44,1.0,8.0,87,0.00,,---,0.00,VWS V14.01,2013-10-15 14:19:00,
2013-10-15 10:20:00,63.1,59.2,30.06,NNE,20,4.0,8.0,87,0.00,,---,0.00,VWS V14.01,2013-10-15 14:20:00,
2013-10-15 10:21:00,63.2,59.3,30.06,NE,41,2.0,5.0,87,0.00,,---,0.00,VWS V14.01,2013-10-15 14:21:00,
2013-10-15 10:22:00,63.2,59.3,30.06,NE,45,10.0,10.0,87,0.00,,---,0.00,VWS V14.01,2013-10-15 14:22:00,
2013-10-15 10:23:00,63.4,59.2,30.06,NE,35,2.0,10.0,86,0.00,,---,0.00,VWS V14.01,2013-10-15 14:23:00,
2013-10-15 10:24:00,63.4,59.2,30.06,NNE,17,3.0,10.0,86,0.00,,---,0.00,VWS V14.01,2013-10-15 14:24:00,
2013-10-15 10:25:00,63.4,59.2,30.06,SE,140,5.0,10.0,86,0.00,,---,0.00,VWS V14.01,2013-10-15 14:25:00,
2013-10-15 10:26:00,63.5,59.6,30.06,NE,55,6.0,10.0,87,0.00,,---,0.00,VWS V14.01,2013-10-15 14:26:00,
2013-10-15 10:27:00,63.5,59.6,30.06,ENE,76,3.0,10.0,87,0.00,,---,0.00,VWS V14.01,2013-10-15 14:27:00,
2013-10-15 10:28:00,63.7,59.8,30.06,NE,54,5.0,10.0,87,0.00,,---,0.00,VWS V14.01,2013-10-15 14:28:00,
2013-10-15 10:29:00,63.7,59.4,30.06,NE,52,6.0,10.0,86,0.00,,---,0.00,VWS V14.01,2013-10-15 14:29:00,
2013-10-15 10:30:00,63.9,59.6,30.06,ENE,68,6.0,10.0,86,0.00,,---,0.00,VWS V14.01,2013-10-15 14:30:00,
2013-10-15 10:31:00,63.9,59.6,30.06,ENE,68,6.0,6.0,86,0.00,,---,0.00,VWS V14.01,2013-10-15 14:31:00,
2013-10-15 10:32:00,64.0,59.7,30.06,NE,54,1.0,6.0,86,0.00,,---,0.00,VWS V14.01,2013-10-15 14:32:00,
2013-10-15 10:33:00,64.0,59.7,30.06,ESE,114,2.0,6.0,86,0.00,,---,0.00,VWS V14.01,2013-10-15 14:33:00,
2013-10-15 10:34:00,64.0,59.7,30.06,East,89,0.0,6.0,86,0.00,,---,0.00,VWS V14.01,2013-10-15 14:34:00,
2013-10-15 10:35:00,64.2,60.3,30.06,NNE,17,3.0,7.0,87,0.00,,---,0.00,VWS V14.01,2013-10-15 14:35:00,
2013-10-15 10:36:00,64.2,60.3,30.06,NE,40,7.0,9.0,87,0.00,,---,0.00,VWS V14.01,2013-10-15 14:36:00,
2013-10-15 10:37:00,64.2,59.9,30.06,ENE,78,5.0,9.0,86,0.00,,---,0.00,VWS V14.01,2013-10-15 14:37:00,
2013-10-15 10:38:00,64.3,59.4,30.06,ENE,59,2.0,9.0,84,0.00,,---,0.00,VWS V14.01,2013-10-15 14:38:00,
2013-10-15 10:39:00,64.3,59.4,30.06,ENE,76,4.0,9.0,84,0.00,,---,0.00,VWS V14.01,2013-10-15 14:39:00,
2013-10-15 10:40:00,64.3,59.4,30.06,NE,37,0.0,9.0,84,0.00,,---,0.00,VWS V14.01,2013-10-15 14:40:00,
2013-10-15 10:41:00,64.3,59.4,30.06,NE,37,0.0,0.0,84,0.00,,---,0.00,VWS V14.01,2013-10-15 14:41:00,
2013-10-15 10:42:00,64.3,59.4,30.06,NNE,16,0.0,3.0,84,0.00,,---,0.00,VWS V14.01,2013-10-15 14:42:00,
2013-10-15 10:43:00,64.3,59.4,30.06,ESE,119,0.0,3.0,84,0.00,,---,0.00,VWS V14.01,2013-10-15 14:43:00,
2013-10-15 10:44:00,64.3,59.4,30.06,ESE,119,0.0,3.0,84,0.00,,---,0.00,VWS V14.01,2013-10-15 14:44:00,
2013-10-15 10:45:00,64.3,59.7,30.06,East,80,0.0,3.0,85,0.00,,---,0.00,VWS V14.01,2013-10-15 14:45:00,
2013-10-15 10:46:00,64.3,59.7,30.06,East,80,0.0,3.0,85,0.00,,---,0.00,VWS V14.01,2013-10-15 14:46:00,
2013-10-15 10:47:00,64.3,60.0,30.06,NNE,23,1.0,5.0,86,0.00,,---,0.00,VWS V14.01,2013-10-15 14:47:00,
2013-10-15 10:48:00,64.5,59.9,30.06,NNE,18,0.0,5.0,85,0.00,,---,0.00,VWS V14.01,2013-10-15 14:48:00,
2013-10-15 10:49:00,64.5,59.9,30.06,ENE,58,5.0,6.0,85,0.00,,---,0.00,VWS V14.01,2013-10-15 14:49:00,
2013-10-15 10:50:00,64.5,59.9,30.06,North,11,2.0,7.0,85,0.00,,---,0.00,VWS V14.01,2013-10-15 14:50:00,
2013-10-15 10:51:00,64.5,59.6,30.06,NE,44,2.0,4.0,84,0.00,,---,0.00,VWS V14.01,2013-10-15 14:51:00,
2013-10-15 10:52:00,64.5,59.6,30.06,NNE,20,0.0,4.0,84,0.00,,---,0.00,VWS V14.01,2013-10-15 14:52:00,
2013-10-15 10:53:00,64.5,59.9,30.06,North,0,3.0,4.0,85,0.00,,---,0.00,VWS V14.01,2013-10-15 14:53:00,
2013-10-15 10:54:00,64.5,59.9,30.06,North,0,2.0,4.0,85,0.00,,---,0.00,VWS V14.01,2013-10-15 14:54:00,
2013-10-15 10:55:00,64.5,59.9,30.06,ENE,68,3.0,5.0,85,0.00,,---,0.00,VWS V14.01,2013-10-15 14:55:00,
2013-10-15 10:56:00,64.5,59.6,30.06,North,8,2.0,6.0,84,0.00,,---,0.00,VWS V14.01,2013-10-15 14:56:00,
2013-10-15 10:57:00,64.5,59.6,30.06,NNE,21,2.0,6.0,84,0.00,,---,0.00,VWS V14.01,2013-10-15 14:57:00,
2013-10-15 10:58:00,64.3,59.4,30.06,NE,37,2.0,6.0,84,0.00,,---,0.00,VWS V14.01,2013-10-15 14:58:00,
2013-10-15 10:59:00,64.3,59.4,30.06,NE,48,2.0,6.0,84,0.00,,---,0.00,VWS V14.01,2013-10-15 14:59:00,
2013-10-15 11:00:00,64.3,59.4,30.06,NE,48,0.0,6.0,84,0.00,,---,0.00,VWS V14.01,2013-10-15 15:00:00,
2013-10-15 11:01:00,64.3,59.7,30.06,NE,48,0.0,0.0,85,0.00,,---,0.00,VWS V14.01,2013-10-15 15:01:00,
2013-10-15 11:02:00,64.3,59.7,30.06,NE,49,0.0,0.0,85,0.00,,---,0.00,VWS V14.01,2013-10-15 15:02:00,
2013-10-15 11:03:00,64.5,59.9,30.06,NNE,13,5.0,7.0,85,0.00,,---,0.00,VWS V14.01,2013-10-15 15:03:00,
2013-10-15 11:04:00,64.5,59.9,30.06,North,1,1.0,7.0,85,0.00,,---,0.00,VWS V14.01,2013-10-15 15:04:00,
2013-10-15 11:05:00,64.5,59.6,30.06,ENE,64,0.0,10.0,84,0.00,,---,0.00,VWS V14.01,2013-10-15 15:05:00,
2013-10-15 11:06:00,64.5,59.9,30.06,NE,40,2.0,10.0,85,0.00,,---,0.00,VWS V14.01,2013-10-15 15:06:00,
2013-10-15 11:07:00,64.5,59.9,30.06,NE,34,1.0,10.0,85,0.00,,---,0.00,VWS V14.01,2013-10-15 15:07:00,
2013-10-15 11:08:00,64.5,59.9,30.06,ENE,76,3.0,10.0,85,0.00,,---,0.00,VWS V14.01,2013-10-15 15:08:00,
2013-10-15 11:09:00,64.5,59.9,30.06,NNE,21,2.0,10.0,85,0.00,,---,0.00,VWS V14.01,2013-10-15 15:09:00,
2013-10-15 11:10:00,64.5,59.9,30.06,ENE,59,5.0,10.0,85,0.00,,---,0.00,VWS V14.01,2013-10-15 15:10:00,
2013-10-15 11:11:00,64.5,59.6,30.06,NE,42,0.0,6.0,84,0.00,,---,0.00,VWS V14.01,2013-10-15 15:11:00,
2013-10-15 11:12:00,64.5,59.6,30.06,NNE,18,0.0,6.0,84,0.00,,---,0.00,VWS V14.01,2013-10-15 15:12:00,
2013-10-15 11:13:00,64.5,59.9,30.06,NNE,23,0.0,6.0,85,0.00,,---,0.00,VWS V14.01,2013-10-15 15:13:00,
2013-10-15 11:14:00,64.5,59.9,30.06,NNE,25,0.0,6.0,85,0.00,,---,0.00,VWS V14.01,2013-10-15 15:14:00,
2013-10-15 11:15:00,64.5,59.9,30.06,NNE,18,0.0,6.0,85,0.00,,---,0.00,VWS V14.01,2013-10-15 15:15:00,
2013-10-15 11:16:00,64.7,60.4,30.06,NNE,27,1.0,6.0,86,0.00,,---,0.00,VWS V14.01,2013-10-15 15:16:00,
2013-10-15 11:17:00,64.7,60.4,30.06,NNE,27,1.0,6.0,86,0.00,,---,0.00,VWS V14.01,2013-10-15 15:17:00,
2013-10-15 11:18:00,64.7,60.4,30.06,NE,41,1.0,6.0,86,0.00,,---,0.00,VWS V14.01,2013-10-15 15:18:00,
2013-10-15 11:19:00,64.7,59.8,30.06,NE,47,0.0,6.0,84,0.00,,---,0.00,VWS V14.01,2013-10-15 15:19:00,
2013-10-15 11:20:00,64.8,59.9,30.06,North,354,0.0,6.0,84,0.00,,---,0.00,VWS V14.01,2013-10-15 15:20:00,
2013-10-15 11:21:00,64.8,60.2,30.06,West,274,0.0,2.0,85,0.00,,---,0.00,VWS V14.01,2013-10-15 15:21:00,
2013-10-15 11:22:00,65.0,60.4,30.06,North,10,0.0,2.0,85,0.00,,---,0.00,VWS V14.01,2013-10-15 15:22:00,
2013-10-15 11:23:00,65.0,60.4,30.06,North,10,0.0,2.0,85,0.00,,---,0.00,VWS V14.01,2013-10-15 15:23:00,
2013-10-15 11:24:00,65.0,60.4,30.06,NE,34,0.0,5.0,85,0.00,,---,0.00,VWS V14.01,2013-10-15 15:24:00,
2013-10-15 11:25:00,65.2,60.2,30.06,NE,34,0.0,5.0,84,0.00,,---,0.00,VWS V14.01,2013-10-15 15:25:00,
2013-10-15 11:26:00,65.2,60.6,30.06,NE,34,0.0,5.0,85,0.00,,---,0.00,VWS V14.01,2013-10-15 15:26:00,
2013-10-15 11:27:00,65.2,60.2,30.06,ENE,73,0.0,6.0,84,0.00,,---,0.00,VWS V14.01,2013-10-15 15:27:00,
2013-10-15 11:28:00,65.3,60.3,30.06,NNE,18,0.0,6.0,84,0.00,,---,0.00,VWS V14.01,2013-10-15 15:28:00,
2013-10-15 11:29:00,65.3,60.3,30.06,NNE,18,0.0,6.0,84,0.00,,---,0.00,VWS V14.01,2013-10-15 15:29:00,
2013-10-15 11:30:00,65.3,60.3,30.06,NNW,333,2.0,7.0,84,0.00,,---,0.00,VWS V14.01,2013-10-15 15:30:00,
2013-10-15 11:31:00,65.5,60.5,30.06,NNE,24,5.0,6.0,84,0.00,,---,0.00,VWS V14.01,2013-10-15 15:31:00,
2013-10-15 11:32:00,65.5,60.5,30.06,North,0,0.0,6.0,84,0.00,,---,0.00,VWS V14.01,2013-10-15 15:32:00,
2013-10-15 11:33:00,65.5,60.5,30.06,NE,34,2.0,6.0,84,0.00,,---,0.00,VWS V14.01,2013-10-15 15:33:00,
2013-10-15 11:34:00,65.6,60.3,30.06,ENE,59,6.0,7.0,83,0.00,,---,0.00,VWS V14.01,2013-10-15 15:34:00,
2013-10-15 11:35:00,65.6,60.3,30.06,ENE,69,0.0,7.0,83,0.00,,---,0.00,VWS V14.01,2013-10-15 15:35:00,
2013-10-15 11:36:00,65.6,60.3,30.06,ENE,71,3.0,7.0,83,0.00,,---,0.00,VWS V14.01,2013-10-15 15:36:00,
2013-10-15 11:37:00,65.6,60.3,30.06,ENE,69,0.0,7.0,83,0.00,,---,0.00,VWS V14.01,2013-10-15 15:37:00,
2013-10-15 11:38:00,65.8,60.8,30.06,ENE,69,0.0,7.0,84,0.00,,---,0.00,VWS V14.01,2013-10-15 15:38:00,
2013-10-15 11:39:00,65.8,60.8,30.06,ENE,58,2.0,7.0,84,0.00,,---,0.00,VWS V14.01,2013-10-15 15:39:00,
2013-10-15 11:40:00,65.8,60.8,30.06,East,89,0.0,7.0,84,0.00,,---,0.00,VWS V14.01,2013-10-15 15:40:00,
2013-10-15 11:41:00,66.0,61.0,30.06,NNE,30,0.0,3.0,84,0.00,,---,0.00,VWS V14.01,2013-10-15 15:41:00,
2013-10-15 11:42:00,66.0,61.0,30.06,NNE,30,0.0,3.0,84,0.00,,---,0.00,VWS V14.01,2013-10-15 15:42:00,
2013-10-15 11:43:00,66.1,60.8,30.06,North,4,6.0,6.0,83,0.00,,---,0.00,VWS V14.01,2013-10-15 15:43:00,
2013-10-15 11:44:00,66.1,60.8,30.06,NNE,31,2.0,10.0,83,0.00,,---,0.00,VWS V14.01,2013-10-15 15:44:00,
2013-10-15 11:45:00,66.3,60.3,30.05,NNE,30,6.0,10.0,81,0.00,,---,0.00,VWS V14.01,2013-10-15 15:45:00,
2013-10-15 11:46:00,66.3,60.3,30.05,North,359,1.0,10.0,81,0.00,,---,0.00,VWS V14.01,2013-10-15 15:46:00,
2013-10-15 11:47:00,66.3,60.3,30.05,NNE,16,2.0,10.0,81,0.00,,---,0.00,VWS V14.01,2013-10-15 15:47:00,
2013-10-15 11:48:00,66.4,60.4,30.05,NNE,17,0.0,10.0,81,0.00,,---,0.00,VWS V14.01,2013-10-15 15:48:00,
2013-10-15 11:49:00,66.4,60.7,30.05,NNE,17,0.0,10.0,82,0.00,,---,0.00,VWS V14.01,2013-10-15 15:49:00,
2013-10-15 11:50:00,66.4,60.7,30.05,North,3,5.0,10.0,82,0.00,,---,0.00,VWS V14.01,2013-10-15 15:50:00,
2013-10-15 11:51:00,66.4,60.7,30.05,North,0,1.0,5.0,82,0.00,,---,0.00,VWS V14.01,2013-10-15 15:51:00,
2013-10-15 11:52:00,66.4,60.4,30.05,NNE,18,2.0,5.0,81,0.00,,---,0.00,VWS V14.01,2013-10-15 15:52:00,
2013-10-15 11:53:00,66.4,60.4,30.05,NNE,23,2.0,7.0,81,0.00,,---,0.00,VWS V14.01,2013-10-15 15:53:00,
2013-10-15 11:54:00,66.4,60.0,30.05,NE,35,7.0,7.0,80,0.00,,---,0.00,VWS V14.01,2013-10-15 15:54:00,
2013-10-15 11:55:00,66.6,60.6,30.05,NNE,31,0.0,7.0,81,0.00,,---,0.00,VWS V14.01,2013-10-15 15:55:00,
2013-10-15 11:56:00,66.6,60.6,30.05,NNE,31,0.0,7.0,81,0.00,,---,0.00,VWS V14.01,2013-10-15 15:56:00,
2013-10-15 11:57:00,66.6,60.6,30.05,NNE,31,0.0,7.0,81,0.00,,---,0.00,VWS V14.01,2013-10-15 15:57:00,
2013-10-15 11:58:00,66.6,60.6,30.05,NE,35,1.0,7.0,81,0.00,,---,0.00,VWS V14.01,2013-10-15 15:58:00,
2013-10-15 11:59:00,66.6,60.6,30.05,ENE,59,3.0,8.0,81,0.00,,---,0.00,VWS V14.01,2013-10-15 15:59:00,
2013-10-15 12:00:00,66.8,60.8,30.04,NE,51,0.0,8.0,81,0.00,,---,0.00,VWS V14.01,2013-10-15 16:00:00,
2013-10-15 12:01:00,66.8,60.8,30.04,NE,51,0.0,0.0,81,0.00,,---,0.00,VWS V14.01,2013-10-15 16:01:00,
2013-10-15 12:02:00,66.8,61.1,30.04,NE,54,0.0,2.0,82,0.00,,---,0.00,VWS V14.01,2013-10-15 16:02:00,
2013-10-15 12:03:00,66.8,60.8,30.04,NNE,27,6.0,6.0,81,0.00,,---,0.00,VWS V14.01,2013-10-15 16:03:00,
2013-10-15 12:04:00,66.9,60.9,30.04,NNE,28,3.0,6.0,81,0.00,,---,0.00,VWS V14.01,2013-10-15 16:04:00,
2013-10-15 12:05:00,66.9,61.2,30.04,NE,55,3.0,6.0,82,0.00,,---,0.00,VWS V14.01,2013-10-15 16:05:00,
2013-10-15 12:06:00,66.9,60.9,30.04,NNE,17,0.0,6.0,81,0.00,,---,0.00,VWS V14.01,2013-10-15 16:06:00,
2013-10-15 12:07:00,67.1,61.1,30.04,NNE,27,4.0,8.0,81,0.00,,---,0.00,VWS V14.01,2013-10-15 16:07:00,
2013-10-15 12:08:00,67.1,61.1,30.04,North,6,0.0,8.0,81,0.00,,---,0.00,VWS V14.01,2013-10-15 16:08:00,
2013-10-15 12:09:00,67.3,61.3,30.04,North,6,0.0,8.0,81,0.00,,---,0.00,VWS V14.01,2013-10-15 16:09:00,
2013-10-15 12:10:00,67.3,61.3,30.04,North,6,0.0,8.0,81,0.00,,---,0.00,VWS V14.01,2013-10-15 16:10:00,
2013-10-15 12:11:00,67.4,61.4,30.04,NE,54,2.0,4.0,81,0.00,,---,0.00,VWS V14.01,2013-10-15 16:11:00,
2013-10-15 12:12:00,67.4,61.7,30.04,ENE,59,2.0,4.0,82,0.00,,---,0.00,VWS V14.01,2013-10-15 16:12:00,
2013-10-15 12:13:00,67.6,61.2,30.04,NE,35,3.0,5.0,80,0.00,,---,0.00,VWS V14.01,2013-10-15 16:13:00,
2013-10-15 12:14:00,67.6,61.2,30.04,North,8,2.0,6.0,80,0.00,,---,0.00,VWS V14.01,2013-10-15 16:14:00,
2013-10-15 12:15:00,67.6,61.2,30.03,NW,323,0.0,6.0,80,0.00,,---,0.00,VWS V14.01,2013-10-15 16:15:00,
2013-10-15 12:16:00,67.8,61.8,30.03,NE,56,5.0,6.0,81,0.00,,---,0.00,VWS V14.01,2013-10-15 16:16:00,
2013-10-15 12:17:00,67.8,61.8,30.03,NNE,17,0.0,6.0,81,0.00,,---,0.00,VWS V14.01,2013-10-15 16:17:00,
2013-10-15 12:18:00,67.9,61.5,30.03,NNE,20,5.0,6.0,80,0.00,,---,0.00,VWS V14.01,2013-10-15 16:18:00,
2013-10-15 12:19:00,67.9,61.5,30.03,NE,42,6.0,6.0,80,0.00,,---,0.00,VWS V14.01,2013-10-15 16:19:00,
2013-10-15 12:20:00,68.1,61.7,30.03,North,0,0.0,6.0,80,0.00,,---,0.00,VWS V14.01,2013-10-15 16:20:00,
2013-10-15 12:21:00,68.3,61.5,30.03,NE,52,6.0,7.0,79,0.00,,---,0.00,VWS V14.01,2013-10-15 16:21:00,
2013-10-15 12:22:00,68.3,61.9,30.03,ENE,78,7.0,7.0,80,0.00,,---,0.00,VWS V14.01,2013-10-15 16:22:00,
2013-10-15 12:23:00,68.4,61.3,30.03,North,11,3.0,7.0,78,0.00,,---,0.00,VWS V14.01,2013-10-15 16:23:00,
2013-10-15 12:24:00,68.4,61.3,30.03,NE,49,0.0,7.0,78,0.00,,---,0.00,VWS V14.01,2013-10-15 16:24:00,
2013-10-15 12:25:00,68.6,61.8,30.03,NNE,18,3.0,7.0,79,0.00,,---,0.00,VWS V14.01,2013-10-15 16:25:00,
2013-10-15 12:26:00,68.8,62.0,30.03,North,0,1.0,7.0,79,0.00,,---,0.00,VWS V14.01,2013-10-15 16:26:00,
2013-10-15 12:27:00,68.9,62.1,30.03,NE,40,0.0,7.0,79,0.00,,---,0.00,VWS V14.01,2013-10-15 16:27:00,
2013-10-15 12:28:00,68.9,61.8,30.03,NE,40,0.0,7.0,78,0.00,,---,0.00,VWS V14.01,2013-10-15 16:28:00,
2013-10-15 12:29:00,69.1,62.0,30.03,ENE,61,0.0,7.0,78,0.00,,---,0.00,VWS V14.01,2013-10-15 16:29:00,
2013-10-15 12:30:00,69.1,62.0,30.02,NE,35,0.0,7.0,78,0.00,,---,0.00,VWS V14.01,2013-10-15 16:30:00,
2013-10-15 12:31:00,69.3,61.8,30.02,NE,35,0.0,0.0,77,0.00,,---,0.00,VWS V14.01,2013-10-15 16:31:00,
2013-10-15 12:32:00,69.4,61.9,30.02,North,10,5.0,8.0,77,0.00,,---,0.00,VWS V14.01,2013-10-15 16:32:00,
2013-10-15 12:33:00,69.4,61.9,30.02,NNE,32,1.0,8.0,77,0.00,,---,0.00,VWS V14.01,2013-10-15 16:33:00,
2013-10-15 12:34:00,69.6,62.1,30.02,ENE,58,3.0,8.0,77,0.00,,---,0.00,VWS V14.01,2013-10-15 16:34:00,
2013-10-15 12:35:00,69.8,61.9,30.02,ENE,58,2.0,8.0,76,0.00,,---,0.00,VWS V14.01,2013-10-15 16:35:00,
2013-10-15 12:36:00,69.9,62.0,30.02,ENE,69,0.0,8.0,76,0.00,,---,0.00,VWS V14.01,2013-10-15 16:36:00,
2013-10-15 12:37:00,69.9,61.6,30.02,NE,35,2.0,8.0,75,0.00,,---,0.00,VWS V14.01,2013-10-15 16:37:00,
2013-10-15 12:38:00,70.1,62.2,30.02,ENE,65,8.0,8.0,76,0.00,,---,0.00,VWS V14.01,2013-10-15 16:38:00,
2013-10-15 12:39:00,70.3,62.4,30.02,NNW,340,2.0,8.0,76,0.00,,---,0.00,VWS V14.01,2013-10-15 16:39:00,
2013-10-15 12:40:00,70.3,62.0,30.02,ENE,76,3.0,8.0,75,0.00,,---,0.00,VWS V14.01,2013-10-15 16:40:00,
2013-10-15 12:41:00,70.4,61.7,30.02,ENE,64,2.0,8.0,74,0.00,,---,0.00,VWS V14.01,2013-10-15 16:41:00,
2013-10-15 12:42:00,70.6,61.9,30.02,ENE,64,0.0,8.0,74,0.00,,---,0.00,VWS V14.01,2013-10-15 16:42:00,
2013-10-15 12:43:00,70.6,61.9,30.02,NE,54,0.0,8.0,74,0.00,,---,0.00,VWS V14.01,2013-10-15 16:43:00,
2013-10-15 12:44:00,70.6,61.9,30.02,NNE,20,5.0,8.0,74,0.00,,---,0.00,VWS V14.01,2013-10-15 16:44:00,
2013-10-15 12:45:00,70.8,61.7,30.01,ESE,120,0.0,8.0,73,0.00,,---,0.00,VWS V14.01,2013-10-15 16:45:00,
2013-10-15 12:46:00,70.8,62.1,30.01,NNE,27,1.0,8.0,74,0.00,,---,0.00,VWS V14.01,2013-10-15 16:46:00,
2013-10-15 12:47:00,70.9,62.2,30.01,North,6,3.0,8.0,74,0.00,,---,0.00,VWS V14.01,2013-10-15 16:47:00,
2013-10-15 12:48:00,71.1,62.8,30.01,ENE,61,2.0,10.0,75,0.00,,---,0.00,VWS V14.01,2013-10-15 16:48:00,
2013-10-15 12:49:00,71.1,62.0,30.01,ENE,64,2.0,10.0,73,0.00,,---,0.00,VWS V14.01,2013-10-15 16:49:00,
2013-10-15 12:50:00,71.3,62.6,30.01,NNE,17,2.0,10.0,74,0.00,,---,0.00,VWS V14.01,2013-10-15 16:50:00,
2013-10-15 12:51:00,71.3,62.6,30.01,NNE,31,2.0,3.0,74,0.00,,---,0.00,VWS V14.01,2013-10-15 16:51:00,
2013-10-15 12:52:00,71.5,62.8,30.01,North,11,0.0,3.0,74,0.00,,---,0.00,VWS V14.01,2013-10-15 16:52:00,
2013-10-15 12:53:00,71.5,62.4,30.01,North,8,0.0,3.0,73,0.00,,---,0.00,VWS V14.01,2013-10-15 16:53:00,
2013-10-15 12:54:00,71.5,62.4,30.01,North,8,0.0,3.0,73,0.00,,---,0.00,VWS V14.01,2013-10-15 16:54:00,
2013-10-15 12:55:00,71.5,62.4,30.01,North,10,0.0,3.0,73,0.00,,---,0.00,VWS V14.01,2013-10-15 16:55:00,
2013-10-15 12:56:00,71.5,62.4,30.01,NNE,27,0.0,3.0,73,0.00,,---,0.00,VWS V14.01,2013-10-15 16:56:00,
2013-10-15 12:57:00,71.5,62.4,30.01,NE,41,5.0,5.0,73,0.00,,---,0.00,VWS V14.01,2013-10-15 16:57:00,
2013-10-15 12:58:00,71.5,62.4,30.01,NE,35,1.0,6.0,73,0.00,,---,0.00,VWS V14.01,2013-10-15 16:58:00,
2013-10-15 12:59:00,71.5,62.4,30.01,ENE,58,5.0,7.0,73,0.00,,---,0.00,VWS V14.01,2013-10-15 16:59:00,
2013-10-15 13:00:00,71.5,62.4,30.00,NNE,17,0.0,7.0,73,0.00,,---,0.00,VWS V14.01,2013-10-15 17:00:00,
2013-10-15 13:01:00,71.5,62.4,30.00,NNE,17,1.0,1.0,73,0.00,,---,0.00,VWS V14.01,2013-10-15 17:01:00,
2013-10-15 13:02:00,71.5,62.4,30.00,NNE,13,3.0,6.0,73,0.00,,---,0.00,VWS V14.01,2013-10-15 17:02:00,
2013-10-15 13:03:00,71.5,62.8,30.00,East,90,8.0,8.0,74,0.00,,---,0.00,VWS V14.01,2013-10-15 17:03:00,
2013-10-15 13:04:00,71.5,62.8,30.00,NE,49,3.0,8.0,74,0.00,,---,0.00,VWS V14.01,2013-10-15 17:04:00,
2013-10-15 13:05:00,71.5,62.4,30.00,NE,34,3.0,8.0,73,0.00,,---,0.00,VWS V14.01,2013-10-15 17:05:00,
2013-10-15 13:06:00,71.5,62.4,30.00,NE,34,0.0,8.0,73,0.00,,---,0.00,VWS V14.01,2013-10-15 17:06:00,
2013-10-15 13:07:00,71.6,62.5,30.00,NE,34,0.0,8.0,73,0.00,,---,0.00,VWS V14.01,2013-10-15 17:07:00,
2013-10-15 13:08:00,71.6,62.5,30.00,NNE,14,3.0,8.0,73,0.00,,---,0.00,VWS V14.01,2013-10-15 17:08:00,
2013-10-15 13:09:00,71.6,62.5,30.00,NE,40,2.0,8.0,73,0.00,,---,0.00,VWS V14.01,2013-10-15 17:09:00,
2013-10-15 13:10:00,71.6,62.5,30.00,NE,34,6.0,8.0,73,0.00,,---,0.00,VWS V14.01,2013-10-15 17:10:00,
2013-10-15 13:11:00,71.8,62.3,30.00,NE,41,0.0,6.0,72,0.00,,---,0.00,VWS V14.01,2013-10-15 17:11:00,
2013-10-15 13:12:00,71.8,62.3,30.00,ENE,66,3.0,6.0,72,0.00,,---,0.00,VWS V14.01,2013-10-15 17:12:00,
2013-10-15 13:13:00,71.8,62.7,30.00,East,100,5.0,12.0,73,0.00,,---,0.00,VWS V14.01,2013-10-15 17:13:00,
2013-10-15 13:14:00,71.8,62.7,30.00,North,0,0.0,12.0,73,0.00,,---,0.00,VWS V14.01,2013-10-15 17:14:00,
2013-10-15 13:15:00,71.8,62.7,29.99,NNE,18,3.0,12.0,73,0.00,,---,0.00,VWS V14.01,2013-10-15 17:15:00,
2013-10-15 13:16:00,71.8,62.7,29.99,ENE,64,5.0,12.0,73,0.00,,---,0.00,VWS V14.01,2013-10-15 17:16:00,
2013-10-15 13:17:00,71.8,62.7,29.99,NE,51,0.0,12.0,73,0.00,,---,0.00,VWS V14.01,2013-10-15 17:17:00,
2013-10-15 13:18:00,71.8,62.7,29.99,NE,51,2.0,12.0,73,0.00,,---,0.00,VWS V14.01,2013-10-15 17:18:00,
2013-10-15 13:19:00,71.8,62.7,29.99,North,1,4.0,12.0,73,0.00,,---,0.00,VWS V14.01,2013-10-15 17:19:00,
2013-10-15 13:20:00,71.8,62.7,29.99,NNE,30,0.0,12.0,73,0.00,,---,0.00,VWS V14.01,2013-10-15 17:20:00,
2013-10-15 13:21:00,71.8,62.7,29.99,NNE,14,3.0,4.0,73,0.00,,---,0.00,VWS V14.01,2013-10-15 17:21:00,
2013-10-15 13:22:00,71.8,62.7,29.99,ENE,62,0.0,4.0,73,0.00,,---,0.00,VWS V14.01,2013-10-15 17:22:00,
2013-10-15 13:23:00,71.8,63.1,29.99,NE,52,6.0,10.0,74,0.00,,---,0.00,VWS V14.01,2013-10-15 17:23:00,
2013-10-15 13:24:00,71.8,62.7,29.99,NE,45,5.0,10.0,73,0.00,,---,0.00,VWS V14.01,2013-10-15 17:24:00,
2013-10-15 13:25:00,71.8,62.7,29.99,NE,45,4.0,10.0,73,0.00,,---,0.00,VWS V14.01,2013-10-15 17:25:00,
2013-10-15 13:26:00,71.8,62.7,29.99,ENE,69,5.0,10.0,73,0.00,,---,0.00,VWS V14.01,2013-10-15 17:26:00,
2013-10-15 13:27:00,71.8,62.3,29.99,ENE,68,0.0,10.0,72,0.00,,---,0.00,VWS V14.01,2013-10-15 17:27:00,
2013-10-15 13:28:00,71.8,62.7,29.99,NE,49,0.0,10.0,73,0.00,,---,0.00,VWS V14.01,2013-10-15 17:28:00,
2013-10-15 13:29:00,71.8,63.1,29.99,NE,49,0.0,10.0,74,0.00,,---,0.00,VWS V14.01,2013-10-15 17:29:00,
2013-10-15 13:30:00,71.6,62.9,29.99,NNE,23,1.0,10.0,74,0.00,,---,0.00,VWS V14.01,2013-10-15 17:30:00,
2013-10-15 13:31:00,71.6,62.5,29.99,East,92,0.0,1.0,73,0.00,,---,0.00,VWS V14.01,2013-10-15 17:31:00,
2013-10-15 13:32:00,71.6,62.9,29.99,NNE,24,3.0,3.0,74,0.00,,---,0.00,VWS V14.01,2013-10-15 17:32:00,
2013-10-15 13:33:00,71.6,62.9,29.99,NE,34,6.0,6.0,74,0.00,,---,0.00,VWS V14.01,2013-10-15 17:33:00,
2013-10-15 13:34:00,71.6,62.5,29.99,NNE,27,0.0,6.0,73,0.00,,---,0.00,VWS V14.01,2013-10-15 17:34:00,
2013-10-15 13:35:00,71.6,62.5,29.99,NNE,27,0.0,6.0,73,0.00,,---,0.00,VWS V14.01,2013-10-15 17:35:00,
2013-10-15 13:36:00,71.6,62.9,29.99,East,83,0.0,6.0,74,0.00,,---,0.00,VWS V14.01,2013-10-15 17:36:00,
2013-10-15 13:37:00,71.6,62.9,29.99,North,8,0.0,6.0,74,0.00,,---,0.00,VWS V14.01,2013-10-15 17:37:00,
2013-10-15 13:38:00,71.6,62.9,29.99,NE,51,2.0,6.0,74,0.00,,---,0.00,VWS V14.01,2013-10-15 17:38:00,
2013-10-15 13:39:00,71.6,63.3,29.99,NE,42,0.0,6.0,75,0.00,,---,0.00,VWS V14.01,2013-10-15 17:39:00,
2013-10-15 13:40:00,71.8,63.1,29.99,NE,42,0.0,6.0,74,0.00,,---,0.00,VWS V14.01,2013-10-15 17:40:00,
2013-10-15 13:41:00,71.8,63.5,29.99,NE,47,0.0,0.0,75,0.00,,---,0.00,VWS V14.01,2013-10-15 17:41:00,
2013-10-15 13:42:00,71.8,63.5,29.99,NE,47,0.0,0.0,75,0.00,,---,0.00,VWS V14.01,2013-10-15 17:42:00,
2013-10-15 13:43:00,71.8,63.5,29.99,NE,47,0.0,0.0,75,0.00,,---,0.00,VWS V14.01,2013-10-15 17:43:00,
2013-10-15 13:44:00,71.8,63.5,29.99,NE,47,0.0,0.0,75,0.00,,---,0.00,VWS V14.01,2013-10-15 17:44:00,
2013-10-15 13:45:00,71.8,63.5,29.98,NE,47,0.0,0.0,75,0.00,,---,0.00,VWS V14.01,2013-10-15 17:45:00,
2013-10-15 13:46:00,71.8,63.8,29.98,North,0,0.0,2.0,76,0.00,,---,0.00,VWS V14.01,2013-10-15 17:46:00,
2013-10-15 13:47:00,71.8,63.5,29.98,NNE,28,1.0,6.0,75,0.00,,---,0.00,VWS V14.01,2013-10-15 17:47:00,
2013-10-15 13:48:00,71.8,63.1,29.98,NNE,28,0.0,6.0,74,0.00,,---,0.00,VWS V14.01,2013-10-15 17:48:00,
2013-10-15 13:49:00,71.8,63.1,29.98,ENE,76,2.0,6.0,74,0.00,,---,0.00,VWS V14.01,2013-10-15 17:49:00,
2013-10-15 13:50:00,71.8,63.1,29.98,NE,55,0.0,6.0,74,0.00,,---,0.00,VWS V14.01,2013-10-15 17:50:00,
2013-10-15 13:51:00,72.0,63.7,29.98,NE,56,0.0,0.0,75,0.00,,---,0.00,VWS V14.01,2013-10-15 17:51:00,
2013-10-15 13:52:00,72.0,63.7,29.98,NNE,25,0.0,3.0,75,0.00,,---,0.00,VWS V14.01,2013-10-15 17:52:00,
2013-10-15 13:53:00,72.0,63.7,29.98,NNE,25,0.0,3.0,75,0.00,,---,0.00,VWS V14.01,2013-10-15 17:53:00,
2013-10-15 13:54:00,71.8,63.5,29.98,North,11,2.0,3.0,75,0.00,,---,0.00,VWS V14.01,2013-10-15 17:54:00,
2013-10-15 13:55:00,71.8,63.5,29.98,NE,44,2.0,4.0,75,0.00,,---,0.00,VWS V14.01,2013-10-15 17:55:00,
2013-10-15 13:56:00,71.8,63.5,29.98,ENE,65,8.0,9.0,75,0.00,,---,0.00,VWS V14.01,2013-10-15 17:56:00,
2013-10-15 13:57:00,71.8,63.5,29.98,ENE,75,2.0,9.0,75,0.00,,---,0.00,VWS V14.01,2013-10-15 17:57:00,
2013-10-15 13:58:00,71.8,63.5,29.98,SE,133,1.0,9.0,75,0.00,,---,0.00,VWS V14.01,2013-10-15 17:58:00,
2013-10-15 13:59:00,71.8,63.1,29.98,NE,54,1.0,9.0,74,0.00,,---,0.00,VWS V14.01,2013-10-15 17:59:00,
2013-10-15 14:00:00,71.8,63.5,29.99,ENE,61,0.0,9.0,75,0.00,,---,0.00,VWS V14.01,2013-10-15 18:00:00,
2013-10-15 14:01:00,72.0,63.7,29.99,SE,140,0.0,2.0,75,0.00,,---,0.00,VWS V14.01,2013-10-15 18:01:00,
2013-10-15 14:02:00,72.0,63.3,29.99,SE,140,0.0,2.0,74,0.00,,---,0.00,VWS V14.01,2013-10-15 18:02:00,
2013-10-15 14:03:00,72.0,63.3,29.99,SE,140,0.0,2.0,74,0.00,,---,0.00,VWS V14.01,2013-10-15 18:03:00,
2013-10-15 14:04:00,72.0,63.7,29.99,SE,140,0.0,2.0,75,0.00,,---,0.00,VWS V14.01,2013-10-15 18:04:00,
2013-10-15 14:05:00,72.0,63.7,29.99,SE,140,0.0,2.0,75,0.00,,---,0.00,VWS V14.01,2013-10-15 18:05:00,
2013-10-15 14:06:00,72.0,64.0,29.99,SE,133,0.0,2.0,76,0.00,,---,0.00,VWS V14.01,2013-10-15 18:06:00,
2013-10-15 14:07:00,72.0,64.0,29.99,NE,37,5.0,6.0,76,0.00,,---,0.00,VWS V14.01,2013-10-15 18:07:00,
2013-10-15 14:08:00,72.0,63.7,29.99,NE,55,2.0,6.0,75,0.00,,---,0.00,VWS V14.01,2013-10-15 18:08:00,
2013-10-15 14:09:00,72.0,63.7,29.99,NE,34,0.0,6.0,75,0.00,,---,0.00,VWS V14.01,2013-10-15 18:09:00,
2013-10-15 14:10:00,72.0,63.7,29.99,NE,38,2.0,6.0,75,0.00,,---,0.00,VWS V14.01,2013-10-15 18:10:00,
2013-10-15 14:11:00,72.0,63.7,29.99,NE,38,0.0,5.0,75,0.00,,---,0.00,VWS V14.01,2013-10-15 18:11:00,
2013-10-15 14:12:00,72.0,63.7,29.99,ENE,62,0.0,5.0,75,0.00,,---,0.00,VWS V14.01,2013-10-15 18:12:00,
2013-10-15 14:13:00,72.0,63.7,29.99,SE,124,9.0,9.0,75,0.00,,---,0.00,VWS V14.01,2013-10-15 18:13:00,
2013-10-15 14:14:00,72.0,63.7,29.99,NNE,28,3.0,9.0,75,0.00,,---,0.00,VWS V14.01,2013-10-15 18:14:00,
2013-10-15 14:15:00,72.0,63.7,29.98,NE,41,6.0,9.0,75,0.00,,---,0.00,VWS V14.01,2013-10-15 18:15:00,
2013-10-15 14:16:00,72.0,63.3,29.98,NNE,23,5.0,9.0,74,0.00,,---,0.00,VWS V14.01,2013-10-15 18:16:00,
2013-10-15 14:17:00,72.0,63.3,29.98,NE,52,0.0,9.0,74,0.00,,---,0.00,VWS V14.01,2013-10-15 18:17:00,
2013-10-15 14:18:00,72.0,63.3,29.98,NE,52,0.0,9.0,74,0.00,,---,0.00,VWS V14.01,2013-10-15 18:18:00,
2013-10-15 14:19:00,72.0,63.3,29.98,NE,44,0.0,9.0,74,0.00,,---,0.00,VWS V14.01,2013-10-15 18:19:00,
2013-10-15 14:20:00,72.0,63.3,29.98,NE,54,1.0,9.0,74,0.00,,---,0.00,VWS V14.01,2013-10-15 18:20:00,
2013-10-15 14:21:00,72.0,63.3,29.98,NE,54,0.0,1.0,74,0.00,,---,0.00,VWS V14.01,2013-10-15 18:21:00,
2013-10-15 14:22:00,72.1,64.1,29.98,NE,54,2.0,2.0,76,0.00,,---,0.00,VWS V14.01,2013-10-15 18:22:00,
2013-10-15 14:23:00,72.1,63.8,29.98,NE,47,4.0,4.0,75,0.00,,---,0.00,VWS V14.01,2013-10-15 18:23:00,
2013-10-15 14:24:00,72.1,63.4,29.98,North,7,2.0,5.0,74,0.00,,---,0.00,VWS V14.01,2013-10-15 18:24:00,
2013-10-15 14:25:00,72.1,63.4,29.98,NE,56,2.0,5.0,74,0.00,,---,0.00,VWS V14.01,2013-10-15 18:25:00,
2013-10-15 14:26:00,72.1,63.4,29.98,NNE,30,6.0,6.0,74,0.00,,---,0.00,VWS V14.01,2013-10-15 18:26:00,
2013-10-15 14:27:00,72.1,63.4,29.98,ENE,69,0.0,6.0,74,0.00,,---,0.00,VWS V14.01,2013-10-15 18:27:00,
2013-10-15 14:28:00,72.1,63.4,29.98,ENE,69,0.0,6.0,74,0.00,,---,0.00,VWS V14.01,2013-10-15 18:28:00,
2013-10-15 14:29:00,72.1,63.8,29.98,ENE,69,0.0,6.0,75,0.00,,---,0.00,VWS V14.01,2013-10-15 18:29:00,
2013-10-15 14:30:00,72.1,64.1,29.98,ENE,69,0.0,6.0,76,0.00,,---,0.00,VWS V14.01,2013-10-15 18:30:00,
2013-10-15 14:31:00,72.1,63.8,29.98,NNE,18,0.0,2.0,75,0.00,,---,0.00,VWS V14.01,2013-10-15 18:31:00,
2013-10-15 14:32:00,72.1,63.8,29.98,NNE,21,4.0,4.0,75,0.00,,---,0.00,VWS V14.01,2013-10-15 18:32:00,
2013-10-15 14:33:00,72.1,63.8,29.98,NNE,21,4.0,4.0,75,0.00,,---,0.00,VWS V14.01,2013-10-15 18:33:00,
2013-10-15 14:34:00,72.3,63.9,29.98,NE,52,3.0,6.0,75,0.00,,---,0.00,VWS V14.01,2013-10-15 18:34:00,
2013-10-15 14:35:00,72.3,63.6,29.98,NE,42,0.0,6.0,74,0.00,,---,0.00,VWS V14.01,2013-10-15 18:35:00,
2013-10-15 14:36:00,72.3,63.6,29.98,NE,48,1.0,6.0,74,0.00,,---,0.00,VWS V14.01,2013-10-15 18:36:00,
2013-10-15 14:37:00,72.3,63.6,29.98,NNE,30,2.0,6.0,74,0.00,,---,0.00,VWS V14.01,2013-10-15 18:37:00,
2013-10-15 14:38:00,72.3,63.6,29.98,NNE,30,3.0,6.0,74,0.00,,---,0.00,VWS V14.01,2013-10-15 18:38:00,
2013-10-15 14:39:00,72.3,63.6,29.98,NNE,30,0.0,6.0,74,0.00,,---,0.00,VWS V14.01,2013-10-15 18:39:00,
2013-10-15 14:40:00,72.3,63.6,29.98,North,10,2.0,6.0,74,0.00,,---,0.00,VWS V14.01,2013-10-15 18:40:00,
2013-10-15 14:41:00,72.3,63.6,29.98,NNE,28,0.0,5.0,74,0.00,,---,0.00,VWS V14.01,2013-10-15 18:41:00,
2013-10-15 14:42:00,72.1,63.4,29.98,NE,41,1.0,5.0,74,0.00,,---,0.00,VWS V14.01,2013-10-15 18:42:00,
2013-10-15 14:43:00,72.1,63.4,29.98,NE,38,3.0,5.0,74,0.00,,---,0.00,VWS V14.01,2013-10-15 18:43:00,
2013-10-15 14:44:00,72.1,63.4,29.98,NE,40,0.0,5.0,74,0.00,,---,0.00,VWS V14.01,2013-10-15 18:44:00,
2013-10-15 14:45:00,72.1,63.4,29.97,ENE,65,5.0,5.0,74,0.00,,---,0.00,VWS V14.01,2013-10-15 18:45:00,
2013-10-15 14:46:00,72.1,63.8,29.97,NNE,31,2.0,5.0,75,0.00,,---,0.00,VWS V14.01,2013-10-15 18:46:00,
2013-10-15 14:47:00,72.1,63.4,29.97,NNE,20,1.0,5.0,74,0.00,,---,0.00,VWS V14.01,2013-10-15 18:47:00,
2013-10-15 14:48:00,72.1,63.4,29.97,NNE,17,3.0,7.0,74,0.00,,---,0.00,VWS V14.01,2013-10-15 18:48:00,
2013-10-15 14:49:00,72.0,63.7,29.97,NNE,20,2.0,7.0,75,0.00,,---,0.00,VWS V14.01,2013-10-15 18:49:00,
2013-10-15 14:50:00,72.0,63.3,29.97,NNE,28,4.0,7.0,74,0.00,,---,0.00,VWS V14.01,2013-10-15 18:50:00,
2013-10-15 14:51:00,72.0,63.7,29.97,NNE,30,0.0,4.0,75,0.00,,---,0.00,VWS V14.01,2013-10-15 18:51:00,
2013-10-15 14:52:00,72.0,63.3,29.97,North,0,2.0,4.0,74,0.00,,---,0.00,VWS V14.01,2013-10-15 18:52:00,
2013-10-15 14:53:00,72.0,63.3,29.97,North,3,0.0,5.0,74,0.00,,---,0.00,VWS V14.01,2013-10-15 18:53:00,
2013-10-15 14:54:00,72.0,63.7,29.97,NNE,25,1.0,5.0,75,0.00,,---,0.00,VWS V14.01,2013-10-15 18:54:00,
2013-10-15 14:55:00,72.0,63.3,29.97,NE,40,3.0,5.0,74,0.00,,---,0.00,VWS V14.01,2013-10-15 18:55:00,
2013-10-15 14:56:00,72.0,63.3,29.97,NE,54,0.0,5.0,74,0.00,,---,0.00,VWS V14.01,2013-10-15 18:56:00,
2013-10-15 14:57:00,72.0,63.7,29.97,NE,54,0.0,5.0,75,0.00,,---,0.00,VWS V14.01,2013-10-15 18:57:00,
2013-10-15 14:58:00,72.0,63.7,29.97,NE,37,0.0,5.0,75,0.00,,---,0.00,VWS V14.01,2013-10-15 18:58:00,
2013-10-15 14:59:00,72.0,63.7,29.97,NNE,28,0.0,5.0,75,0.00,,---,0.00,VWS V14.01,2013-10-15 18:59:00,
2013-10-15 15:00:00,72.0,63.7,29.97,NNE,28,0.0,5.0,75,0.00,,---,0.00,VWS V14.01,2013-10-15 19:00:00,
2013-10-15 15:01:00,72.0,63.7,29.97,NNE,28,0.0,0.0,75,0.00,,---,0.00,VWS V14.01,2013-10-15 19:01:00,
2013-10-15 15:02:00,72.0,63.7,29.97,NNE,28,0.0,0.0,75,0.00,,---,0.00,VWS V14.01,2013-10-15 19:02:00,
2013-10-15 15:03:00,72.0,64.0,29.97,North,10,2.0,2.0,76,0.00,,---,0.00,VWS V14.01,2013-10-15 19:03:00,
2013-10-15 15:04:00,72.0,64.0,29.97,NNE,25,2.0,4.0,76,0.00,,---,0.00,VWS V14.01,2013-10-15 19:04:00,
2013-10-15 15:05:00,72.0,64.0,29.97,NNE,18,0.0,4.0,76,0.00,,---,0.00,VWS V14.01,2013-10-15 19:05:00,
2013-10-15 15:06:00,72.0,64.0,29.97,NNE,21,0.0,4.0,76,0.00,,---,0.00,VWS V14.01,2013-10-15 19:06:00,
2013-10-15 15:07:00,72.0,64.0,29.97,NNE,21,0.0,4.0,76,0.00,,---,0.00,VWS V14.01,2013-10-15 19:07:00,
2013-10-15 15:08:00,72.0,64.0,29.97,ENE,66,0.0,4.0,76,0.00,,---,0.00,VWS V14.01,2013-10-15 19:08:00,
2013-10-15 15:09:00,72.0,64.0,29.97,ENE,66,0.0,4.0,76,0.00,,---,0.00,VWS V14.01,2013-10-15 19:09:00,
2013-10-15 15:10:00,72.0,64.0,29.97,NNE,21,0.0,4.0,76,0.00,,---,0.00,VWS V14.01,2013-10-15 19:10:00,
2013-10-15 15:11:00,72.0,64.0,29.97,NNE,21,0.0,0.0,76,0.00,,---,0.00,VWS V14.01,2013-10-15 19:11:00,
2013-10-15 15:12:00,72.0,64.0,29.97,NNE,17,1.0,1.0,76,0.00,,---,0.00,VWS V14.01,2013-10-15 19:12:00,
2013-10-15 15:13:00,72.0,64.0,29.97,NNE,17,0.0,1.0,76,0.00,,---,0.00,VWS V14.01,2013-10-15 19:13:00,
2013-10-15 15:14:00,72.0,64.4,29.97,NNE,17,0.0,1.0,77,0.00,,---,0.00,VWS V14.01,2013-10-15 19:14:00,
2013-10-15 15:15:00,72.0,64.0,29.97,NNE,17,0.0,1.0,76,0.00,,---,0.00,VWS V14.01,2013-10-15 19:15:00,
2013-10-15 15:16:00,72.0,64.0,29.97,NNE,16,2.0,5.0,76,0.00,,---,0.00,VWS V14.01,2013-10-15 19:16:00,
2013-10-15 15:17:00,72.0,64.0,29.97,NNE,25,3.0,6.0,76,0.00,,---,0.00,VWS V14.01,2013-10-15 19:17:00,
2013-10-15 15:18:00,72.0,63.7,29.97,NNE,17,1.0,6.0,75,0.00,,---,0.00,VWS V14.01,2013-10-15 19:18:00,
2013-10-15 15:19:00,72.0,63.7,29.97,NE,55,5.0,6.0,75,0.00,,---,0.00,VWS V14.01,2013-10-15 19:19:00,
2013-10-15 15:20:00,71.8,63.5,29.97,ENE,61,2.0,6.0,75,0.00,,---,0.00,VWS V14.01,2013-10-15 19:20:00,
2013-10-15 15:21:00,71.8,63.5,29.97,ENE,61,0.0,3.0,75,0.00,,---,0.00,VWS V14.01,2013-10-15 19:21:00,
2013-10-15 15:22:00,71.8,63.5,29.97,ENE,66,3.0,4.0,75,0.00,,---,0.00,VWS V14.01,2013-10-15 19:22:00,
2013-10-15 15:23:00,71.8,63.8,29.97,NNE,24,5.0,7.0,76,0.00,,---,0.00,VWS V14.01,2013-10-15 19:23:00,
2013-10-15 15:24:00,71.8,63.8,29.97,NE,41,2.0,7.0,76,0.00,,---,0.00,VWS V14.01,2013-10-15 19:24:00,
2013-10-15 15:25:00,71.8,63.5,29.97,NNE,31,2.0,7.0,75,0.00,,---,0.00,VWS V14.01,2013-10-15 19:25:00,
2013-10-15 15:26:00,71.8,63.5,29.97,NNE,28,0.0,7.0,75,0.00,,---,0.00,VWS V14.01,2013-10-15 19:26:00,
2013-10-15 15:27:00,71.8,63.5,29.97,NNE,28,0.0,7.0,75,0.00,,---,0.00,VWS V14.01,2013-10-15 19:27:00,
2013-10-15 15:28:00,71.8,63.8,29.97,North,3,0.0,7.0,76,0.00,,---,0.00,VWS V14.01,2013-10-15 19:28:00,
2013-10-15 15:29:00,71.8,63.8,29.97,North,10,1.0,7.0,76,0.00,,---,0.00,VWS V14.01,2013-10-15 19:29:00,
2013-10-15 15:30:00,71.6,63.6,29.96,NNE,16,0.0,7.0,76,0.00,,---,0.00,VWS V14.01,2013-10-15 19:30:00,
2013-10-15 15:31:00,71.6,63.6,29.96,NNE,28,5.0,5.0,76,0.00,,---,0.00,VWS V14.01,2013-10-15 19:31:00,
2013-10-15 15:32:00,71.6,63.6,29.96,East,88,0.0,5.0,76,0.00,,---,0.00,VWS V14.01,2013-10-15 19:32:00,
2013-10-15 15:33:00,71.6,63.6,29.96,SSE,151,0.0,5.0,76,0.00,,---,0.00,VWS V14.01,2013-10-15 19:33:00,
2013-10-15 15:34:00,71.6,63.6,29.96,SSE,151,0.0,5.0,76,0.00,,---,0.00,VWS V14.01,2013-10-15 19:34:00,
2013-10-15 15:35:00,71.6,63.6,29.96,East,85,0.0,5.0,76,0.00,,---,0.00,VWS V14.01,2013-10-15 19:35:00,
2013-10-15 15:36:00,71.6,64.0,29.96,ENE,76,0.0,5.0,77,0.00,,---,0.00,VWS V14.01,2013-10-15 19:36:00,
2013-10-15 15:37:00,71.5,63.9,29.96,ENE,76,0.0,5.0,77,0.00,,---,0.00,VWS V14.01,2013-10-15 19:37:00,
2013-10-15 15:38:00,71.5,64.3,29.96,ENE,76,0.0,5.0,78,0.00,,---,0.00,VWS V14.01,2013-10-15 19:38:00,
2013-10-15 15:39:00,71.5,64.3,29.96,ENE,76,0.0,5.0,78,0.00,,---,0.00,VWS V14.01,2013-10-15 19:39:00,
2013-10-15 15:40:00,71.5,63.9,29.96,ENE,76,0.0,5.0,77,0.00,,---,0.00,VWS V14.01,2013-10-15 19:40:00,
2013-10-15 15:41:00,71.5,63.9,29.96,ENE,76,0.0,0.0,77,0.00,,---,0.00,VWS V14.01,2013-10-15 19:41:00,
2013-10-15 15:42:00,71.5,63.9,29.96,NNE,18,1.0,3.0,77,0.00,,---,0.00,VWS V14.01,2013-10-15 19:42:00,
2013-10-15 15:43:00,71.5,63.9,29.96,NNE,30,0.0,3.0,77,0.00,,---,0.00,VWS V14.01,2013-10-15 19:43:00,
2013-10-15 15:44:00,71.3,63.7,29.96,NNE,30,0.0,3.0,77,0.00,,---,0.00,VWS V14.01,2013-10-15 19:44:00,
2013-10-15 15:45:00,71.3,63.7,29.97,NNE,30,0.0,3.0,77,0.00,,---,0.00,VWS V14.01,2013-10-15 19:45:00,
2013-10-15 15:46:00,71.3,64.1,29.97,NE,44,2.0,3.0,78,0.00,,---,0.00,VWS V14.01,2013-10-15 19:46:00,
2013-10-15 15:47:00,71.3,64.1,29.97,NE,47,0.0,3.0,78,0.00,,---,0.00,VWS V14.01,2013-10-15 19:47:00,
2013-10-15 15:48:00,71.3,64.1,29.97,NE,47,0.0,3.0,78,0.00,,---,0.00,VWS V14.01,2013-10-15 19:48:00,
2013-10-15 15:49:00,71.3,64.1,29.97,NE,47,0.0,3.0,78,0.00,,---,0.00,VWS V14.01,2013-10-15 19:49:00,
2013-10-15 15:50:00,71.3,64.1,29.97,NE,45,2.0,3.0,78,0.00,,---,0.00,VWS V14.01,2013-10-15 19:50:00,
2013-10-15 15:51:00,71.3,64.1,29.97,NE,44,0.0,3.0,78,0.00,,---,0.00,VWS V14.01,2013-10-15 19:51:00,
2013-10-15 15:52:00,71.3,64.1,29.97,North,6,0.0,3.0,78,0.00,,---,0.00,VWS V14.01,2013-10-15 19:52:00,
2013-10-15 15:53:00,71.3,64.1,29.97,North,6,0.0,3.0,78,0.00,,---,0.00,VWS V14.01,2013-10-15 19:53:00,
2013-10-15 15:54:00,71.3,64.1,29.97,North,8,1.0,3.0,78,0.00,,---,0.00,VWS V14.01,2013-10-15 19:54:00,
2013-10-15 15:55:00,71.3,64.1,29.97,North,8,2.0,7.0,78,0.00,,---,0.00,VWS V14.01,2013-10-15 19:55:00,
2013-10-15 15:56:00,71.3,63.7,29.97,NNE,27,2.0,7.0,77,0.00,,---,0.00,VWS V14.01,2013-10-15 19:56:00,
2013-10-15 15:57:00,71.3,63.7,29.97,NNE,27,1.0,7.0,77,0.00,,---,0.00,VWS V14.01,2013-10-15 19:57:00,
2013-10-15 15:58:00,71.3,64.1,29.97,North,11,0.0,7.0,78,0.00,,---,0.00,VWS V14.01,2013-10-15 19:58:00,
2013-10-15 15:59:00,71.1,63.9,29.97,North,11,0.0,7.0,78,0.00,,---,0.00,VWS V14.01,2013-10-15 19:59:00,
2013-10-15 16:00:00,71.1,63.5,29.96,NE,45,2.0,7.0,77,0.00,,---,0.00,VWS V14.01,2013-10-15 20:00:00,
2013-10-15 16:01:00,71.1,63.9,29.96,NE,49,1.0,3.0,78,0.00,,---,0.00,VWS V14.01,2013-10-15 20:01:00,
2013-10-15 16:02:00,71.1,63.9,29.96,NE,49,0.0,3.0,78,0.00,,---,0.00,VWS V14.01,2013-10-15 20:02:00,
2013-10-15 16:03:00,71.1,63.9,29.96,NE,49,0.0,3.0,78,0.00,,---,0.00,VWS V14.01,2013-10-15 20:03:00,
2013-10-15 16:04:00,71.1,63.9,29.96,NE,55,2.0,3.0,78,0.00,,---,0.00,VWS V14.01,2013-10-15 20:04:00,
2013-10-15 16:05:00,71.1,63.9,29.96,NE,55,0.0,3.0,78,0.00,,---,0.00,VWS V14.01,2013-10-15 20:05:00,
2013-10-15 16:06:00,71.1,63.9,29.96,NE,55,0.0,3.0,78,0.00,,---,0.00,VWS V14.01,2013-10-15 20:06:00,
2013-10-15 16:07:00,71.1,63.9,29.96,NE,55,0.0,3.0,78,0.00,,---,0.00,VWS V14.01,2013-10-15 20:07:00,
2013-10-15 16:08:00,71.1,64.3,29.96,NNE,17,0.0,6.0,79,0.00,,---,0.00,VWS V14.01,2013-10-15 20:08:00,
2013-10-15 16:09:00,71.1,64.3,29.96,NNE,18,2.0,6.0,79,0.00,,---,0.00,VWS V14.01,2013-10-15 20:09:00,
2013-10-15 16:10:00,71.1,63.9,29.96,NNE,18,0.0,6.0,78,0.00,,---,0.00,VWS V14.01,2013-10-15 20:10:00,
2013-10-15 16:11:00,71.1,63.9,29.96,NNE,30,2.0,2.0,78,0.00,,---,0.00,VWS V14.01,2013-10-15 20:11:00,
2013-10-15 16:12:00,71.1,63.9,29.96,NE,56,0.0,5.0,78,0.00,,---,0.00,VWS V14.01,2013-10-15 20:12:00,
2013-10-15 16:13:00,71.1,63.9,29.96,NE,55,0.0,5.0,78,0.00,,---,0.00,VWS V14.01,2013-10-15 20:13:00,
2013-10-15 16:14:00,71.1,63.9,29.96,NE,55,0.0,5.0,78,0.00,,---,0.00,VWS V14.01,2013-10-15 20:14:00,
2013-10-15 16:15:00,71.1,63.9,29.96,NE,55,0.0,5.0,78,0.00,,---,0.00,VWS V14.01,2013-10-15 20:15:00,
2013-10-15 16:16:00,71.1,63.9,29.96,NNE,18,0.0,5.0,78,0.00,,---,0.00,VWS V14.01,2013-10-15 20:16:00,
2013-10-15 16:17:00,70.9,63.7,29.96,NNE,18,0.0,5.0,78,0.00,,---,0.00,VWS V14.01,2013-10-15 20:17:00,
2013-10-15 16:18:00,70.9,63.7,29.96,NNE,18,0.0,5.0,78,0.00,,---,0.00,VWS V14.01,2013-10-15 20:18:00,
2013-10-15 16:19:00,70.9,63.7,29.96,ENE,73,1.0,6.0,78,0.00,,---,0.00,VWS V14.01,2013-10-15 20:19:00,
2013-10-15 16:20:00,70.9,63.7,29.96,NE,44,0.0,6.0,78,0.00,,---,0.00,VWS V14.01,2013-10-15 20:20:00,
2013-10-15 16:21:00,70.9,63.7,29.96,NE,44,0.0,0.0,78,0.00,,---,0.00,VWS V14.01,2013-10-15 20:21:00,
2013-10-15 16:22:00,70.9,63.7,29.96,NE,38,3.0,4.0,78,0.00,,---,0.00,VWS V14.01,2013-10-15 20:22:00,
2013-10-15 16:23:00,70.9,63.7,29.96,ENE,66,0.0,4.0,78,0.00,,---,0.00,VWS V14.01,2013-10-15 20:23:00,
2013-10-15 16:24:00,70.9,64.1,29.96,ENE,66,0.0,4.0,79,0.00,,---,0.00,VWS V14.01,2013-10-15 20:24:00,
2013-10-15 16:25:00,70.9,64.1,29.96,ENE,66,0.0,4.0,79,0.00,,---,0.00,VWS V14.01,2013-10-15 20:25:00,
2013-10-15 16:26:00,70.9,64.1,29.96,ENE,66,0.0,4.0,79,0.00,,---,0.00,VWS V14.01,2013-10-15 20:26:00,
2013-10-15 16:27:00,70.9,64.1,29.96,West,280,0.0,4.0,79,0.00,,---,0.00,VWS V14.01,2013-10-15 20:27:00,
2013-10-15 16:28:00,70.9,64.1,29.96,North,8,0.0,4.0,79,0.00,,---,0.00,VWS V14.01,2013-10-15 20:28:00,
2013-10-15 16:29:00,70.8,64.0,29.96,North,8,0.0,4.0,79,0.00,,---,0.00,VWS V14.01,2013-10-15 20:29:00,
2013-10-15 16:30:00,70.8,64.0,29.96,North,8,0.0,4.0,79,0.00,,---,0.00,VWS V14.01,2013-10-15 20:30:00,
2013-10-15 16:31:00,70.8,64.0,29.96,North,8,0.0,0.0,79,0.00,,---,0.00,VWS V14.01,2013-10-15 20:31:00,
2013-10-15 16:32:00,70.8,64.3,29.96,North,8,0.0,0.0,80,0.00,,---,0.00,VWS V14.01,2013-10-15 20:32:00,
2013-10-15 16:33:00,70.8,64.0,29.96,North,8,0.0,0.0,79,0.00,,---,0.00,VWS V14.01,2013-10-15 20:33:00,
2013-10-15 16:34:00,70.8,64.0,29.96,North,8,0.0,0.0,79,0.00,,---,0.00,VWS V14.01,2013-10-15 20:34:00,
2013-10-15 16:35:00,70.8,64.0,29.96,North,8,0.0,0.0,79,0.00,,---,0.00,VWS V14.01,2013-10-15 20:35:00,
2013-10-15 16:36:00,70.8,64.3,29.96,North,8,0.0,0.0,80,0.00,,---,0.00,VWS V14.01,2013-10-15 20:36:00,
2013-10-15 16:37:00,70.8,64.3,29.96,North,8,0.0,0.0,80,0.00,,---,0.00,VWS V14.01,2013-10-15 20:37:00,
2013-10-15 16:38:00,70.8,64.3,29.96,North,8,0.0,0.0,80,0.00,,---,0.00,VWS V14.01,2013-10-15 20:38:00,
2013-10-15 16:39:00,70.6,64.1,29.96,NNE,14,0.0,0.0,80,0.00,,---,0.00,VWS V14.01,2013-10-15 20:39:00,
2013-10-15 16:40:00,70.6,64.1,29.96,NNE,14,0.0,0.0,80,0.00,,---,0.00,VWS V14.01,2013-10-15 20:40:00,
2013-10-15 16:41:00,70.6,64.1,29.96,NNE,14,0.0,0.0,80,0.00,,---,0.00,VWS V14.01,2013-10-15 20:41:00,
2013-10-15 16:42:00,70.6,64.1,29.96,NNE,14,0.0,0.0,80,0.00,,---,0.00,VWS V14.01,2013-10-15 20:42:00,
2013-10-15 16:43:00,70.6,64.5,29.96,NNE,14,0.0,0.0,81,0.00,,---,0.00,VWS V14.01,2013-10-15 20:43:00,
2013-10-15 16:44:00,70.6,64.5,29.96,NNE,14,0.0,0.0,81,0.00,,---,0.00,VWS V14.01,2013-10-15 20:44:00,
2013-10-15 16:45:00,70.6,64.5,29.96,NNE,14,0.0,0.0,81,0.00,,---,0.00,VWS V14.01,2013-10-15 20:45:00,
2013-10-15 16:46:00,70.6,64.5,29.96,NNE,14,0.0,0.0,81,0.00,,---,0.00,VWS V14.01,2013-10-15 20:46:00,
2013-10-15 16:47:00,70.6,64.5,29.96,NNE,14,0.0,0.0,81,0.00,,---,0.00,VWS V14.01,2013-10-15 20:47:00,
2013-10-15 16:48:00,70.6,64.5,29.96,NNE,14,0.0,0.0,81,0.00,,---,0.00,VWS V14.01,2013-10-15 20:48:00,
2013-10-15 16:49:00,70.6,64.5,29.96,NNE,14,0.0,0.0,81,0.00,,---,0.00,VWS V14.01,2013-10-15 20:49:00,
2013-10-15 16:50:00,70.6,64.5,29.96,NNE,14,0.0,0.0,81,0.00,,---,0.00,VWS V14.01,2013-10-15 20:50:00,
2013-10-15 16:51:00,70.6,64.5,29.96,NNE,14,0.0,0.0,81,0.00,,---,0.00,VWS V14.01,2013-10-15 20:51:00,
2013-10-15 16:52:00,70.4,64.3,29.96,NNE,14,0.0,0.0,81,0.00,,---,0.00,VWS V14.01,2013-10-15 20:52:00,
2013-10-15 16:53:00,70.4,63.9,29.96,NNE,14,0.0,0.0,80,0.00,,---,0.00,VWS V14.01,2013-10-15 20:53:00,
2013-10-15 16:54:00,70.4,63.9,29.96,NNE,14,0.0,0.0,80,0.00,,---,0.00,VWS V14.01,2013-10-15 20:54:00,
2013-10-15 16:55:00,70.4,63.9,29.96,NNE,14,0.0,0.0,80,0.00,,---,0.00,VWS V14.01,2013-10-15 20:55:00,
2013-10-15 16:56:00,70.4,63.9,29.96,NNE,14,0.0,0.0,80,0.00,,---,0.00,VWS V14.01,2013-10-15 20:56:00,
2013-10-15 16:57:00,70.4,64.3,29.96,North,0,4.0,4.0,81,0.00,,---,0.00,VWS V14.01,2013-10-15 20:57:00,
2013-10-15 16:58:00,70.4,64.3,29.96,NNE,28,0.0,4.0,81,0.00,,---,0.00,VWS V14.01,2013-10-15 20:58:00,
2013-10-15 16:59:00,70.4,64.3,29.96,NNE,28,0.0,4.0,81,0.00,,---,0.00,VWS V14.01,2013-10-15 20:59:00,
2013-10-15 17:00:00,70.4,63.9,29.96,NNE,28,0.0,4.0,80,0.00,,---,0.00,VWS V14.01,2013-10-15 21:00:00,
2013-10-15 17:01:00,70.3,63.8,29.96,NNE,21,1.0,1.0,80,0.00,,---,0.00,VWS V14.01,2013-10-15 21:01:00,
2013-10-15 17:02:00,70.3,63.8,29.96,NNE,25,0.0,2.0,80,0.00,,---,0.00,VWS V14.01,2013-10-15 21:02:00,
2013-10-15 17:03:00,70.3,63.8,29.96,NNE,25,0.0,2.0,80,0.00,,---,0.00,VWS V14.01,2013-10-15 21:03:00,
2013-10-15 17:04:00,70.3,64.2,29.96,NNE,25,0.0,2.0,81,0.00,,---,0.00,VWS V14.01,2013-10-15 21:04:00,
2013-10-15 17:05:00,70.3,64.2,29.96,NNE,25,0.0,2.0,81,0.00,,---,0.00,VWS V14.01,2013-10-15 21:05:00,
2013-10-15 17:06:00,70.3,64.2,29.96,NNE,25,0.0,2.0,81,0.00,,---,0.00,VWS V14.01,2013-10-15 21:06:00,
2013-10-15 17:07:00,70.3,64.2,29.96,NNE,25,0.0,2.0,81,0.00,,---,0.00,VWS V14.01,2013-10-15 21:07:00,
2013-10-15 17:08:00,70.3,64.2,29.96,NE,38,0.0,4.0,81,0.00,,---,0.00,VWS V14.01,2013-10-15 21:08:00,
2013-10-15 17:09:00,70.3,64.2,29.96,NE,40,0.0,4.0,81,0.00,,---,0.00,VWS V14.01,2013-10-15 21:09:00,
2013-10-15 17:10:00,70.3,64.2,29.96,NE,38,0.0,4.0,81,0.00,,---,0.00,VWS V14.01,2013-10-15 21:10:00,
2013-10-15 17:11:00,70.3,64.2,29.96,NE,35,0.0,2.0,81,0.00,,---,0.00,VWS V14.01,2013-10-15 21:11:00,
2013-10-15 17:12:00,70.1,64.0,29.96,NE,37,0.0,2.0,81,0.00,,---,0.00,VWS V14.01,2013-10-15 21:12:00,
2013-10-15 17:13:00,70.1,64.0,29.96,NE,37,0.0,2.0,81,0.00,,---,0.00,VWS V14.01,2013-10-15 21:13:00,
2013-10-15 17:14:00,70.1,64.4,29.96,NE,35,2.0,5.0,82,0.00,,---,0.00,VWS V14.01,2013-10-15 21:14:00,
2013-10-15 17:15:00,70.1,64.4,29.96,NE,35,0.0,5.0,82,0.00,,---,0.00,VWS V14.01,2013-10-15 21:15:00,
2013-10-15 17:16:00,70.1,64.4,29.96,NE,35,0.0,5.0,82,0.00,,---,0.00,VWS V14.01,2013-10-15 21:16:00,
2013-10-15 17:17:00,70.1,64.0,29.96,NE,35,0.0,5.0,81,0.00,,---,0.00,VWS V14.01,2013-10-15 21:17:00,
2013-10-15 17:18:00,70.1,64.0,29.96,NE,40,0.0,5.0,81,0.00,,---,0.00,VWS V14.01,2013-10-15 21:18:00,
2013-10-15 17:19:00,70.1,64.0,29.96,NE,40,0.0,5.0,81,0.00,,---,0.00,VWS V14.01,2013-10-15 21:19:00,
2013-10-15 17:20:00,70.1,64.0,29.96,NE,40,0.0,5.0,81,0.00,,---,0.00,VWS V14.01,2013-10-15 21:20:00,
2013-10-15 17:21:00,70.1,64.0,29.96,NE,40,0.0,0.0,81,0.00,,---,0.00,VWS V14.01,2013-10-15 21:21:00,
2013-10-15 17:22:00,70.1,64.0,29.96,NE,40,0.0,0.0,81,0.00,,---,0.00,VWS V14.01,2013-10-15 21:22:00,
2013-10-15 17:23:00,70.1,64.0,29.96,NE,40,0.0,0.0,81,0.00,,---,0.00,VWS V14.01,2013-10-15 21:23:00,
2013-10-15 17:24:00,70.1,64.0,29.96,NE,40,0.0,0.0,81,0.00,,---,0.00,VWS V14.01,2013-10-15 21:24:00,
2013-10-15 17:25:00,70.1,64.0,29.96,NE,37,0.0,0.0,81,0.00,,---,0.00,VWS V14.01,2013-10-15 21:25:00,
2013-10-15 17:26:00,70.1,64.0,29.96,NNE,24,3.0,3.0,81,0.00,,---,0.00,VWS V14.01,2013-10-15 21:26:00,
2013-10-15 17:27:00,70.1,64.0,29.96,NNE,24,0.0,3.0,81,0.00,,---,0.00,VWS V14.01,2013-10-15 21:27:00,
2013-10-15 17:28:00,70.1,64.0,29.96,NNE,24,0.0,3.0,81,0.00,,---,0.00,VWS V14.01,2013-10-15 21:28:00,
2013-10-15 17:29:00,70.1,64.4,29.96,NNE,24,0.0,3.0,82,0.00,,---,0.00,VWS V14.01,2013-10-15 21:29:00,
2013-10-15 17:30:00,70.1,64.4,29.96,NNE,24,0.0,3.0,82,0.00,,---,0.00,VWS V14.01,2013-10-15 21:30:00,
2013-10-15 17:31:00,69.9,64.2,29.96,NNE,24,0.0,0.0,82,0.00,,---,0.00,VWS V14.01,2013-10-15 21:31:00,
2013-10-15 17:32:00,69.9,63.8,29.96,NNE,24,0.0,0.0,81,0.00,,---,0.00,VWS V14.01,2013-10-15 21:32:00,
2013-10-15 17:33:00,69.9,63.8,29.96,NNE,24,0.0,0.0,81,0.00,,---,0.00,VWS V14.01,2013-10-15 21:33:00,
2013-10-15 17:34:00,69.9,63.8,29.96,NNE,23,0.0,0.0,81,0.00,,---,0.00,VWS V14.01,2013-10-15 21:34:00,
2013-10-15 17:35:00,69.9,63.8,29.96,NNE,23,0.0,0.0,81,0.00,,---,0.00,VWS V14.01,2013-10-15 21:35:00,
2013-10-15 17:36:00,69.9,63.8,29.96,NNE,23,0.0,0.0,81,0.00,,---,0.00,VWS V14.01,2013-10-15 21:36:00,
2013-10-15 17:37:00,69.9,63.8,29.96,NNE,23,0.0,0.0,81,0.00,,---,0.00,VWS V14.01,2013-10-15 21:37:00,
2013-10-15 17:38:00,69.9,63.8,29.96,NNE,23,0.0,0.0,81,0.00,,---,0.00,VWS V14.01,2013-10-15 21:38:00,
2013-10-15 17:39:00,69.9,63.8,29.96,NNE,23,0.0,0.0,81,0.00,,---,0.00,VWS V14.01,2013-10-15 21:39:00,
2013-10-15 17:40:00,69.9,63.8,29.96,NNE,23,0.0,0.0,81,0.00,,---,0.00,VWS V14.01,2013-10-15 21:40:00,
2013-10-15 17:41:00,69.9,64.2,29.96,NNE,23,0.0,0.0,82,0.00,,---,0.00,VWS V14.01,2013-10-15 21:41:00,
2013-10-15 17:42:00,69.9,64.2,29.96,NNE,23,0.0,0.0,82,0.00,,---,0.00,VWS V14.01,2013-10-15 21:42:00,
2013-10-15 17:43:00,69.9,64.2,29.96,NNE,23,0.0,0.0,82,0.00,,---,0.00,VWS V14.01,2013-10-15 21:43:00,
2013-10-15 17:44:00,69.9,64.2,29.96,NNE,23,0.0,0.0,82,0.00,,---,0.00,VWS V14.01,2013-10-15 21:44:00,
2013-10-15 17:45:00,69.9,64.2,29.97,NNE,23,0.0,0.0,82,0.00,,---,0.00,VWS V14.01,2013-10-15 21:45:00,
2013-10-15 17:46:00,69.9,64.2,29.97,NNE,23,0.0,0.0,82,0.00,,---,0.00,VWS V14.01,2013-10-15 21:46:00,
2013-10-15 17:47:00,69.9,64.2,29.97,NNE,23,0.0,0.0,82,0.00,,---,0.00,VWS V14.01,2013-10-15 21:47:00,
2013-10-15 17:48:00,69.9,64.2,29.97,NNE,23,0.0,0.0,82,0.00,,---,0.00,VWS V14.01,2013-10-15 21:48:00,
2013-10-15 17:49:00,69.8,64.1,29.97,NNE,23,0.0,0.0,82,0.00,,---,0.00,VWS V14.01,2013-10-15 21:49:00,
2013-10-15 17:50:00,69.8,64.1,29.97,NNE,23,0.0,0.0,82,0.00,,---,0.00,VWS V14.01,2013-10-15 21:50:00,
2013-10-15 17:51:00,69.8,64.1,29.97,NNE,23,0.0,0.0,82,0.00,,---,0.00,VWS V14.01,2013-10-15 21:51:00,
2013-10-15 17:52:00,69.8,64.1,29.97,NNE,23,0.0,0.0,82,0.00,,---,0.00,VWS V14.01,2013-10-15 21:52:00,
2013-10-15 17:53:00,69.8,64.1,29.97,NNE,23,0.0,0.0,82,0.00,,---,0.00,VWS V14.01,2013-10-15 21:53:00,
2013-10-15 17:54:00,69.8,64.1,29.97,NNE,23,0.0,0.0,82,0.00,,---,0.00,VWS V14.01,2013-10-15 21:54:00,
2013-10-15 17:55:00,69.8,64.1,29.97,NNE,23,0.0,0.0,82,0.00,,---,0.00,VWS V14.01,2013-10-15 21:55:00,
2013-10-15 17:56:00,69.8,64.1,29.97,NNE,23,0.0,0.0,82,0.00,,---,0.00,VWS V14.01,2013-10-15 21:56:00,
2013-10-15 17:57:00,69.8,64.1,29.97,NNE,23,0.0,0.0,82,0.00,,---,0.00,VWS V14.01,2013-10-15 21:57:00,
2013-10-15 17:58:00,69.8,64.4,29.97,NNE,23,0.0,0.0,83,0.00,,---,0.00,VWS V14.01,2013-10-15 21:58:00,
2013-10-15 17:59:00,69.6,63.9,29.97,NNE,23,0.0,0.0,82,0.00,,---,0.00,VWS V14.01,2013-10-15 21:59:00,
2013-10-15 18:00:00,69.6,63.9,29.97,NNE,23,0.0,0.0,82,0.00,,---,0.00,VWS V14.01,2013-10-15 22:00:00,
2013-10-15 18:01:00,69.6,64.2,29.97,NNE,23,0.0,0.0,83,0.00,,---,0.00,VWS V14.01,2013-10-15 22:01:00,
2013-10-15 18:02:00,69.6,64.2,29.97,NNE,23,0.0,0.0,83,0.00,,---,0.00,VWS V14.01,2013-10-15 22:02:00,
2013-10-15 18:03:00,69.6,63.9,29.97,NNE,23,0.0,0.0,82,0.00,,---,0.00,VWS V14.01,2013-10-15 22:03:00,
2013-10-15 18:04:00,69.6,63.9,29.97,NNE,23,0.0,0.0,82,0.00,,---,0.00,VWS V14.01,2013-10-15 22:04:00,
2013-10-15 18:05:00,69.6,63.9,29.97,NNE,23,0.0,0.0,82,0.00,,---,0.00,VWS V14.01,2013-10-15 22:05:00,
2013-10-15 18:06:00,69.6,63.9,29.97,NNE,23,0.0,0.0,82,0.00,,---,0.00,VWS V14.01,2013-10-15 22:06:00,
2013-10-15 18:07:00,69.6,64.2,29.97,NNE,23,0.0,0.0,83,0.00,,---,0.00,VWS V14.01,2013-10-15 22:07:00,
2013-10-15 18:08:00,69.6,64.2,29.97,NNE,23,0.0,0.0,83,0.00,,---,0.00,VWS V14.01,2013-10-15 22:08:00,
2013-10-15 18:09:00,69.4,64.0,29.97,NNE,23,0.0,0.0,83,0.00,,---,0.00,VWS V14.01,2013-10-15 22:09:00,
2013-10-15 18:10:00,69.4,64.0,29.97,NNE,23,0.0,0.0,83,0.00,,---,0.00,VWS V14.01,2013-10-15 22:10:00,
2013-10-15 18:11:00,69.4,64.0,29.97,NNE,23,0.0,0.0,83,0.00,,---,0.00,VWS V14.01,2013-10-15 22:11:00,
2013-10-15 18:12:00,69.4,64.0,29.97,NNE,23,0.0,0.0,83,0.00,,---,0.00,VWS V14.01,2013-10-15 22:12:00,
2013-10-15 18:13:00,69.4,64.0,29.97,NNE,23,0.0,0.0,83,0.00,,---,0.00,VWS V14.01,2013-10-15 22:13:00,
2013-10-15 18:14:00,69.4,64.0,29.97,NNE,23,0.0,0.0,83,0.00,,---,0.00,VWS V14.01,2013-10-15 22:14:00,
2013-10-15 18:15:00,69.4,64.0,29.97,NNE,23,0.0,0.0,83,0.00,,---,0.00,VWS V14.01,2013-10-15 22:15:00,
2013-10-15 18:16:00,69.4,64.0,29.97,NNE,23,0.0,0.0,83,0.00,,---,0.00,VWS V14.01,2013-10-15 22:16:00,
2013-10-15 18:17:00,69.4,64.0,29.97,NNE,23,0.0,0.0,83,0.00,,---,0.00,VWS V14.01,2013-10-15 22:17:00,
2013-10-15 18:18:00,69.4,64.0,29.97,NNE,23,0.0,0.0,83,0.00,,---,0.00,VWS V14.01,2013-10-15 22:18:00,
2013-10-15 18:19:00,69.3,63.9,29.97,NNE,23,0.0,0.0,83,0.00,,---,0.00,VWS V14.01,2013-10-15 22:19:00,
2013-10-15 18:20:00,69.3,63.9,29.97,NNE,23,3.0,3.0,83,0.00,,---,0.00,VWS V14.01,2013-10-15 22:20:00,
2013-10-15 18:21:00,69.3,63.9,29.97,ENE,65,2.0,3.0,83,0.00,,---,0.00,VWS V14.01,2013-10-15 22:21:00,
2013-10-15 18:22:00,69.3,63.6,29.97,ENE,65,0.0,3.0,82,0.00,,---,0.00,VWS V14.01,2013-10-15 22:22:00,
2013-10-15 18:23:00,69.3,63.6,29.97,ENE,65,0.0,3.0,82,0.00,,---,0.00,VWS V14.01,2013-10-15 22:23:00,
2013-10-15 18:24:00,69.3,63.9,29.97,ENE,65,0.0,3.0,83,0.00,,---,0.00,VWS V14.01,2013-10-15 22:24:00,
2013-10-15 18:25:00,69.3,63.9,29.97,ENE,65,0.0,3.0,83,0.00,,---,0.00,VWS V14.01,2013-10-15 22:25:00,
2013-10-15 18:26:00,69.3,63.9,29.97,ENE,65,0.0,3.0,83,0.00,,---,0.00,VWS V14.01,2013-10-15 22:26:00,
2013-10-15 18:27:00,69.3,63.9,29.97,ENE,65,0.0,3.0,83,0.00,,---,0.00,VWS V14.01,2013-10-15 22:27:00,
2013-10-15 18:28:00,69.1,63.7,29.97,ENE,65,0.0,3.0,83,0.00,,---,0.00,VWS V14.01,2013-10-15 22:28:00,
2013-10-15 18:29:00,69.1,63.7,29.97,ENE,65,0.0,3.0,83,0.00,,---,0.00,VWS V14.01,2013-10-15 22:29:00,
2013-10-15 18:30:00,69.1,63.7,29.97,ENE,65,0.0,3.0,83,0.00,,---,0.00,VWS V14.01,2013-10-15 22:30:00,
2013-10-15 18:31:00,69.1,63.7,29.97,ENE,65,0.0,0.0,83,0.00,,---,0.00,VWS V14.01,2013-10-15 22:31:00,
2013-10-15 18:32:00,69.1,64.1,29.97,ENE,65,0.0,0.0,84,0.00,,---,0.00,VWS V14.01,2013-10-15 22:32:00,
2013-10-15 18:33:00,69.1,64.1,29.97,ENE,65,0.0,0.0,84,0.00,,---,0.00,VWS V14.01,2013-10-15 22:33:00,
2013-10-15 18:34:00,69.1,64.1,29.97,ENE,65,0.0,0.0,84,0.00,,---,0.00,VWS V14.01,2013-10-15 22:34:00,
2013-10-15 18:35:00,69.1,64.1,29.97,ENE,65,0.0,0.0,84,0.00,,---,0.00,VWS V14.01,2013-10-15 22:35:00,
2013-10-15 18:36:00,69.1,64.1,29.97,ENE,65,0.0,0.0,84,0.00,,---,0.00,VWS V14.01,2013-10-15 22:36:00,
2013-10-15 18:37:00,69.1,64.1,29.97,ENE,65,0.0,0.0,84,0.00,,---,0.00,VWS V14.01,2013-10-15 22:37:00,
2013-10-15 18:38:00,69.1,64.1,29.97,ENE,65,0.0,0.0,84,0.00,,---,0.00,VWS V14.01,2013-10-15 22:38:00,
2013-10-15 18:39:00,68.9,63.9,29.97,ENE,65,0.0,0.0,84,0.00,,---,0.00,VWS V14.01,2013-10-15 22:39:00,
2013-10-15 18:40:00,68.9,63.9,29.97,ENE,76,2.0,3.0,84,0.00,,---,0.00,VWS V14.01,2013-10-15 22:40:00,
2013-10-15 18:41:00,68.9,63.9,29.97,ENE,76,0.0,1.0,84,0.00,,---,0.00,VWS V14.01,2013-10-15 22:41:00,
2013-10-15 18:42:00,68.9,63.9,29.97,ENE,76,0.0,1.0,84,0.00,,---,0.00,VWS V14.01,2013-10-15 22:42:00,
2013-10-15 18:43:00,68.9,63.9,29.97,ENE,76,0.0,1.0,84,0.00,,---,0.00,VWS V14.01,2013-10-15 22:43:00,
2013-10-15 18:44:00,68.9,63.9,29.97,ENE,76,0.0,1.0,84,0.00,,---,0.00,VWS V14.01,2013-10-15 22:44:00,
2013-10-15 18:45:00,68.9,63.9,29.97,ENE,76,0.0,1.0,84,0.00,,---,0.00,VWS V14.01,2013-10-15 22:45:00,
2013-10-15 18:46:00,68.9,63.9,29.97,ENE,76,0.0,1.0,84,0.00,,---,0.00,VWS V14.01,2013-10-15 22:46:00,
2013-10-15 18:47:00,68.9,63.9,29.97,ENE,76,0.0,1.0,84,0.00,,---,0.00,VWS V14.01,2013-10-15 22:47:00,
2013-10-15 18:48:00,68.9,63.9,29.97,ENE,76,0.0,1.0,84,0.00,,---,0.00,VWS V14.01,2013-10-15 22:48:00,
2013-10-15 18:49:00,68.9,63.9,29.97,ENE,76,0.0,1.0,84,0.00,,---,0.00,VWS V14.01,2013-10-15 22:49:00,
2013-10-15 18:50:00,68.9,63.9,29.97,ENE,76,0.0,1.0,84,0.00,,---,0.00,VWS V14.01,2013-10-15 22:50:00,
2013-10-15 18:51:00,68.9,63.9,29.97,ENE,76,0.0,0.0,84,0.00,,---,0.00,VWS V14.01,2013-10-15 22:51:00,
2013-10-15 18:52:00,68.9,63.9,29.97,NNE,32,0.0,1.0,84,0.00,,---,0.00,VWS V14.01,2013-10-15 22:52:00,
2013-10-15 18:53:00,68.9,63.9,29.97,NNE,32,0.0,1.0,84,0.00,,---,0.00,VWS V14.01,2013-10-15 22:53:00,
2013-10-15 18:54:00,68.8,63.8,29.97,NNE,32,0.0,1.0,84,0.00,,---,0.00,VWS V14.01,2013-10-15 22:54:00,
2013-10-15 18:55:00,68.8,64.1,29.97,NNE,32,0.0,1.0,85,0.00,,---,0.00,VWS V14.01,2013-10-15 22:55:00,
2013-10-15 18:56:00,68.8,64.1,29.97,NNE,32,0.0,1.0,85,0.00,,---,0.00,VWS V14.01,2013-10-15 22:56:00,
2013-10-15 18:57:00,68.8,64.1,29.97,NNE,32,0.0,1.0,85,0.00,,---,0.00,VWS V14.01,2013-10-15 22:57:00,
2013-10-15 18:58:00,68.8,64.1,29.97,NNE,32,0.0,1.0,85,0.00,,---,0.00,VWS V14.01,2013-10-15 22:58:00,
2013-10-15 18:59:00,68.8,64.1,29.97,NNE,32,0.0,1.0,85,0.00,,---,0.00,VWS V14.01,2013-10-15 22:59:00,
2013-10-15 19:00:00,68.8,64.1,29.98,NNE,32,0.0,1.0,85,0.00,,---,0.00,VWS V14.01,2013-10-15 23:00:00,
2013-10-15 19:01:00,68.8,64.1,29.98,NNE,32,0.0,0.0,85,0.00,,---,0.00,VWS V14.01,2013-10-15 23:01:00,
2013-10-15 19:02:00,68.8,64.1,29.98,NNE,32,0.0,0.0,85,0.00,,---,0.00,VWS V14.01,2013-10-15 23:02:00,
2013-10-15 19:03:00,68.8,64.1,29.98,NE,52,1.0,1.0,85,0.00,,---,0.00,VWS V14.01,2013-10-15 23:03:00,
2013-10-15 19:04:00,68.8,64.1,29.98,NE,56,0.0,2.0,85,0.00,,---,0.00,VWS V14.01,2013-10-15 23:04:00,
2013-10-15 19:05:00,68.8,64.1,29.98,ENE,62,3.0,3.0,85,0.00,,---,0.00,VWS V14.01,2013-10-15 23:05:00,
2013-10-15 19:06:00,68.8,64.1,29.98,ENE,62,0.0,3.0,85,0.00,,---,0.00,VWS V14.01,2013-10-15 23:06:00,
2013-10-15 19:07:00,68.6,63.9,29.98,ENE,62,0.0,3.0,85,0.00,,---,0.00,VWS V14.01,2013-10-15 23:07:00,
2013-10-15 19:08:00,68.6,63.9,29.98,ENE,62,0.0,3.0,85,0.00,,---,0.00,VWS V14.01,2013-10-15 23:08:00,
2013-10-15 19:09:00,68.6,63.6,29.98,ENE,62,0.0,3.0,84,0.00,,---,0.00,VWS V14.01,2013-10-15 23:09:00,
2013-10-15 19:10:00,68.6,63.6,29.98,ENE,62,0.0,3.0,84,0.00,,---,0.00,VWS V14.01,2013-10-15 23:10:00,
2013-10-15 19:11:00,68.6,63.9,29.98,ENE,62,0.0,0.0,85,0.00,,---,0.00,VWS V14.01,2013-10-15 23:11:00,
2013-10-15 19:12:00,68.6,63.9,29.98,NE,47,2.0,2.0,85,0.00,,---,0.00,VWS V14.01,2013-10-15 23:12:00,
2013-10-15 19:13:00,68.6,63.9,29.98,NE,40,0.0,2.0,85,0.00,,---,0.00,VWS V14.01,2013-10-15 23:13:00,
2013-10-15 19:14:00,68.6,63.9,29.98,NE,40,0.0,2.0,85,0.00,,---,0.00,VWS V14.01,2013-10-15 23:14:00,
2013-10-15 19:15:00,68.6,63.9,29.98,NE,40,0.0,2.0,85,0.00,,---,0.00,VWS V14.01,2013-10-15 23:15:00,
2013-10-15 19:16:00,68.6,63.9,29.98,NE,54,3.0,4.0,85,0.00,,---,0.00,VWS V14.01,2013-10-15 23:16:00,
2013-10-15 19:17:00,68.6,63.9,29.98,NE,52,0.0,4.0,85,0.00,,---,0.00,VWS V14.01,2013-10-15 23:17:00,
2013-10-15 19:18:00,68.6,63.9,29.98,NE,52,0.0,4.0,85,0.00,,---,0.00,VWS V14.01,2013-10-15 23:18:00,
2013-10-15 19:19:00,68.6,63.9,29.98,NE,52,0.0,4.0,85,0.00,,---,0.00,VWS V14.01,2013-10-15 23:19:00,
2013-10-15 19:20:00,68.6,63.9,29.98,NE,35,0.0,4.0,85,0.00,,---,0.00,VWS V14.01,2013-10-15 23:20:00,
2013-10-15 19:21:00,68.6,63.9,29.98,NE,35,0.0,0.0,85,0.00,,---,0.00,VWS V14.01,2013-10-15 23:21:00,
2013-10-15 19:22:00,68.6,63.9,29.98,NE,35,0.0,0.0,85,0.00,,---,0.00,VWS V14.01,2013-10-15 23:22:00,
2013-10-15 19:23:00,68.6,63.9,29.98,NE,35,0.0,0.0,85,0.00,,---,0.00,VWS V14.01,2013-10-15 23:23:00,
2013-10-15 19:24:00,68.6,63.9,29.98,NE,35,0.0,2.0,85,0.00,,---,0.00,VWS V14.01,2013-10-15 23:24:00,
2013-10-15 19:25:00,68.6,63.9,29.98,NE,35,0.0,2.0,85,0.00,,---,0.00,VWS V14.01,2013-10-15 23:25:00,
2013-10-15 19:26:00,68.6,63.9,29.98,NE,35,0.0,2.0,85,0.00,,---,0.00,VWS V14.01,2013-10-15 23:26:00,
2013-10-15 19:27:00,68.6,63.9,29.98,NE,35,0.0,2.0,85,0.00,,---,0.00,VWS V14.01,2013-10-15 23:27:00,
2013-10-15 19:28:00,68.6,63.9,29.98,NE,35,0.0,2.0,85,0.00,,---,0.00,VWS V14.01,2013-10-15 23:28:00,
2013-10-15 19:29:00,68.6,63.9,29.98,NE,35,0.0,2.0,85,0.00,,---,0.00,VWS V14.01,2013-10-15 23:29:00,
2013-10-15 19:30:00,68.6,63.9,29.98,NE,35,0.0,2.0,85,0.00,,---,0.00,VWS V14.01,2013-10-15 23:30:00,
2013-10-15 19:31:00,68.6,64.2,29.98,NE,35,0.0,0.0,86,0.00,,---,0.00,VWS V14.01,2013-10-15 23:31:00,
2013-10-15 19:32:00,68.6,64.2,29.98,NE,35,0.0,0.0,86,0.00,,---,0.00,VWS V14.01,2013-10-15 23:32:00,
2013-10-15 19:33:00,68.6,64.2,29.98,NE,35,0.0,0.0,86,0.00,,---,0.00,VWS V14.01,2013-10-15 23:33:00,
2013-10-15 19:34:00,68.4,64.1,29.98,NE,35,0.0,0.0,86,0.00,,---,0.00,VWS V14.01,2013-10-15 23:34:00,
2013-10-15 19:35:00,68.4,64.1,29.98,NE,35,0.0,1.0,86,0.00,,---,0.00,VWS V14.01,2013-10-15 23:35:00,
2013-10-15 19:36:00,68.4,64.1,29.98,NE,35,0.0,1.0,86,0.00,,---,0.00,VWS V14.01,2013-10-15 23:36:00,
2013-10-15 19:37:00,68.4,64.1,29.98,NE,35,0.0,1.0,86,0.00,,---,0.00,VWS V14.01,2013-10-15 23:37:00,
2013-10-15 19:38:00,68.4,64.1,29.98,NE,35,0.0,1.0,86,0.00,,---,0.00,VWS V14.01,2013-10-15 23:38:00,
2013-10-15 19:39:00,68.4,64.1,29.98,NE,35,0.0,1.0,86,0.00,,---,0.00,VWS V14.01,2013-10-15 23:39:00,
2013-10-15 19:40:00,68.4,64.1,29.98,NE,35,0.0,1.0,86,0.00,,---,0.00,VWS V14.01,2013-10-15 23:40:00,
2013-10-15 19:41:00,68.4,64.1,29.98,NE,35,0.0,0.0,86,0.00,,---,0.00,VWS V14.01,2013-10-15 23:41:00,
2013-10-15 19:42:00,68.4,64.1,29.98,NE,35,0.0,0.0,86,0.00,,---,0.00,VWS V14.01,2013-10-15 23:42:00,
2013-10-15 19:43:00,68.4,64.1,29.98,NE,35,0.0,0.0,86,0.00,,---,0.00,VWS V14.01,2013-10-15 23:43:00,
2013-10-15 19:44:00,68.4,64.1,29.98,NE,35,0.0,0.0,86,0.00,,---,0.00,VWS V14.01,2013-10-15 23:44:00,
2013-10-15 19:45:00,68.4,64.1,29.98,NE,35,0.0,0.0,86,0.00,,---,0.00,VWS V14.01,2013-10-15 23:45:00,
2013-10-15 19:46:00,68.4,64.1,29.98,NE,35,0.0,0.0,86,0.00,,---,0.00,VWS V14.01,2013-10-15 23:46:00,
2013-10-15 19:47:00,68.4,64.1,29.98,NE,35,0.0,0.0,86,0.00,,---,0.00,VWS V14.01,2013-10-15 23:47:00,
2013-10-15 19:48:00,68.4,64.1,29.98,NE,35,0.0,0.0,86,0.00,,---,0.00,VWS V14.01,2013-10-15 23:48:00,
2013-10-15 19:49:00,68.4,64.1,29.98,NE,35,0.0,0.0,86,0.00,,---,0.00,VWS V14.01,2013-10-15 23:49:00,
2013-10-15 19:50:00,68.4,64.1,29.98,NE,35,0.0,0.0,86,0.00,,---,0.00,VWS V14.01,2013-10-15 23:50:00,
2013-10-15 19:51:00,68.4,64.1,29.98,NE,35,0.0,0.0,86,0.00,,---,0.00,VWS V14.01,2013-10-15 23:51:00,
2013-10-15 19:52:00,68.4,64.1,29.98,NE,35,0.0,0.0,86,0.00,,---,0.00,VWS V14.01,2013-10-15 23:52:00,
2013-10-15 19:53:00,68.4,64.1,29.98,NE,35,0.0,0.0,86,0.00,,---,0.00,VWS V14.01,2013-10-15 23:53:00,
2013-10-15 19:54:00,68.3,64.0,29.98,NE,35,0.0,0.0,86,0.00,,---,0.00,VWS V14.01,2013-10-15 23:54:00,
2013-10-15 19:55:00,68.3,64.3,29.98,NE,35,0.0,0.0,87,0.00,,---,0.00,VWS V14.01,2013-10-15 23:55:00,
2013-10-15 19:56:00,68.3,64.0,29.98,NE,35,0.0,0.0,86,0.00,,---,0.00,VWS V14.01,2013-10-15 23:56:00,
2013-10-15 19:57:00,68.3,64.0,29.98,NE,35,0.0,0.0,86,0.00,,---,0.00,VWS V14.01,2013-10-15 23:57:00,
2013-10-15 19:58:00,68.3,64.3,29.98,NE,35,0.0,0.0,87,0.00,,---,0.00,VWS V14.01,2013-10-15 23:58:00,
2013-10-15 19:59:00,68.3,64.3,29.98,NE,35,0.0,0.0,87,0.00,,---,0.00,VWS V14.01,2013-10-15 23:59:00,
2013-10-15 20:00:00,68.3,64.0,29.98,NE,35,0.0,0.0,86,0.00,,---,0.00,VWS V14.01,2013-10-16 00:00:00,
2013-10-15 20:01:00,68.3,64.0,29.98,NE,35,0.0,0.0,86,0.00,,---,0.00,VWS V14.01,2013-10-16 00:01:00,
2013-10-15 20:02:00,68.3,64.0,29.98,NE,35,0.0,0.0,86,0.00,,---,0.00,VWS V14.01,2013-10-16 00:02:00,
2013-10-15 20:03:00,68.3,64.0,29.98,NE,45,0.0,0.0,86,0.00,,---,0.00,VWS V14.01,2013-10-16 00:03:00,
2013-10-15 20:04:00,68.3,64.0,29.98,NE,48,0.0,0.0,86,0.00,,---,0.00,VWS V14.01,2013-10-16 00:04:00,
2013-10-15 20:05:00,68.3,64.0,29.98,NE,48,0.0,0.0,86,0.00,,---,0.00,VWS V14.01,2013-10-16 00:05:00,
2013-10-15 20:06:00,68.3,64.0,29.98,NE,48,0.0,0.0,86,0.00,,---,0.00,VWS V14.01,2013-10-16 00:06:00,
2013-10-15 20:07:00,68.3,64.0,29.98,NE,48,0.0,0.0,86,0.00,,---,0.00,VWS V14.01,2013-10-16 00:07:00,
2013-10-15 20:08:00,68.3,64.0,29.98,NE,48,0.0,0.0,86,0.00,,---,0.00,VWS V14.01,2013-10-16 00:08:00,
2013-10-15 20:09:00,68.3,64.0,29.98,NE,34,3.0,5.0,86,0.00,,---,0.00,VWS V14.01,2013-10-16 00:09:00,
2013-10-15 20:10:00,68.3,64.0,29.98,NNE,30,1.0,5.0,86,0.00,,---,0.00,VWS V14.01,2013-10-16 00:10:00,
2013-10-15 20:11:00,68.3,64.0,29.98,NNE,30,0.0,1.0,86,0.00,,---,0.00,VWS V14.01,2013-10-16 00:11:00,
2013-10-15 20:12:00,68.1,63.8,29.98,NNE,30,0.0,1.0,86,0.00,,---,0.00,VWS V14.01,2013-10-16 00:12:00,
2013-10-15 20:13:00,68.1,63.8,29.98,NNE,30,0.0,1.0,86,0.00,,---,0.00,VWS V14.01,2013-10-16 00:13:00,
2013-10-15 20:14:00,68.1,63.8,29.98,NNE,30,0.0,1.0,86,0.00,,---,0.00,VWS V14.01,2013-10-16 00:14:00,
2013-10-15 20:15:00,68.1,63.8,29.98,NNE,30,0.0,1.0,86,0.00,,---,0.00,VWS V14.01,2013-10-16 00:15:00,
2013-10-15 20:16:00,68.1,63.8,29.98,NNE,30,0.0,1.0,86,0.00,,---,0.00,VWS V14.01,2013-10-16 00:16:00,
2013-10-15 20:17:00,68.1,63.8,29.98,NNE,30,0.0,1.0,86,0.00,,---,0.00,VWS V14.01,2013-10-16 00:17:00,
2013-10-15 20:18:00,68.1,63.8,29.98,NNE,30,0.0,1.0,86,0.00,,---,0.00,VWS V14.01,2013-10-16 00:18:00,
2013-10-15 20:19:00,68.1,63.8,29.98,ENE,65,0.0,1.0,86,0.00,,---,0.00,VWS V14.01,2013-10-16 00:19:00,
2013-10-15 20:20:00,68.1,63.8,29.98,ENE,65,0.0,1.0,86,0.00,,---,0.00,VWS V14.01,2013-10-16 00:20:00,
2013-10-15 20:21:00,68.1,63.8,29.98,ENE,65,0.0,0.0,86,0.00,,---,0.00,VWS V14.01,2013-10-16 00:21:00,
2013-10-15 20:22:00,68.1,63.8,29.98,ENE,65,0.0,0.0,86,0.00,,---,0.00,VWS V14.01,2013-10-16 00:22:00,
2013-10-15 20:23:00,68.1,63.8,29.98,NE,35,0.0,0.0,86,0.00,,---,0.00,VWS V14.01,2013-10-16 00:23:00,
2013-10-15 20:24:00,68.1,63.8,29.98,NE,35,0.0,0.0,86,0.00,,---,0.00,VWS V14.01,2013-10-16 00:24:00,
2013-10-15 20:25:00,68.1,63.8,29.98,NE,40,0.0,2.0,86,0.00,,---,0.00,VWS V14.01,2013-10-16 00:25:00,
2013-10-15 20:26:00,68.1,63.8,29.98,NE,44,1.0,2.0,86,0.00,,---,0.00,VWS V14.01,2013-10-16 00:26:00,
2013-10-15 20:27:00,68.1,63.8,29.98,NE,44,0.0,2.0,86,0.00,,---,0.00,VWS V14.01,2013-10-16 00:27:00,
2013-10-15 20:28:00,68.1,63.8,29.98,NE,44,0.0,2.0,86,0.00,,---,0.00,VWS V14.01,2013-10-16 00:28:00,
2013-10-15 20:29:00,68.1,63.8,29.98,NE,44,0.0,2.0,86,0.00,,---,0.00,VWS V14.01,2013-10-16 00:29:00,
2013-10-15 20:30:00,68.1,63.8,29.98,NE,49,0.0,2.0,86,0.00,,---,0.00,VWS V14.01,2013-10-16 00:30:00,
2013-10-15 20:31:00,68.1,63.8,29.98,ENE,62,2.0,4.0,86,0.00,,---,0.00,VWS V14.01,2013-10-16 00:31:00,
2013-10-15 20:32:00,68.1,63.8,29.98,NNE,28,0.0,4.0,86,0.00,,---,0.00,VWS V14.01,2013-10-16 00:32:00,
2013-10-15 20:33:00,68.1,63.8,29.98,NE,35,2.0,4.0,86,0.00,,---,0.00,VWS V14.01,2013-10-16 00:33:00,
2013-10-15 20:34:00,68.1,63.8,29.98,ENE,68,1.0,4.0,86,0.00,,---,0.00,VWS V14.01,2013-10-16 00:34:00,
2013-10-15 20:35:00,68.1,63.8,29.98,ENE,64,0.0,4.0,86,0.00,,---,0.00,VWS V14.01,2013-10-16 00:35:00,
2013-10-15 20:36:00,68.1,63.8,29.98,ENE,64,0.0,4.0,86,0.00,,---,0.00,VWS V14.01,2013-10-16 00:36:00,
2013-10-15 20:37:00,68.1,63.8,29.98,NE,45,2.0,4.0,86,0.00,,---,0.00,VWS V14.01,2013-10-16 00:37:00,
2013-10-15 20:38:00,68.1,63.8,29.98,NE,41,0.0,4.0,86,0.00,,---,0.00,VWS V14.01,2013-10-16 00:38:00,
2013-10-15 20:39:00,68.1,63.8,29.98,NE,45,0.0,4.0,86,0.00,,---,0.00,VWS V14.01,2013-10-16 00:39:00,
2013-10-15 20:40:00,68.1,63.8,29.98,ENE,58,1.0,7.0,86,0.00,,---,0.00,VWS V14.01,2013-10-16 00:40:00,
2013-10-15 20:41:00,68.1,63.8,29.98,NE,42,0.0,3.0,86,0.00,,---,0.00,VWS V14.01,2013-10-16 00:41:00,
2013-10-15 20:42:00,68.1,63.8,29.98,NNE,25,0.0,3.0,86,0.00,,---,0.00,VWS V14.01,2013-10-16 00:42:00,
2013-10-15 20:43:00,68.1,63.8,29.98,NNE,25,1.0,3.0,86,0.00,,---,0.00,VWS V14.01,2013-10-16 00:43:00,
2013-10-15 20:44:00,67.9,63.6,29.98,NNE,25,0.0,3.0,86,0.00,,---,0.00,VWS V14.01,2013-10-16 00:44:00,
2013-10-15 20:45:00,67.9,63.6,29.98,East,82,5.0,5.0,86,0.00,,---,0.00,VWS V14.01,2013-10-16 00:45:00,
2013-10-15 20:46:00,67.9,63.6,29.98,NNE,21,1.0,5.0,86,0.00,,---,0.00,VWS V14.01,2013-10-16 00:46:00,
2013-10-15 20:47:00,67.9,63.6,29.98,NE,56,0.0,5.0,86,0.00,,---,0.00,VWS V14.01,2013-10-16 00:47:00,
2013-10-15 20:48:00,67.9,63.6,29.98,NE,56,0.0,5.0,86,0.00,,---,0.00,VWS V14.01,2013-10-16 00:48:00,
2013-10-15 20:49:00,67.9,63.6,29.98,NE,56,0.0,5.0,86,0.00,,---,0.00,VWS V14.01,2013-10-16 00:49:00,
2013-10-15 20:50:00,67.9,63.9,29.98,NE,54,6.0,6.0,87,0.00,,---,0.00,VWS V14.01,2013-10-16 00:50:00,
2013-10-15 20:51:00,67.9,63.9,29.98,ENE,66,0.0,6.0,87,0.00,,---,0.00,VWS V14.01,2013-10-16 00:51:00,
2013-10-15 20:52:00,67.9,63.9,29.98,ENE,66,0.0,6.0,87,0.00,,---,0.00,VWS V14.01,2013-10-16 00:52:00,
2013-10-15 20:53:00,67.9,63.9,29.98,East,89,6.0,6.0,87,0.00,,---,0.00,VWS V14.01,2013-10-16 00:53:00,
2013-10-15 20:54:00,67.9,63.9,29.98,ENE,68,0.0,6.0,87,0.00,,---,0.00,VWS V14.01,2013-10-16 00:54:00,
2013-10-15 20:55:00,67.9,63.9,29.98,ESE,121,3.0,6.0,87,0.00,,---,0.00,VWS V14.01,2013-10-16 00:55:00,
2013-10-15 20:56:00,67.9,63.9,29.98,ENE,72,3.0,6.0,87,0.00,,---,0.00,VWS V14.01,2013-10-16 00:56:00,
2013-10-15 20:57:00,67.9,63.9,29.98,ENE,58,0.0,6.0,87,0.00,,---,0.00,VWS V14.01,2013-10-16 00:57:00,
2013-10-15 20:58:00,67.9,64.2,29.98,NE,45,2.0,6.0,88,0.00,,---,0.00,VWS V14.01,2013-10-16 00:58:00,
2013-10-15 20:59:00,67.9,64.2,29.98,NE,54,5.0,6.0,88,0.00,,---,0.00,VWS V14.01,2013-10-16 00:59:00,
2013-10-15 21:00:00,67.9,64.2,29.99,NE,42,3.0,6.0,88,0.00,,---,0.00,VWS V14.01,2013-10-16 01:00:00,
2013-10-15 21:01:00,67.9,64.2,29.99,NE,54,3.0,4.0,88,0.00,,---,0.00,VWS V14.01,2013-10-16 01:01:00,
2013-10-15 21:02:00,67.9,64.2,29.99,NE,54,0.0,4.0,88,0.00,,---,0.00,VWS V14.01,2013-10-16 01:02:00,
2013-10-15 21:03:00,67.9,64.2,29.99,NE,54,0.0,4.0,88,0.00,,---,0.00,VWS V14.01,2013-10-16 01:03:00,
2013-10-15 21:04:00,67.9,64.2,29.99,NE,45,0.0,4.0,88,0.00,,---,0.00,VWS V14.01,2013-10-16 01:04:00,
2013-10-15 21:05:00,67.9,64.2,29.99,NE,51,0.0,4.0,88,0.00,,---,0.00,VWS V14.01,2013-10-16 01:05:00,
2013-10-15 21:06:00,67.9,64.5,29.99,NE,51,0.0,4.0,89,0.00,,---,0.00,VWS V14.01,2013-10-16 01:06:00,
2013-10-15 21:07:00,67.9,64.5,29.99,NE,52,0.0,4.0,89,0.00,,---,0.00,VWS V14.01,2013-10-16 01:07:00,
2013-10-15 21:08:00,67.9,64.5,29.99,NE,51,0.0,4.0,89,0.00,,---,0.00,VWS V14.01,2013-10-16 01:08:00,
2013-10-15 21:09:00,67.8,64.4,29.99,NE,51,0.0,4.0,89,0.00,,---,0.00,VWS V14.01,2013-10-16 01:09:00,
2013-10-15 21:10:00,67.8,64.4,29.99,ENE,58,2.0,5.0,89,0.00,,---,0.00,VWS V14.01,2013-10-16 01:10:00,
2013-10-15 21:11:00,67.8,64.4,29.99,NE,49,1.0,5.0,89,0.00,,---,0.00,VWS V14.01,2013-10-16 01:11:00,
2013-10-15 21:12:00,67.8,64.4,29.99,NE,49,1.0,5.0,89,0.00,,---,0.00,VWS V14.01,2013-10-16 01:12:00,
2013-10-15 21:13:00,67.8,64.4,29.99,NE,49,0.0,5.0,89,0.00,,---,0.00,VWS V14.01,2013-10-16 01:13:00,
2013-10-15 21:14:00,67.8,64.4,29.99,NE,49,0.0,5.0,89,0.00,,---,0.00,VWS V14.01,2013-10-16 01:14:00,
2013-10-15 21:15:00,67.8,64.4,29.98,NE,51,3.0,5.0,89,0.00,,---,0.00,VWS V14.01,2013-10-16 01:15:00,
2013-10-15 21:16:00,67.8,64.4,29.98,NE,38,4.0,8.0,89,0.00,,---,0.00,VWS V14.01,2013-10-16 01:16:00,
2013-10-15 21:17:00,67.8,64.4,29.98,NE,38,0.0,8.0,89,0.00,,---,0.00,VWS V14.01,2013-10-16 01:17:00,
2013-10-15 21:18:00,67.8,64.4,29.98,NNE,27,0.0,8.0,89,0.00,,---,0.00,VWS V14.01,2013-10-16 01:18:00,
2013-10-15 21:19:00,67.8,64.4,29.98,NNE,27,0.0,8.0,89,0.00,,---,0.00,VWS V14.01,2013-10-16 01:19:00,
2013-10-15 21:20:00,67.8,64.8,29.98,ENE,65,1.0,8.0,90,0.00,,---,0.00,VWS V14.01,2013-10-16 01:20:00,
2013-10-15 21:21:00,67.8,64.8,29.98,NE,40,0.0,3.0,90,0.00,,---,0.00,VWS V14.01,2013-10-16 01:21:00,
2013-10-15 21:22:00,67.6,64.6,29.98,NE,40,0.0,3.0,90,0.00,,---,0.00,VWS V14.01,2013-10-16 01:22:00,
2013-10-15 21:23:00,67.6,64.6,29.98,NE,47,1.0,3.0,90,0.00,,---,0.00,VWS V14.01,2013-10-16 01:23:00,
2013-10-15 21:24:00,67.6,64.6,29.98,NE,42,0.0,3.0,90,0.00,,---,0.00,VWS V14.01,2013-10-16 01:24:00,
2013-10-15 21:25:00,67.6,64.6,29.98,NE,42,0.0,3.0,90,0.00,,---,0.00,VWS V14.01,2013-10-16 01:25:00,
2013-10-15 21:26:00,67.6,64.2,29.98,NNE,27,3.0,3.0,89,0.00,,---,0.00,VWS V14.01,2013-10-16 01:26:00,
2013-10-15 21:27:00,67.6,64.2,29.98,NNE,27,0.0,3.0,89,0.00,,---,0.00,VWS V14.01,2013-10-16 01:27:00,
2013-10-15 21:28:00,67.6,64.6,29.98,ENE,64,4.0,4.0,90,0.00,,---,0.00,VWS V14.01,2013-10-16 01:28:00,
2013-10-15 21:29:00,67.6,64.6,29.98,ENE,64,0.0,4.0,90,0.00,,---,0.00,VWS V14.01,2013-10-16 01:29:00,
2013-10-15 21:30:00,67.6,64.6,29.99,NNE,24,0.0,4.0,90,0.00,,---,0.00,VWS V14.01,2013-10-16 01:30:00,
2013-10-15 21:31:00,67.6,64.6,29.99,NNE,27,0.0,0.0,90,0.00,,---,0.00,VWS V14.01,2013-10-16 01:31:00,
2013-10-15 21:32:00,67.6,64.6,29.99,NNE,28,0.0,0.0,90,0.00,,---,0.00,VWS V14.01,2013-10-16 01:32:00,
2013-10-15 21:33:00,67.6,64.6,29.99,East,80,0.0,0.0,90,0.00,,---,0.00,VWS V14.01,2013-10-16 01:33:00,
2013-10-15 21:34:00,67.6,64.6,29.99,East,80,1.0,1.0,90,0.00,,---,0.00,VWS V14.01,2013-10-16 01:34:00,
2013-10-15 21:35:00,67.6,64.6,29.99,NE,35,0.0,3.0,90,0.00,,---,0.00,VWS V14.01,2013-10-16 01:35:00,
2013-10-15 21:36:00,67.6,64.6,29.99,NE,35,0.0,3.0,90,0.00,,---,0.00,VWS V14.01,2013-10-16 01:36:00,
2013-10-15 21:37:00,67.6,64.6,29.99,NE,35,0.0,3.0,90,0.00,,---,0.00,VWS V14.01,2013-10-16 01:37:00,
2013-10-15 21:38:00,67.6,64.6,29.99,NE,35,0.0,3.0,90,0.00,,---,0.00,VWS V14.01,2013-10-16 01:38:00,
2013-10-15 21:39:00,67.4,64.4,29.99,NE,35,0.0,3.0,90,0.00,,---,0.00,VWS V14.01,2013-10-16 01:39:00,
2013-10-15 21:40:00,67.4,64.4,29.99,NE,35,0.0,3.0,90,0.00,,---,0.00,VWS V14.01,2013-10-16 01:40:00,
2013-10-15 21:41:00,67.4,64.4,29.99,NE,35,0.0,0.0,90,0.00,,---,0.00,VWS V14.01,2013-10-16 01:41:00,
2013-10-15 21:42:00,67.4,64.4,29.99,NE,49,0.0,5.0,90,0.00,,---,0.00,VWS V14.01,2013-10-16 01:42:00,
2013-10-15 21:43:00,67.4,64.4,29.99,NE,49,0.0,5.0,90,0.00,,---,0.00,VWS V14.01,2013-10-16 01:43:00,
2013-10-15 21:44:00,67.4,64.4,29.99,NE,49,0.0,5.0,90,0.00,,---,0.00,VWS V14.01,2013-10-16 01:44:00,
2013-10-15 21:45:00,67.4,64.4,29.99,ENE,66,0.0,5.0,90,0.00,,---,0.00,VWS V14.01,2013-10-16 01:45:00,
2013-10-15 21:46:00,67.4,64.4,29.99,NE,35,0.0,5.0,90,0.00,,---,0.00,VWS V14.01,2013-10-16 01:46:00,
2013-10-15 21:47:00,67.4,64.4,29.99,NNE,27,2.0,5.0,90,0.00,,---,0.00,VWS V14.01,2013-10-16 01:47:00,
2013-10-15 21:48:00,67.4,64.4,29.99,ENE,66,3.0,5.0,90,0.00,,---,0.00,VWS V14.01,2013-10-16 01:48:00,
2013-10-15 21:49:00,67.4,64.4,29.99,NE,54,3.0,5.0,90,0.00,,---,0.00,VWS V14.01,2013-10-16 01:49:00,
2013-10-15 21:50:00,67.4,64.4,29.99,NE,54,0.0,5.0,90,0.00,,---,0.00,VWS V14.01,2013-10-16 01:50:00,
2013-10-15 21:51:00,67.4,64.4,29.99,NE,35,0.0,0.0,90,0.00,,---,0.00,VWS V14.01,2013-10-16 01:51:00,
2013-10-15 21:52:00,67.4,64.4,29.99,NE,38,0.0,0.0,90,0.00,,---,0.00,VWS V14.01,2013-10-16 01:52:00,
2013-10-15 21:53:00,67.4,64.4,29.99,NE,38,0.0,0.0,90,0.00,,---,0.00,VWS V14.01,2013-10-16 01:53:00,
2013-10-15 21:54:00,67.4,64.4,29.99,NE,38,0.0,0.0,90,0.00,,---,0.00,VWS V14.01,2013-10-16 01:54:00,
2013-10-15 21:55:00,67.4,64.4,29.99,NE,34,0.0,0.0,90,0.00,,---,0.00,VWS V14.01,2013-10-16 01:55:00,
2013-10-15 21:56:00,67.4,64.4,29.99,NE,48,0.0,3.0,90,0.00,,---,0.00,VWS V14.01,2013-10-16 01:56:00,
2013-10-15 21:57:00,67.4,64.4,29.99,NE,48,0.0,3.0,90,0.00,,---,0.00,VWS V14.01,2013-10-16 01:57:00,
2013-10-15 21:58:00,67.4,64.4,29.99,NE,48,0.0,3.0,90,0.00,,---,0.00,VWS V14.01,2013-10-16 01:58:00,
2013-10-15 21:59:00,67.4,64.4,29.99,NNE,28,0.0,3.0,90,0.00,,---,0.00,VWS V14.01,2013-10-16 01:59:00,
2013-10-15 22:00:00,67.4,64.4,29.99,NNE,28,0.0,3.0,90,0.00,,---,0.00,VWS V14.01,2013-10-16 02:00:00,
2013-10-15 22:01:00,67.4,64.4,29.99,NNE,28,0.0,0.0,90,0.00,,---,0.00,VWS V14.01,2013-10-16 02:01:00,
2013-10-15 22:02:00,67.4,64.4,29.99,ENE,62,0.0,3.0,90,0.00,,---,0.00,VWS V14.01,2013-10-16 02:02:00,
2013-10-15 22:03:00,67.4,64.4,29.99,ENE,62,0.0,3.0,90,0.00,,---,0.00,VWS V14.01,2013-10-16 02:03:00,
2013-10-15 22:04:00,67.4,64.4,29.99,NNE,21,2.0,3.0,90,0.00,,---,0.00,VWS V14.01,2013-10-16 02:04:00,
2013-10-15 22:05:00,67.4,64.4,29.99,NNE,21,0.0,3.0,90,0.00,,---,0.00,VWS V14.01,2013-10-16 02:05:00,
2013-10-15 22:06:00,67.4,64.4,29.99,NNE,21,0.0,3.0,90,0.00,,---,0.00,VWS V14.01,2013-10-16 02:06:00,
2013-10-15 22:07:00,67.4,64.4,29.99,ENE,59,0.0,3.0,90,0.00,,---,0.00,VWS V14.01,2013-10-16 02:07:00,
2013-10-15 22:08:00,67.4,64.4,29.99,NE,44,3.0,3.0,90,0.00,,---,0.00,VWS V14.01,2013-10-16 02:08:00,
2013-10-15 22:09:00,67.4,64.4,29.99,NE,49,1.0,3.0,90,0.00,,---,0.00,VWS V14.01,2013-10-16 02:09:00,
2013-10-15 22:10:00,67.4,64.4,29.99,NE,38,1.0,3.0,90,0.00,,---,0.00,VWS V14.01,2013-10-16 02:10:00,
2013-10-15 22:11:00,67.4,64.4,29.99,NE,48,3.0,3.0,90,0.00,,---,0.00,VWS V14.01,2013-10-16 02:11:00,
2013-10-15 22:12:00,67.4,64.4,29.99,NE,48,0.0,3.0,90,0.00,,---,0.00,VWS V14.01,2013-10-16 02:12:00,
2013-10-15 22:13:00,67.4,64.4,29.99,NE,49,0.0,3.0,90,0.00,,---,0.00,VWS V14.01,2013-10-16 02:13:00,
2013-10-15 22:14:00,67.4,64.4,29.99,NNE,31,1.0,3.0,90,0.00,,---,0.00,VWS V14.01,2013-10-16 02:14:00,
2013-10-15 22:15:00,67.4,64.4,29.98,NNE,31,0.0,3.0,90,0.00,,---,0.00,VWS V14.01,2013-10-16 02:15:00,
2013-10-15 22:16:00,67.4,64.4,29.98,NNE,31,0.0,3.0,90,0.00,,---,0.00,VWS V14.01,2013-10-16 02:16:00,
2013-10-15 22:17:00,67.4,64.4,29.98,NE,35,3.0,3.0,90,0.00,,---,0.00,VWS V14.01,2013-10-16 02:17:00,
2013-10-15 22:18:00,67.4,64.4,29.98,NE,55,0.0,3.0,90,0.00,,---,0.00,VWS V14.01,2013-10-16 02:18:00,
2013-10-15 22:19:00,67.4,64.4,29.98,NE,55,0.0,3.0,90,0.00,,---,0.00,VWS V14.01,2013-10-16 02:19:00,
2013-10-15 22:20:00,67.4,64.4,29.98,NE,55,0.0,3.0,90,0.00,,---,0.00,VWS V14.01,2013-10-16 02:20:00,
2013-10-15 22:21:00,67.4,64.4,29.98,NE,55,0.0,0.0,90,0.00,,---,0.00,VWS V14.01,2013-10-16 02:21:00,
2013-10-15 22:22:00,67.3,64.3,29.98,NE,55,0.0,0.0,90,0.00,,---,0.00,VWS V14.01,2013-10-16 02:22:00,
2013-10-15 22:23:00,67.3,64.3,29.98,NE,55,0.0,0.0,90,0.00,,---,0.00,VWS V14.01,2013-10-16 02:23:00,
2013-10-15 22:24:00,67.3,64.3,29.98,NNE,32,3.0,3.0,90,0.00,,---,0.00,VWS V14.01,2013-10-16 02:24:00,
2013-10-15 22:25:00,67.3,64.3,29.98,ENE,68,2.0,3.0,90,0.00,,---,0.00,VWS V14.01,2013-10-16 02:25:00,
2013-10-15 22:26:00,67.3,64.3,29.98,ENE,64,0.0,3.0,90,0.00,,---,0.00,VWS V14.01,2013-10-16 02:26:00,
2013-10-15 22:27:00,67.3,64.3,29.98,ENE,64,0.0,3.0,90,0.00,,---,0.00,VWS V14.01,2013-10-16 02:27:00,
2013-10-15 22:28:00,67.3,64.3,29.98,ENE,64,0.0,3.0,90,0.00,,---,0.00,VWS V14.01,2013-10-16 02:28:00,
2013-10-15 22:29:00,67.3,64.3,29.98,ENE,64,0.0,3.0,90,0.00,,---,0.00,VWS V14.01,2013-10-16 02:29:00,
2013-10-15 22:30:00,67.3,64.3,29.98,ENE,64,0.0,3.0,90,0.00,,---,0.00,VWS V14.01,2013-10-16 02:30:00,
2013-10-15 22:31:00,67.3,64.3,29.98,NE,48,0.0,0.0,90,0.00,,---,0.00,VWS V14.01,2013-10-16 02:31:00,
2013-10-15 22:32:00,67.3,64.3,29.98,NE,48,0.0,0.0,90,0.00,,---,0.00,VWS V14.01,2013-10-16 02:32:00,
2013-10-15 22:33:00,67.3,64.3,29.98,NE,51,0.0,2.0,90,0.00,,---,0.00,VWS V14.01,2013-10-16 02:33:00,
2013-10-15 22:34:00,67.3,64.3,29.98,NE,51,0.0,2.0,90,0.00,,---,0.00,VWS V14.01,2013-10-16 02:34:00,
2013-10-15 22:35:00,67.3,64.3,29.98,NE,49,0.0,2.0,90,0.00,,---,0.00,VWS V14.01,2013-10-16 02:35:00,
2013-10-15 22:36:00,67.3,64.3,29.98,NE,49,0.0,2.0,90,0.00,,---,0.00,VWS V14.01,2013-10-16 02:36:00,
2013-10-15 22:37:00,67.3,64.3,29.98,NE,49,0.0,2.0,90,0.00,,---,0.00,VWS V14.01,2013-10-16 02:37:00,
2013-10-15 22:38:00,67.3,64.3,29.98,NE,49,0.0,2.0,90,0.00,,---,0.00,VWS V14.01,2013-10-16 02:38:00,
2013-10-15 22:39:00,67.3,64.3,29.98,NE,49,0.0,2.0,90,0.00,,---,0.00,VWS V14.01,2013-10-16 02:39:00,
2013-10-15 22:40:00,67.3,64.3,29.98,NE,49,0.0,2.0,90,0.00,,---,0.00,VWS V14.01,2013-10-16 02:40:00,
2013-10-15 22:41:00,67.3,64.3,29.98,NE,49,0.0,0.0,90,0.00,,---,0.00,VWS V14.01,2013-10-16 02:41:00,
2013-10-15 22:42:00,67.1,64.1,29.98,NE,49,0.0,0.0,90,0.00,,---,0.00,VWS V14.01,2013-10-16 02:42:00,
2013-10-15 22:43:00,67.1,64.4,29.98,NE,49,0.0,0.0,91,0.00,,---,0.00,VWS V14.01,2013-10-16 02:43:00,
2013-10-15 22:44:00,67.1,64.4,29.98,NE,48,0.0,0.0,91,0.00,,---,0.00,VWS V14.01,2013-10-16 02:44:00,
2013-10-15 22:45:00,67.1,64.1,29.98,NE,48,0.0,0.0,90,0.00,,---,0.00,VWS V14.01,2013-10-16 02:45:00,
2013-10-15 22:46:00,67.1,64.4,29.98,NE,48,0.0,0.0,91,0.00,,---,0.00,VWS V14.01,2013-10-16 02:46:00,
2013-10-15 22:47:00,67.1,64.4,29.98,NE,48,0.0,0.0,91,0.00,,---,0.00,VWS V14.01,2013-10-16 02:47:00,
2013-10-15 22:48:00,67.1,64.4,29.98,NE,48,0.0,0.0,91,0.00,,---,0.00,VWS V14.01,2013-10-16 02:48:00,
2013-10-15 22:49:00,67.1,64.4,29.98,NE,48,0.0,0.0,91,0.00,,---,0.00,VWS V14.01,2013-10-16 02:49:00,
2013-10-15 22:50:00,67.1,64.4,29.98,NE,51,0.0,0.0,91,0.00,,---,0.00,VWS V14.01,2013-10-16 02:50:00,
2013-10-15 22:51:00,67.1,64.4,29.98,NE,51,0.0,0.0,91,0.00,,---,0.00,VWS V14.01,2013-10-16 02:51:00,
2013-10-15 22:52:00,67.1,64.4,29.98,NE,51,0.0,0.0,91,0.00,,---,0.00,VWS V14.01,2013-10-16 02:52:00,
2013-10-15 22:53:00,67.1,64.4,29.98,NE,51,0.0,0.0,91,0.00,,---,0.00,VWS V14.01,2013-10-16 02:53:00,
2013-10-15 22:54:00,67.1,64.4,29.98,NE,51,0.0,0.0,91,0.00,,---,0.00,VWS V14.01,2013-10-16 02:54:00,
2013-10-15 22:55:00,67.1,64.4,29.98,NE,51,0.0,0.0,91,0.00,,---,0.00,VWS V14.01,2013-10-16 02:55:00,
2013-10-15 22:56:00,67.1,64.4,29.98,NE,51,0.0,0.0,91,0.00,,---,0.00,VWS V14.01,2013-10-16 02:56:00,
2013-10-15 22:57:00,66.9,64.2,29.98,NE,51,0.0,0.0,91,0.00,,---,0.00,VWS V14.01,2013-10-16 02:57:00,
2013-10-15 22:58:00,66.9,64.2,29.98,NE,51,0.0,0.0,91,0.00,,---,0.00,VWS V14.01,2013-10-16 02:58:00,
2013-10-15 22:59:00,66.9,64.2,29.98,NE,51,0.0,0.0,91,0.00,,---,0.00,VWS V14.01,2013-10-16 02:59:00,
2013-10-15 23:00:00,66.9,64.2,29.97,NE,51,0.0,0.0,91,0.00,,---,0.00,VWS V14.01,2013-10-16 03:00:00,
2013-10-15 23:01:00,66.9,64.2,29.97,NNE,30,0.0,1.0,91,0.00,,---,0.00,VWS V14.01,2013-10-16 03:01:00,
2013-10-15 23:02:00,66.9,64.2,29.97,NNE,28,0.0,1.0,91,0.00,,---,0.00,VWS V14.01,2013-10-16 03:02:00,
2013-10-15 23:03:00,66.9,64.2,29.97,NNE,32,0.0,2.0,91,0.00,,---,0.00,VWS V14.01,2013-10-16 03:03:00,
2013-10-15 23:04:00,66.9,64.2,29.97,NE,56,6.0,6.0,91,0.00,,---,0.00,VWS V14.01,2013-10-16 03:04:00,
2013-10-15 23:05:00,66.9,64.2,29.97,NE,56,6.0,6.0,91,0.00,,---,0.00,VWS V14.01,2013-10-16 03:05:00,
2013-10-15 23:06:00,66.9,64.2,29.97,ENE,68,5.0,6.0,91,0.00,,---,0.00,VWS V14.01,2013-10-16 03:06:00,
2013-10-15 23:07:00,66.9,64.2,29.97,ENE,68,0.0,6.0,91,0.00,,---,0.00,VWS V14.01,2013-10-16 03:07:00,
2013-10-15 23:08:00,66.9,64.2,29.97,ENE,68,0.0,6.0,91,0.00,,---,0.00,VWS V14.01,2013-10-16 03:08:00,
2013-10-15 23:09:00,66.9,64.2,29.97,ENE,69,1.0,6.0,91,0.00,,---,0.00,VWS V14.01,2013-10-16 03:09:00,
2013-10-15 23:10:00,66.9,64.2,29.97,NNE,14,3.0,6.0,91,0.00,,---,0.00,VWS V14.01,2013-10-16 03:10:00,
2013-10-15 23:11:00,66.8,64.1,29.97,NNE,14,0.0,3.0,91,0.00,,---,0.00,VWS V14.01,2013-10-16 03:11:00,
2013-10-15 23:12:00,66.8,64.1,29.97,NNE,18,0.0,3.0,91,0.00,,---,0.00,VWS V14.01,2013-10-16 03:12:00,
2013-10-15 23:13:00,66.8,64.1,29.97,NNE,18,0.0,3.0,91,0.00,,---,0.00,VWS V14.01,2013-10-16 03:13:00,
2013-10-15 23:14:00,66.8,64.1,29.97,NNE,25,2.0,3.0,91,0.00,,---,0.00,VWS V14.01,2013-10-16 03:14:00,
2013-10-15 23:15:00,66.8,64.1,29.97,NNE,25,0.0,3.0,91,0.00,,---,0.00,VWS V14.01,2013-10-16 03:15:00,
2013-10-15 23:16:00,66.8,64.1,29.97,NE,42,0.0,3.0,91,0.00,,---,0.00,VWS V14.01,2013-10-16 03:16:00,
2013-10-15 23:17:00,66.8,64.1,29.97,NE,42,0.0,3.0,91,0.00,,---,0.00,VWS V14.01,2013-10-16 03:17:00,
2013-10-15 23:18:00,66.8,64.1,29.97,NE,42,0.0,3.0,91,0.00,,---,0.00,VWS V14.01,2013-10-16 03:18:00,
2013-10-15 23:19:00,66.8,64.1,29.97,NE,42,0.0,3.0,91,0.00,,---,0.00,VWS V14.01,2013-10-16 03:19:00,
2013-10-15 23:20:00,66.8,64.4,29.97,NE,42,0.0,3.0,92,0.00,,---,0.00,VWS V14.01,2013-10-16 03:20:00,
2013-10-15 23:21:00,66.8,64.4,29.97,NE,41,0.0,0.0,92,0.00,,---,0.00,VWS V14.01,2013-10-16 03:21:00,
2013-10-15 23:22:00,66.8,64.4,29.97,NE,41,0.0,0.0,92,0.00,,---,0.00,VWS V14.01,2013-10-16 03:22:00,
2013-10-15 23:23:00,66.8,64.1,29.97,NE,41,0.0,0.0,91,0.00,,---,0.00,VWS V14.01,2013-10-16 03:23:00,
2013-10-15 23:24:00,66.8,64.1,29.97,NE,41,0.0,0.0,91,0.00,,---,0.00,VWS V14.01,2013-10-16 03:24:00,
2013-10-15 23:25:00,66.8,64.1,29.97,NE,41,0.0,0.0,91,0.00,,---,0.00,VWS V14.01,2013-10-16 03:25:00,
2013-10-15 23:26:00,66.8,64.1,29.97,NE,41,0.0,0.0,91,0.00,,---,0.00,VWS V14.01,2013-10-16 03:26:00,
2013-10-15 23:27:00,66.8,64.1,29.97,NE,41,0.0,0.0,91,0.00,,---,0.00,VWS V14.01,2013-10-16 03:27:00,
2013-10-15 23:28:00,66.8,64.1,29.97,NE,41,0.0,0.0,91,0.00,,---,0.00,VWS V14.01,2013-10-16 03:28:00,
2013-10-15 23:29:00,66.8,64.1,29.97,NE,41,0.0,0.0,91,0.00,,---,0.00,VWS V14.01,2013-10-16 03:29:00,
2013-10-15 23:30:00,66.8,64.4,29.97,NE,41,0.0,0.0,92,0.00,,---,0.00,VWS V14.01,2013-10-16 03:30:00,
2013-10-15 23:31:00,66.8,64.4,29.97,NE,41,0.0,0.0,92,0.00,,---,0.00,VWS V14.01,2013-10-16 03:31:00,
2013-10-15 23:32:00,66.8,64.4,29.97,NE,41,0.0,0.0,92,0.00,,---,0.00,VWS V14.01,2013-10-16 03:32:00,
2013-10-15 23:33:00,66.8,64.4,29.97,NE,41,0.0,0.0,92,0.00,,---,0.00,VWS V14.01,2013-10-16 03:33:00,
2013-10-15 23:34:00,66.8,64.4,29.97,NE,41,0.0,0.0,92,0.00,,---,0.00,VWS V14.01,2013-10-16 03:34:00,
2013-10-15 23:35:00,66.8,64.4,29.97,NE,41,0.0,0.0,92,0.00,,---,0.00,VWS V14.01,2013-10-16 03:35:00,
2013-10-15 23:36:00,66.8,64.4,29.97,NE,41,0.0,0.0,92,0.00,,---,0.00,VWS V14.01,2013-10-16 03:36:00,
2013-10-15 23:37:00,66.8,64.4,29.97,NE,41,0.0,0.0,92,0.00,,---,0.00,VWS V14.01,2013-10-16 03:37:00,
2013-10-15 23:38:00,66.8,64.4,29.97,NE,41,0.0,0.0,92,0.00,,---,0.00,VWS V14.01,2013-10-16 03:38:00,
2013-10-15 23:39:00,66.8,64.4,29.97,NE,41,0.0,0.0,92,0.00,,---,0.00,VWS V14.01,2013-10-16 03:39:00,
2013-10-15 23:40:00,66.6,64.2,29.97,NE,41,0.0,0.0,92,0.00,,---,0.00,VWS V14.01,2013-10-16 03:40:00,
2013-10-15 23:41:00,66.6,64.2,29.97,NE,41,0.0,0.0,92,0.00,,---,0.00,VWS V14.01,2013-10-16 03:41:00,
2013-10-15 23:42:00,66.6,64.2,29.97,NE,41,0.0,0.0,92,0.00,,---,0.00,VWS V14.01,2013-10-16 03:42:00,
2013-10-15 23:43:00,66.6,64.2,29.97,NE,41,0.0,0.0,92,0.00,,---,0.00,VWS V14.01,2013-10-16 03:43:00,
2013-10-15 23:44:00,66.6,64.2,29.97,NE,41,0.0,0.0,92,0.00,,---,0.00,VWS V14.01,2013-10-16 03:44:00,
2013-10-15 23:45:00,66.6,64.2,29.96,NE,41,0.0,0.0,92,0.00,,---,0.00,VWS V14.01,2013-10-16 03:45:00,
2013-10-15 23:46:00,66.6,64.2,29.96,NE,41,0.0,0.0,92,0.00,,---,0.00,VWS V14.01,2013-10-16 03:46:00,
2013-10-15 23:47:00,66.6,64.2,29.96,NE,41,0.0,0.0,92,0.00,,---,0.00,VWS V14.01,2013-10-16 03:47:00,
2013-10-15 23:48:00,66.6,64.2,29.96,NE,41,0.0,0.0,92,0.00,,---,0.00,VWS V14.01,2013-10-16 03:48:00,
2013-10-15 23:49:00,66.6,64.2,29.96,NE,41,0.0,0.0,92,0.00,,---,0.00,VWS V14.01,2013-10-16 03:49:00,
2013-10-15 23:50:00,66.6,64.2,29.96,NE,41,0.0,0.0,92,0.00,,---,0.00,VWS V14.01,2013-10-16 03:50:00,
2013-10-15 23:51:00,66.6,64.2,29.96,NE,41,0.0,0.0,92,0.00,,---,0.00,VWS V14.01,2013-10-16 03:51:00,
2013-10-15 23:52:00,66.6,64.2,29.96,NE,41,0.0,0.0,92,0.00,,---,0.00,VWS V14.01,2013-10-16 03:52:00,
2013-10-15 23:53:00,66.6,64.2,29.96,NE,41,0.0,0.0,92,0.00,,---,0.00,VWS V14.01,2013-10-16 03:53:00,
2013-10-15 23:54:00,66.6,64.2,29.96,NE,41,0.0,0.0,92,0.00,,---,0.00,VWS V14.01,2013-10-16 03:54:00,
2013-10-15 23:55:00,66.6,64.5,29.96,NE,41,0.0,0.0,93,0.00,,---,0.00,VWS V14.01,2013-10-16 03:55:00,
2013-10-15 23:56:00,66.6,64.2,29.96,NE,41,0.0,0.0,92,0.00,,---,0.00,VWS V14.01,2013-10-16 03:56:00,
2013-10-15 23:57:00,66.6,64.5,29.96,NE,41,0.0,0.0,93,0.00,,---,0.00,VWS V14.01,2013-10-16 03:57:00,
2013-10-15 23:58:00,66.6,64.5,29.96,NE,41,0.0,0.0,93,0.00,,---,0.00,VWS V14.01,2013-10-16 03:58:00,
2013-10-15 23:59:00,66.6,64.5,29.96,NE,41,0.0,0.0,93,0.00,,---,0.00,VWS V14.01,2013-10-16 03:59:00,